GFSCGP_sfc_thetae_000.txt.gz
Theta_e
293 289 287 292 291 292 286 285 285 288 293 290 290 292 295 298 295 292 294 297 298 299 302 298 297 297 296 295 294 292 292 292 293 291 290 289 289 288 286 286 287 286 286 286
289 287 293 294 291 291 289 288 288 291 293 289 290 290 294 294 297 298 297 297 297 299 300 294 294 293 294 295 293 292 292 291 293 293 292 290 288 285 287 286 286 286 286 285
290 291 295 292 290 289 289 287 288 288 289 288 286 287 287 292 294 296 295 297 299 300 300 296 293 292 292 292 292 291 292 291 292 292 289 286 285 284 283 284 284 284 284 285
289 294 293 290 289 291 288 291 290 287 284 283 286 282 285 289 291 293 294 295 296 298 297 296 292 290 291 292 291 291 291 291 292 291 289 287 289 286 286 286 284 283 284 284
288 288 289 288 291 291 290 289 288 285 283 282 282 281 284 288 287 291 295 295 296 298 294 293 292 293 292 290 290 291 291 291 290 290 290 288 288 288 283 283 282 283 282 283
289 289 289 290 289 290 289 288 286 283 282 279 284 283 284 284 288 289 293 295 296 298 293 292 292 291 288 287 289 289 289 289 289 289 288 288 287 284 283 283 283 282 282 282
285 286 287 290 287 287 288 285 278 275 274 278 284 280 288 288 292 291 293 295 296 296 290 290 290 290 288 287 287 288 288 288 288 288 288 288 287 285 285 283 284 282 282 281
281 282 287 289 289 286 286 286 282 273 276 282 279 279 286 291 293 293 293 294 292 292 292 292 290 291 289 288 287 288 288 288 288 288 288 288 287 286 286 284 284 284 283 283
282 284 287 288 288 290 283 282 288 281 270 273 283 285 290 289 291 291 291 291 291 291 291 291 289 289 288 287 288 288 288 288 288 288 288 287 287 286 286 284 284 284 283 281
286 283 288 285 287 286 287 288 281 280 275 273 279 281 285 288 290 289 290 291 291 290 289 289 289 289 287 288 288 288 288 288 288 287 287 286 286 285 285 282 282 282 281 280
290 287 286 284 284 285 284 284 284 284 283 280 279 283 287 287 286 288 290 292 290 290 291 291 290 289 288 287 287 287 288 287 286 286 287 286 285 285 284 282 281 280 280 279
292 289 284 287 289 287 286 287 288 283 280 280 281 283 295 295 294 295 294 293 291 290 291 291 292 290 288 287 286 287 288 287 288 287 287 285 285 284 283 282 281 280 280 279
295 288 283 284 288 289 283 285 287 287 283 283 280 282 295 295 294 296 294 295 292 291 291 291 291 292 292 290 289 288 288 288 288 286 285 284 283 283 283 282 280 279 279 278
297 290 286 282 285 288 285 285 285 285 282 283 283 285 290 292 293 295 296 296 291 293 292 292 293 293 292 292 291 288 288 288 287 285 284 284 283 283 283 282 280 279 278 277
294 286 288 289 290 290 289 289 289 287 288 284 286 286 290 292 294 296 297 298 295 292 292 294 293 294 294 290 290 290 290 288 287 286 284 284 284 283 282 279 279 278 278 277
290 285 288 286 288 287 285 288 289 288 288 288 288 287 295 296 297 296 296 297 297 296 295 294 292 291 291 293 293 289 289 287 285 285 284 284 282 281 280 278 278 277 276 275
285 284 283 280 284 283 280 286 287 288 290 289 285 289 289 288 290 294 294 289 289 290 291 290 290 292 291 293 292 289 288 286 283 284 284 282 281 279 278 277 276 275 275 274
284 283 283 279 281 273 284 290 291 288 290 291 286 282 283 281 284 288 289 287 286 287 288 290 290 291 292 293 291 289 284 283 284 284 283 280 279 278 276 275 275 275 274 273
285 284 279 277 276 281 285 283 281 281 281 282 279 280 280 281 281 286 285 285 286 287 288 289 291 291 290 288 287 285 280 280 280 281 281 280 279 277 275 275 275 274 273 273
280 280 277 274 270 270 275 278 281 283 279 281 280 279 279 279 273 276 283 286 287 289 290 290 290 289 289 288 283 280 278 277 278 279 279 278 278 277 275 275 274 274 273 273
264 266 268 270 270 274 277 279 281 272 271 280 280 279 278 276 279 281 284 286 287 287 288 288 288 288 289 286 281 281 276 277 276 276 274 273 274 274 273 273 273 272 272 271
268 268 265 268 262 266 278 276 270 275 280 281 280 279 279 279 280 282 283 282 282 282 284 286 285 286 288 287 281 282 280 277 272 273 272 272 272 273 273 270 270 270 270 269
265 271 265 271 271 278 279 278 280 282 276 277 278 278 277 277 278 278 276 277 278 279 280 282 284 284 286 287 282 280 283 274 271 273 273 272 270 271 271 270 269 268 269 269
272 275 270 269 274 275 277 278 280 280 278 278 277 275 276 274 274 273 274 274 275 277 277 278 278 279 281 284 286 284 284 276 273 273 272 271 270 269 269 269 269 268 268 268
272 274 271 271 275 276 277 277 277 277 277 275 275 274 273 272 272 272 271 272 273 273 273 274 273 273 273 277 281 285 285 276 274 273 271 270 270 268 268 269 269 269 270 271
275 273 271 269 276 275 276 278 277 275 274 273 272 271 272 272 271 271 270 271 271 270 270 269 269 270 271 273 274 276 282 276 275 272 270 269 269 268 268 268 267 274 273 275

GFSCGP_sfc_thetae_003.txt.gz
Theta_e
291 288 286 291 290 291 285 284 284 288 291 287 289 290 293 296 296 297 297 295 297 298 301 302 296 295 295 293 293 293 292 292 293 291 290 290 290 290 289 288 288 288 287 287
288 286 292 292 290 289 287 286 287 291 292 287 289 289 292 292 295 296 298 298 298 298 299 300 294 293 293 294 293 293 292 291 293 293 293 290 292 287 289 287 286 286 286 285
290 290 293 291 288 287 287 286 288 287 288 287 286 287 289 290 291 295 296 298 298 297 298 299 293 292 292 292 292 292 292 291 293 293 290 285 284 283 283 283 285 285 285 285
288 292 291 288 287 289 287 289 289 287 283 282 285 281 284 290 292 293 294 295 295 296 298 297 293 291 291 293 292 292 292 291 292 292 290 289 288 287 287 288 287 284 284 284
287 286 286 287 290 289 288 289 286 284 282 281 282 279 284 287 288 289 292 293 295 296 296 296 292 293 292 290 289 290 290 290 291 291 291 289 289 289 284 283 282 283 282 283
288 288 289 289 288 289 288 286 284 282 282 278 283 282 286 284 288 288 291 293 294 294 295 292 292 291 290 287 288 288 289 289 290 290 290 289 289 285 284 283 283 283 283 282
284 285 286 290 286 286 286 283 277 275 273 277 282 280 288 288 290 291 294 291 293 292 292 295 291 291 288 286 287 288 288 288 288 289 289 288 289 286 286 284 285 283 282 282
281 283 286 288 288 285 284 284 278 272 275 281 279 278 288 291 292 290 291 291 291 292 293 290 292 290 288 287 286 287 288 288 288 288 288 288 288 287 286 285 285 284 284 283
280 281 285 287 287 289 283 281 287 281 277 277 283 285 290 289 289 288 289 289 290 291 291 290 291 288 288 286 286 287 287 288 288 288 288 287 287 287 286 284 284 284 283 283
286 282 286 284 285 286 286 287 280 279 273 274 279 282 285 289 292 289 289 289 291 292 291 291 290 289 287 287 287 287 287 287 287 287 288 287 287 287 286 283 283 283 283 281
289 287 286 286 284 287 282 282 283 283 281 279 278 282 293 292 288 288 291 293 293 290 292 292 292 291 289 288 287 288 287 286 286 286 287 287 286 287 285 283 283 283 282 280
292 289 284 287 288 288 286 285 285 280 280 281 282 283 294 295 292 293 295 297 295 291 294 293 292 291 291 289 288 288 289 287 288 288 288 287 286 285 284 283 282 283 281 280
293 287 283 283 285 286 286 289 289 288 285 280 278 282 294 295 295 296 294 292 293 293 293 293 292 292 293 293 290 288 288 288 288 287 286 285 285 284 284 284 282 281 281 280
296 290 286 282 283 288 285 286 288 287 282 282 283 285 289 292 293 295 295 294 292 289 289 289 289 290 291 293 293 291 290 289 287 285 285 285 285 285 285 285 282 281 281 279
291 285 286 287 288 288 287 286 288 286 286 282 285 286 290 293 287 284 288 286 285 285 286 286 288 289 290 291 293 293 293 290 286 286 286 286 286 286 285 284 281 281 280 280
288 281 284 282 284 284 283 285 285 285 284 283 284 284 279 280 280 280 281 281 280 282 284 286 287 288 289 290 290 290 290 290 286 287 286 287 286 284 284 284 281 280 279 278
282 281 279 275 280 279 275 280 282 284 284 282 278 275 278 277 277 278 280 280 281 283 284 286 287 288 289 289 288 288 287 287 288 286 287 286 282 282 282 281 280 279 278 277
280 279 278 273 275 266 277 282 283 281 278 278 277 278 277 278 279 280 284 280 282 284 287 287 289 288 288 289 288 287 286 286 284 285 286 281 282 283 280 279 278 278 278 277
283 280 273 264 264 273 277 277 275 275 274 278 276 277 278 279 278 278 281 282 283 285 286 286 286 287 288 287 287 285 284 284 282 281 282 280 280 280 277 278 277 277 277 276
278 280 273 262 265 265 273 277 280 279 272 278 278 277 277 277 270 273 280 282 284 283 282 281 283 284 285 285 287 285 284 284 282 280 279 277 276 275 277 277 276 276 276 275
261 260 260 257 258 265 272 275 277 263 266 275 279 277 275 274 277 279 281 281 281 280 279 280 280 280 282 285 284 284 284 283 283 278 274 272 273 274 276 276 275 274 274 274
266 258 257 255 254 260 276 274 270 272 275 277 277 277 277 278 278 278 279 278 276 276 277 278 278 279 279 279 281 281 281 284 283 279 274 274 271 272 274 275 273 273 273 271
264 269 263 266 265 277 278 276 278 278 277 277 277 278 278 276 275 276 274 274 274 275 275 276 275 273 275 276 276 275 276 279 283 282 280 276 275 273 274 272 271 271 271 270
271 275 270 268 275 275 277 278 278 278 278 279 278 276 275 274 274 273 273 273 273 273 273 274 272 271 270 272 273 273 274 277 276 278 279 277 273 272 272 272 271 271 270 270
272 273 270 271 275 276 277 278 278 278 277 277 275 274 273 273 272 271 271 271 271 271 272 271 270 269 268 269 270 270 271 272 272 274 277 276 273 272 271 271 271 271 272 273
275 273 271 269 276 275 276 278 277 275 275 273 271 271 272 272 270 270 269 270 270 269 269 268 267 266 266 266 266 267 267 268 268 269 272 275 273 271 271 270 269 275 276 276

GFSCGP_sfc_thetae_006.txt.gz
Theta_e
290 287 286 290 289 289 283 283 283 286 290 286 289 290 292 294 292 295 296 296 296 298 300 300 297 295 294 292 293 293 292 294 295 293 291 290 292 290 290 290 290 290 289 288
287 285 291 290 288 287 286 285 286 289 291 286 287 288 292 293 294 295 296 297 297 297 298 298 294 292 292 293 292 292 292 292 294 294 294 291 294 290 291 290 288 289 287 287
288 290 292 289 286 286 284 283 286 285 287 286 284 285 286 290 290 294 294 296 294 294 297 298 293 292 291 291 290 292 292 291 293 293 291 285 285 284 284 285 286 286 287 286
287 290 290 286 286 287 285 288 288 286 283 281 284 280 284 288 289 290 293 291 292 293 293 293 293 291 292 292 291 291 291 290 292 292 290 289 289 288 289 290 290 287 286 286
286 285 285 285 288 288 287 287 286 283 282 280 280 278 283 285 286 289 291 292 291 292 292 292 292 292 292 291 290 289 290 289 291 291 291 290 290 291 286 286 286 286 285 285
287 287 288 288 288 289 287 285 283 281 281 277 282 281 286 283 285 288 291 296 292 292 292 292 292 290 290 288 287 287 288 288 289 290 290 290 290 284 285 284 285 284 284 283
284 285 286 288 285 285 285 282 276 274 273 276 280 279 286 289 292 290 291 291 291 291 290 291 291 290 289 287 285 285 286 286 287 288 289 289 289 285 287 285 286 284 283 283
282 285 285 287 287 285 283 284 278 274 272 280 278 278 288 290 291 291 289 290 289 290 290 290 291 289 288 287 285 286 286 286 286 286 287 287 287 286 287 285 286 285 285 285
281 283 285 286 286 287 282 281 286 281 282 276 283 284 289 292 288 289 286 288 289 291 291 291 291 289 287 286 286 286 285 286 285 285 286 286 286 286 286 284 284 285 285 284
287 283 286 285 286 286 285 286 280 279 275 273 278 281 284 289 292 290 289 289 291 291 291 291 292 291 288 287 286 286 286 286 285 286 287 287 287 287 286 284 284 283 284 282
288 286 285 286 284 285 284 282 282 283 282 278 277 282 289 291 293 289 289 292 292 289 289 290 290 291 291 289 287 286 285 285 285 284 286 285 284 285 284 283 284 284 282 281
289 291 285 286 289 288 286 287 286 282 280 281 281 281 293 292 294 290 287 287 288 288 287 288 289 289 290 291 292 291 288 286 286 285 285 284 284 283 283 283 283 283 282 281
294 287 281 282 285 286 285 288 289 289 285 282 279 281 293 293 287 286 283 282 283 284 285 286 287 288 289 289 290 290 290 290 288 288 285 284 284 283 284 284 283 283 282 281
294 287 284 280 282 286 285 287 288 287 282 282 282 284 289 282 280 280 282 280 281 282 284 285 286 287 288 289 289 288 288 288 287 286 285 284 283 284 285 285 284 282 282 281
290 284 286 286 288 286 284 283 283 282 284 280 282 283 284 277 278 279 281 281 281 281 283 285 286 287 288 288 288 288 288 287 286 286 286 286 285 284 284 284 284 281 282 282
287 280 281 277 281 281 279 282 281 282 282 282 282 280 277 278 280 279 280 280 280 281 284 286 285 288 286 286 286 286 287 286 286 285 285 286 285 283 282 284 283 280 280 280
281 280 277 273 278 277 272 277 279 280 282 278 275 274 275 276 277 277 279 281 279 280 282 285 283 284 284 285 286 284 285 286 284 284 284 284 283 283 284 281 280 280 279 280
280 278 276 273 272 266 275 279 279 277 277 277 276 274 275 277 277 279 282 279 279 281 283 283 282 281 282 283 283 284 285 284 284 283 283 283 282 281 281 278 279 278 278 278
281 278 270 267 262 270 275 275 274 275 273 276 276 278 278 278 277 275 279 280 280 280 283 281 280 281 281 280 282 282 280 281 283 283 283 282 281 280 279 277 277 278 278 278
277 279 275 262 263 257 271 275 278 278 267 273 274 275 275 275 269 272 278 280 280 282 280 278 278 278 278 279 281 278 277 279 278 280 281 281 279 277 277 276 274 275 278 278
259 258 263 261 257 263 271 274 276 262 265 271 274 275 275 273 274 277 279 278 278 279 277 277 276 275 276 279 277 275 276 276 277 277 277 280 281 278 277 277 273 274 275 274
267 259 256 253 254 257 275 273 268 271 274 274 275 278 277 277 278 278 277 277 277 275 275 276 274 274 275 276 274 274 273 275 275 275 275 277 278 279 277 275 274 273 274 274
264 269 262 264 264 275 277 275 279 277 274 276 277 279 278 277 277 277 275 275 275 275 274 275 272 272 274 273 272 271 272 272 271 272 272 273 274 277 277 275 274 272 273 272
271 274 271 271 274 275 276 278 277 278 278 278 278 278 277 276 275 274 274 274 273 273 272 272 271 270 270 272 271 270 270 270 268 268 268 269 270 273 277 275 275 273 272 272
273 272 269 271 275 276 277 278 279 279 278 276 276 275 274 273 272 272 272 271 271 271 271 271 270 269 269 270 269 268 268 266 265 265 266 266 268 269 273 275 274 273 274 275
275 273 270 269 276 275 276 279 277 276 275 273 272 271 272 272 271 271 269 270 269 269 269 268 267 266 266 266 265 265 265 264 263 262 263 264 266 267 270 273 273 277 278 278

GFSCGP_sfc_thetae_009.txt.gz
Theta_e
291 288 286 289 289 287 285 283 283 287 290 287 290 290 291 294 293 294 296 297 298 298 301 300 299 299 298 297 296 296 295 299 302 302 299 297 297 299 297 298 297 296 296 294
287 285 291 290 289 288 286 285 285 288 290 286 287 289 293 294 295 296 296 297 296 296 298 299 297 297 297 297 295 295 295 296 299 301 301 299 300 298 298 297 295 296 295 294
287 289 291 289 287 286 285 284 286 285 286 287 285 285 287 292 291 293 295 295 295 294 295 296 296 296 296 296 295 294 294 294 297 298 297 290 291 290 291 291 292 292 293 292
287 290 289 286 287 287 284 288 287 285 283 280 286 280 284 290 290 291 292 292 292 293 295 294 293 294 294 295 295 294 294 293 295 296 295 295 294 293 293 295 294 292 292 292
287 286 285 285 288 288 287 287 285 284 282 281 281 278 284 286 287 289 292 294 294 293 293 294 294 294 294 292 292 293 292 292 294 294 295 294 294 295 292 293 292 291 290 291
287 287 288 288 287 288 287 285 283 282 282 277 282 281 283 284 288 288 291 294 293 293 293 296 293 293 292 291 289 290 290 290 291 293 293 293 293 291 290 290 290 289 288 288
284 285 286 287 285 285 286 283 278 276 274 277 281 279 285 288 292 291 293 292 291 292 292 293 292 291 290 290 288 288 288 288 289 290 291 292 292 289 291 290 291 288 287 287
283 285 286 287 288 286 283 284 280 274 275 281 277 280 289 289 292 291 290 290 292 292 291 290 290 291 290 290 288 288 287 288 288 288 289 290 290 290 290 289 290 289 288 288
281 282 285 286 287 288 282 281 287 281 279 278 282 285 292 293 289 289 289 288 287 288 288 289 289 290 291 291 290 288 287 287 288 287 288 288 288 288 288 287 288 289 289 288
287 285 287 286 284 286 286 287 281 279 274 275 280 282 284 289 286 286 286 285 285 286 286 287 288 289 290 291 291 291 290 288 288 288 287 288 288 288 287 286 286 286 287 286
287 286 286 286 283 283 282 282 282 283 282 278 277 281 289 283 284 283 283 283 283 283 285 286 287 289 289 290 290 289 290 289 289 289 289 287 287 287 287 285 285 286 285 285
288 288 282 284 289 287 286 286 286 282 280 281 282 282 292 283 283 281 280 281 282 283 285 286 287 288 289 288 289 288 289 288 288 289 288 288 287 286 285 286 285 285 284 284
293 287 281 283 285 286 287 288 288 287 285 281 279 282 289 285 283 282 280 280 281 282 283 286 286 287 288 287 287 287 287 288 287 287 287 287 287 286 285 285 285 284 285 284
294 287 284 280 282 286 284 286 286 286 281 281 282 284 287 280 278 280 281 281 281 281 282 285 285 285 287 285 286 287 286 287 287 286 286 286 286 286 286 286 286 284 284 284
290 283 285 285 285 284 281 281 281 279 281 277 280 280 284 276 277 279 280 282 281 280 281 283 285 283 284 283 284 285 285 286 286 285 285 285 285 285 285 285 285 285 283 284
286 281 280 276 281 280 278 279 280 279 280 280 280 280 277 278 279 278 278 281 279 278 280 282 285 282 282 282 282 283 283 284 283 284 284 285 284 283 283 284 284 284 283 282
282 280 276 274 278 276 272 276 278 278 280 278 275 273 273 274 276 276 277 281 279 278 279 280 283 280 280 281 281 280 281 282 280 282 282 283 283 282 281 282 282 282 282 282
280 277 276 273 267 266 275 277 279 277 275 274 273 271 274 277 279 279 280 280 278 279 280 280 282 279 279 280 279 279 281 278 278 279 279 280 279 279 280 280 281 281 281 281
281 277 270 269 267 271 275 276 275 275 272 274 273 275 277 279 277 276 279 279 278 279 280 281 280 279 279 278 279 278 279 277 277 277 277 277 277 276 279 279 279 280 279 279
277 278 274 264 262 256 270 275 277 276 265 272 270 270 272 275 269 273 276 278 279 279 280 280 279 277 277 277 277 277 276 274 275 276 276 276 275 275 277 277 278 279 278 279
259 260 269 269 267 264 271 273 276 262 265 271 272 274 274 273 276 278 278 278 278 278 279 278 276 275 276 276 275 275 274 273 274 274 274 273 273 274 274 275 277 277 277 278
267 259 254 254 256 260 273 273 268 271 274 274 275 276 275 277 279 279 278 278 278 276 277 277 275 275 276 276 274 273 272 274 273 271 271 270 270 271 272 271 273 276 276 275
265 269 263 265 264 274 276 275 278 278 276 277 276 277 277 277 278 278 276 275 275 276 276 276 274 273 274 274 273 271 272 272 271 268 268 268 268 268 269 269 270 273 276 274
270 273 270 271 274 274 277 279 278 278 277 278 277 277 277 276 276 275 274 274 274 274 273 273 271 270 270 271 271 270 270 270 267 265 265 266 265 266 266 268 269 271 274 274
273 272 269 271 274 276 276 278 278 279 278 276 275 275 274 273 272 272 271 271 271 271 270 270 268 268 267 268 267 267 267 265 264 263 264 263 263 263 264 266 267 270 274 275
276 273 271 269 276 275 276 279 277 277 276 272 271 271 272 272 270 270 268 269 268 267 267 265 265 264 263 263 263 263 263 262 261 260 260 261 261 262 262 263 264 270 273 276

GFSCGP_sfc_thetae_012.txt.gz
Theta_e
299 296 294 297 298 298 294 293 292 295 298 295 295 295 297 300 300 300 301 303 304 304 306 307 307 307 306 307 306 306 306 306 310 311 312 314 313 313 313 314 312 311 309 305
295 293 298 297 296 294 294 292 292 296 297 293 294 294 297 299 299 301 301 302 303 303 303 304 304 304 304 304 305 305 304 304 307 309 311 311 311 311 311 311 310 309 307 304
294 297 297 294 295 292 293 291 292 292 294 295 293 294 295 300 299 301 300 302 301 301 300 301 301 300 300 300 300 301 302 303 304 307 308 308 305 306 306 306 306 305 306 304
294 295 293 292 292 294 290 296 293 291 290 289 293 287 295 298 298 298 300 301 301 301 300 298 297 297 297 297 298 299 300 300 301 303 304 303 302 301 302 303 303 303 303 302
293 292 291 291 293 294 293 293 291 290 290 288 291 287 295 294 294 297 299 299 299 298 297 296 296 296 297 296 296 297 298 298 299 300 301 301 301 302 303 301 302 301 301 301
295 294 294 295 293 293 292 292 290 290 290 285 291 289 291 293 294 296 296 296 295 295 296 295 296 297 296 296 296 295 295 295 296 298 299 299 299 299 299 298 298 299 299 298
294 291 293 293 291 292 291 290 287 286 285 284 289 286 291 296 296 293 293 293 293 294 294 294 293 294 295 294 294 294 294 293 294 294 295 296 297 298 297 298 297 298 297 295
290 289 292 293 294 295 291 291 287 280 282 285 285 285 291 296 294 293 293 292 292 292 293 293 293 293 293 293 293 294 293 293 293 293 293 294 294 295 296 296 297 297 297 296
291 290 292 290 292 294 290 287 293 286 287 283 287 292 297 297 291 292 291 290 288 289 290 291 292 293 292 292 292 292 291 291 292 293 293 293 293 293 293 294 295 295 296 295
292 287 294 294 291 292 291 293 286 285 278 278 283 286 288 290 289 289 287 286 287 288 288 289 290 291 291 292 292 291 292 290 290 292 292 293 293 292 292 293 292 292 293 293
293 291 291 291 290 289 289 286 286 286 285 280 279 284 292 291 288 286 285 285 285 286 287 288 289 291 291 290 290 290 290 289 289 289 290 291 292 292 291 291 292 291 292 291
296 290 285 288 295 293 291 289 289 283 282 284 283 283 289 287 286 284 282 283 284 285 286 288 288 288 289 288 288 288 288 288 288 288 288 288 289 289 289 290 290 291 290 291
294 288 282 285 289 290 289 291 291 289 286 283 281 283 289 286 284 285 283 283 283 283 283 286 288 286 286 286 286 286 287 286 287 287 287 287 287 287 286 287 289 290 289 288
294 288 285 280 285 288 286 287 286 285 281 282 283 286 289 290 286 284 283 284 284 282 282 284 286 286 286 285 285 284 285 285 285 285 286 286 286 285 285 285 286 287 288 288
291 284 286 286 287 287 286 285 285 283 284 279 282 282 286 288 285 281 281 282 283 280 281 282 283 286 285 284 284 284 284 285 285 283 284 284 285 285 284 284 285 285 285 286
289 281 283 280 284 284 281 284 283 283 283 282 282 281 287 281 281 280 279 281 281 280 281 282 283 284 285 284 283 283 283 283 284 282 282 283 284 283 282 282 283 283 284 284
283 282 279 275 281 280 275 279 280 281 283 283 278 281 279 278 279 280 280 280 281 280 281 282 282 283 284 284 283 282 282 283 283 281 281 282 282 281 280 280 282 282 281 283
280 280 279 274 276 268 279 284 282 280 281 279 277 277 279 279 280 282 282 281 282 281 281 282 283 283 284 285 283 282 282 281 281 281 280 281 280 279 278 278 280 281 281 281
283 279 275 271 271 275 278 280 279 278 278 280 278 277 278 279 281 280 283 283 283 283 283 284 284 284 283 282 282 281 280 280 280 279 279 279 279 277 276 275 277 279 279 280
279 280 275 272 267 265 275 277 280 279 272 279 277 277 277 278 273 277 282 283 283 283 284 283 283 282 281 281 281 279 278 278 277 278 278 278 278 275 274 275 275 277 277 278
271 272 271 272 270 273 278 278 280 269 272 279 279 279 278 276 279 281 283 283 283 283 283 282 282 280 280 280 279 277 277 276 277 277 277 276 276 274 274 274 274 274 274 275
271 270 268 266 266 265 278 276 273 278 281 281 280 280 279 280 281 281 282 282 283 281 280 280 279 278 278 278 276 275 274 276 275 275 273 273 273 273 272 271 271 271 271 271
269 274 272 271 272 278 280 280 282 282 281 281 280 281 281 280 280 281 281 281 279 278 278 277 275 274 274 274 274 271 272 272 271 269 268 268 269 269 269 268 268 269 269 270
276 278 273 274 277 278 280 281 282 282 282 282 282 281 281 279 279 278 277 276 275 275 274 273 271 270 269 270 270 269 268 268 266 264 264 265 265 265 266 267 267 267 267 268
276 276 274 274 277 278 280 281 282 282 282 281 280 278 277 276 275 274 273 272 272 271 270 269 267 266 266 267 266 265 265 264 262 262 262 262 263 263 263 264 265 265 267 268
278 275 273 272 278 278 278 281 282 280 280 277 275 274 273 272 271 270 269 269 268 267 266 265 264 264 263 263 262 262 262 261 260 260 261 261 261 261 262 262 262 266 268 270

GFSCGP_sfc_thetae_015.txt.gz
Theta_e
302 297 295 299 301 299 298 296 295 298 301 299 297 297 299 303 304 304 305 306 306 305 306 305 304 304 304 304 304 306 307 309 310 313 315 317 318 320 320 321 321 319 317 314
297 294 300 302 298 297 296 294 294 298 301 296 296 296 299 302 302 305 303 304 303 303 302 301 301 301 300 300 301 302 304 306 307 310 313 314 315 317 317 318 318 317 316 313
296 300 301 298 297 295 295 294 294 294 297 298 297 295 300 303 305 305 303 303 302 299 299 299 299 299 299 298 299 300 301 303 305 307 309 311 312 308 310 312 313 313 313 312
298 300 296 296 294 296 292 298 296 294 292 290 296 287 295 300 301 300 300 300 299 298 299 298 298 297 297 298 299 299 299 300 301 304 305 305 305 303 306 306 309 309 310 310
295 295 293 294 295 297 294 295 294 294 292 292 293 291 294 299 297 299 298 298 298 298 297 297 297 297 297 298 298 299 298 297 298 300 301 301 301 303 305 304 303 305 306 306
296 296 296 297 297 296 295 294 294 294 293 287 293 291 292 294 295 295 296 296 296 296 297 296 297 297 296 297 297 298 297 296 297 297 297 298 298 299 300 301 300 302 303 304
297 297 297 295 293 295 293 291 287 286 287 286 294 289 292 298 299 297 295 294 295 296 296 295 295 294 294 294 295 294 294 294 296 296 296 295 295 296 297 298 299 300 300 300
291 289 296 296 295 294 294 294 288 281 283 287 292 286 292 296 296 296 295 294 294 293 294 294 294 293 293 293 293 293 292 291 293 294 295 295 295 294 295 295 296 297 298 299
291 290 299 295 296 295 292 289 293 286 287 284 288 292 297 297 294 293 292 291 290 291 292 292 293 293 292 292 292 291 291 290 290 291 293 293 293 294 293 294 294 294 295 295
294 287 295 295 295 297 293 297 287 287 278 278 284 286 288 294 294 291 289 289 289 290 290 291 291 292 291 291 291 291 290 289 289 289 290 290 291 291 292 293 292 293 293 293
294 291 290 294 292 290 291 288 289 288 286 280 278 284 293 292 292 289 287 288 288 288 288 290 289 290 289 289 289 289 288 288 287 288 289 289 289 288 288 288 289 291 291 291
296 291 285 288 294 296 294 290 290 283 282 285 283 283 296 291 289 288 286 286 287 287 285 287 288 287 287 287 287 286 287 287 287 286 287 287 288 287 286 286 286 288 288 290
294 288 281 283 288 293 290 292 292 291 287 283 280 283 292 288 287 287 287 287 286 284 284 285 287 286 286 286 286 286 285 285 286 285 286 286 286 286 285 285 285 286 286 287
295 288 284 280 283 288 285 287 289 287 281 282 283 284 289 290 289 289 288 286 286 285 283 284 285 286 286 286 285 285 285 285 286 285 284 284 285 285 284 284 284 285 285 285
291 283 285 285 286 286 285 284 285 283 285 280 283 283 287 289 290 287 286 284 284 283 282 283 283 284 285 286 285 285 285 285 285 284 284 283 284 284 284 283 282 283 284 284
289 281 283 279 283 283 281 283 284 284 285 284 284 282 289 285 284 283 282 282 282 284 282 283 283 284 284 285 285 285 284 285 285 283 283 283 282 282 282 281 281 281 282 283
283 281 278 274 280 279 275 279 281 283 285 283 279 282 281 282 281 282 282 281 281 282 283 282 283 284 284 284 285 285 284 284 283 282 282 282 281 281 281 280 279 279 279 281
280 279 279 274 275 267 278 284 283 281 281 283 282 279 280 279 281 282 283 283 282 283 283 283 284 284 285 285 285 284 283 282 281 281 280 281 281 279 280 279 278 277 278 278
283 279 275 271 271 275 278 280 279 278 277 283 281 278 279 280 280 280 284 284 283 283 284 285 285 285 284 284 284 282 280 280 279 279 279 279 279 278 278 276 276 276 276 276
280 281 277 274 269 266 275 280 281 280 272 281 280 278 278 279 273 277 283 284 284 284 285 285 285 284 283 283 282 279 278 277 277 277 278 278 277 276 276 276 275 276 275 275
273 274 272 272 270 273 282 280 281 270 274 281 281 280 280 277 279 282 284 283 284 285 285 284 283 281 281 280 278 276 275 274 275 275 275 274 274 274 274 273 274 273 272 272
272 272 271 271 268 266 280 278 274 279 282 282 281 281 281 281 282 282 283 283 283 283 282 281 278 278 277 276 275 272 272 273 272 270 269 268 268 269 269 268 269 269 269 268
270 275 273 274 273 280 281 280 283 284 282 282 282 283 282 281 281 282 281 282 281 280 278 276 274 273 273 272 271 269 269 269 267 265 264 264 264 264 265 265 265 265 266 266
277 280 275 275 277 279 281 283 283 284 283 283 284 283 282 281 281 280 280 278 277 276 274 273 271 269 268 269 269 267 267 266 263 262 262 262 262 262 263 264 264 263 263 263
279 278 276 275 278 280 281 282 282 283 283 283 283 282 281 280 278 277 276 274 273 272 271 270 268 266 266 267 266 265 264 263 261 261 261 261 262 262 262 263 263 263 263 264
280 277 275 274 279 279 280 283 284 282 282 282 281 278 276 274 274 273 271 271 270 269 268 266 265 265 264 264 263 263 263 262 260 260 260 260 260 261 261 261 262 266 267 269

GFSCGP_sfc_thetae_018.txt.gz
Theta_e
299 293 290 294 295 296 294 292 291 294 298 294 293 293 295 299 299 299 298 297 297 297 298 298 298 297 297 297 298 298 299 301 303 306 307 309 310 312 313 314 315 315 313 311
294 290 297 299 298 295 293 290 290 294 297 293 292 292 296 299 299 300 297 296 296 296 296 297 296 295 295 295 295 296 298 298 300 302 306 307 307 308 310 312 312 313 313 310
292 297 300 297 294 293 292 290 290 290 294 292 291 289 293 299 298 298 297 296 296 295 294 294 294 294 294 294 294 295 295 297 298 300 303 303 304 301 301 302 306 308 311 309
295 298 296 294 293 293 289 295 293 291 288 284 292 282 290 295 293 295 294 293 293 293 294 294 293 293 293 293 294 294 295 295 296 297 297 297 298 297 298 300 300 302 306 306
293 292 291 291 293 295 292 293 290 289 287 286 287 284 288 294 290 292 292 293 292 292 293 292 292 292 293 292 292 293 294 294 294 294 294 294 294 295 296 296 296 296 300 302
294 293 293 294 294 294 293 290 290 289 287 280 287 287 286 288 290 290 292 292 292 292 292 292 293 292 291 291 290 290 291 292 293 293 293 291 290 291 291 292 292 294 295 297
292 292 293 294 290 292 290 287 281 279 278 279 289 285 287 291 293 293 291 290 291 291 290 290 289 289 289 288 289 289 288 288 290 291 291 291 290 290 289 290 290 290 291 293
288 285 292 293 291 290 290 290 283 276 275 279 285 281 288 292 293 292 291 290 289 289 289 289 289 288 288 288 288 287 287 286 287 288 289 289 289 290 290 290 289 289 289 290
287 287 293 293 293 293 288 286 292 283 281 278 283 288 294 292 290 289 288 288 287 287 288 288 289 288 287 287 287 286 285 285 285 286 286 286 286 286 287 288 289 289 289 290
292 285 293 291 292 292 291 292 284 284 277 274 280 281 283 288 288 287 286 286 286 286 286 286 286 287 286 286 286 285 285 284 284 285 285 286 285 285 285 285 284 286 288 288
293 289 287 291 288 287 287 285 287 287 283 276 275 278 288 288 288 285 285 286 285 285 283 286 285 284 285 286 285 284 284 284 283 284 285 285 284 285 284 283 283 284 284 285
293 290 281 285 292 293 289 288 289 282 280 282 282 281 288 286 285 286 285 286 287 286 284 286 287 285 285 284 284 283 284 284 284 283 283 284 284 283 282 282 282 282 283 284
292 285 276 277 283 289 287 288 288 287 285 280 278 278 289 287 286 287 287 288 287 285 283 284 283 284 283 282 283 283 283 283 284 284 282 282 281 281 281 280 280 281 281 282
294 286 279 274 278 284 279 282 285 285 279 278 279 281 287 288 288 288 287 287 284 284 283 281 281 281 282 283 281 281 282 284 283 283 282 280 280 280 280 280 280 279 279 280
289 277 282 284 285 284 281 281 282 280 282 278 280 279 283 286 282 281 282 282 282 283 281 280 280 280 280 281 282 282 281 282 282 281 280 280 281 280 279 279 278 279 278 279
287 274 279 273 280 280 278 279 280 280 280 280 280 279 285 280 281 281 281 281 279 279 281 280 281 281 281 281 281 283 282 281 280 279 278 280 280 280 279 279 279 278 278 277
279 274 268 266 276 275 267 275 277 278 280 280 276 278 277 278 280 278 278 280 279 279 280 281 280 281 281 281 282 281 281 280 277 276 277 277 278 278 279 278 278 278 277 277
278 272 270 264 266 258 274 280 279 277 278 278 277 273 276 276 278 279 280 280 280 281 281 281 281 280 281 281 281 280 279 277 277 276 275 276 277 277 277 277 277 277 277 276
281 278 268 263 261 271 275 277 276 275 274 278 276 277 276 277 277 276 280 281 279 280 281 281 281 281 280 280 278 277 276 276 276 276 276 276 275 274 274 273 274 274 275 275
278 279 272 263 260 258 271 277 279 278 268 273 274 272 274 276 269 272 279 280 280 281 281 280 280 279 278 276 276 275 274 273 273 274 274 273 272 270 269 270 270 271 271 272
264 264 267 269 265 267 275 276 278 264 269 274 275 276 276 273 276 278 280 280 280 279 279 279 277 276 275 275 274 272 272 270 271 270 270 268 268 266 266 266 266 266 266 267
269 264 261 262 259 263 276 275 271 274 279 278 278 278 277 278 279 279 279 279 278 278 277 276 274 274 273 273 271 269 268 270 268 267 265 264 263 263 264 262 262 263 263 263
266 272 266 269 267 277 278 277 280 280 277 279 279 279 279 278 278 278 278 277 277 275 274 274 270 270 271 268 268 266 267 267 265 263 261 261 262 262 262 261 261 261 261 261
274 276 271 270 275 276 279 280 280 280 279 279 279 279 279 278 278 278 277 276 275 273 271 270 267 265 265 265 267 264 265 264 262 260 260 261 261 260 261 262 262 261 261 260
275 275 272 273 276 278 279 280 280 281 281 279 279 279 279 278 277 276 274 272 272 271 269 267 265 265 264 265 264 262 263 262 260 260 260 260 260 259 259 260 260 261 262 263
278 276 273 271 278 277 278 280 280 279 279 279 278 277 275 275 275 273 271 271 269 268 266 264 263 263 262 261 261 261 259 259 259 259 259 259 259 259 259 259 260 265 267 269

GFSCGP_sfc_thetae_021.txt.gz
Theta_e
294 289 286 289 291 290 288 288 287 290 295 291 291 290 293 296 295 295 292 292 293 293 294 294 294 294 294 294 294 295 296 297 299 302 305 306 307 309 311 315 317 317 316 314
290 287 293 294 294 292 290 288 287 291 294 291 291 290 294 295 295 294 293 292 292 292 292 293 293 293 292 292 293 293 294 295 296 299 301 303 302 301 304 309 312 314 313 313
289 293 296 295 293 291 289 287 287 288 291 290 288 287 291 295 293 294 293 293 293 291 291 291 291 290 291 291 291 293 293 294 294 295 297 299 299 298 299 300 304 307 310 310
290 295 294 292 291 292 287 292 291 290 285 282 288 280 288 291 289 291 290 290 290 290 291 290 290 290 289 289 290 291 293 293 293 293 292 292 292 292 294 295 296 297 300 304
291 291 289 289 291 292 289 291 289 288 285 283 284 281 286 289 287 288 288 289 289 289 289 289 289 290 290 289 287 288 290 291 292 292 291 290 289 290 291 292 292 293 295 299
291 291 291 292 292 292 292 289 288 286 284 278 284 284 284 285 288 288 288 289 289 289 288 289 290 289 288 288 287 287 287 288 290 290 289 289 289 289 289 289 289 290 291 293
289 290 291 292 288 290 288 285 280 277 276 277 285 282 286 288 290 290 288 287 287 288 287 287 287 287 286 285 285 287 285 285 286 287 287 286 287 288 288 288 288 287 288 289
285 284 290 291 290 288 287 288 281 274 274 276 284 280 286 288 289 288 288 287 287 287 287 287 286 286 286 285 285 284 284 284 285 285 285 285 285 285 285 285 286 286 287 287
285 285 290 291 291 292 288 285 289 282 276 276 281 285 287 288 286 286 286 286 285 286 285 287 286 285 285 285 284 283 283 283 283 284 284 284 284 283 282 282 283 284 284 286
289 284 290 289 291 291 290 292 283 282 271 272 279 280 282 284 283 284 284 283 284 285 285 285 285 284 284 284 284 284 284 282 282 283 284 284 284 283 282 282 281 281 283 283
291 288 286 289 287 287 286 284 286 286 282 275 272 277 286 286 285 283 283 284 284 283 283 284 283 283 283 284 284 283 283 284 283 283 284 284 284 283 282 280 281 281 281 282
291 288 279 284 289 290 289 287 287 279 277 278 280 280 287 286 285 285 284 285 284 284 282 286 285 284 284 284 284 283 283 283 284 284 283 283 283 283 281 281 280 280 279 280
292 284 274 277 283 288 285 286 286 287 284 280 277 277 286 284 284 285 283 284 284 283 281 282 282 281 280 280 281 280 281 282 283 283 282 282 280 280 281 281 281 281 281 280
294 286 278 275 276 283 279 281 282 283 274 274 277 279 283 285 284 285 286 286 286 283 282 279 279 279 280 280 280 280 280 280 281 280 279 279 278 279 280 279 279 279 280 279
289 277 281 282 283 282 281 280 281 279 280 276 278 278 282 284 280 279 279 284 284 283 280 280 279 279 279 279 280 281 281 281 280 279 279 279 279 279 279 278 278 278 278 279
287 275 279 273 281 280 278 279 279 279 279 278 278 277 284 278 279 280 279 280 279 279 280 279 279 280 280 280 280 281 280 280 280 278 278 278 278 279 278 279 279 279 278 278
280 275 268 267 277 274 267 275 277 278 279 277 274 277 275 277 279 277 277 278 278 278 279 279 279 280 280 280 280 279 279 278 276 275 275 276 276 277 277 277 277 276 276 276
279 273 268 263 264 258 274 277 278 277 277 275 275 272 274 276 276 278 278 277 278 279 280 280 279 279 279 280 278 278 278 276 276 274 273 273 275 273 274 273 273 273 273 272
282 277 265 264 258 268 274 276 275 274 272 275 274 275 276 277 275 274 278 279 278 279 279 279 279 280 278 276 276 276 275 275 274 273 273 273 271 269 269 268 268 269 269 268
278 279 272 258 261 259 270 277 279 277 268 272 271 273 273 275 268 271 278 280 280 280 280 279 279 277 276 274 274 273 272 271 270 271 271 270 269 266 266 266 265 265 265 266
263 262 269 269 262 265 273 275 278 264 268 270 273 274 275 273 274 277 279 279 280 279 279 277 276 275 273 273 272 270 270 268 269 269 268 266 266 264 263 263 264 263 262 263
268 264 261 259 255 261 276 274 271 274 277 277 277 277 277 278 278 278 278 278 278 278 276 275 274 273 272 272 269 268 267 269 266 265 264 263 262 262 263 261 261 261 261 260
267 271 265 269 267 276 277 276 279 279 276 278 277 278 278 278 277 278 277 277 278 277 275 273 270 270 270 267 267 265 266 265 264 259 258 259 260 261 261 260 259 260 260 260
273 274 271 270 274 275 277 278 279 279 279 279 279 279 278 277 277 277 277 277 275 273 271 269 266 264 263 264 266 263 263 263 256 255 259 261 260 259 260 260 260 259 259 259
274 274 271 271 276 276 277 278 279 278 279 278 278 278 278 277 277 277 276 274 273 271 269 267 265 264 263 264 262 260 262 258 257 258 260 260 260 259 259 260 259 260 262 263
278 276 273 272 278 277 278 279 279 279 279 279 278 277 277 277 277 275 272 271 270 268 267 265 263 262 260 258 258 258 255 254 255 258 260 259 259 259 259 259 259 264 267 268

GFSCGP_sfc_thetae_024.txt.gz
Theta_e
293 288 285 288 290 288 287 286 286 288 293 289 290 289 292 295 293 290 290 290 290 290 292 292 292 291 292 292 292 293 293 294 296 297 301 303 304 304 305 313 314 316 317 313
289 286 292 292 291 290 288 286 286 289 292 290 290 289 293 292 291 291 290 290 289 289 289 290 289 289 289 290 291 292 292 292 293 295 296 299 298 298 299 303 305 305 311 313
288 292 294 293 290 289 288 286 286 288 289 288 287 286 290 290 291 291 291 290 290 288 287 287 288 287 287 287 289 290 291 292 292 292 293 294 294 294 294 294 296 297 300 305
289 293 292 290 290 291 287 291 290 288 285 282 287 279 286 288 288 288 288 287 287 287 287 288 287 286 286 285 287 289 290 290 291 291 290 289 289 288 289 290 291 292 293 294
290 289 289 289 290 292 289 290 288 286 283 281 282 279 283 287 285 286 286 287 286 286 286 286 286 287 286 285 285 285 287 287 288 288 289 289 288 288 289 289 289 289 290 291
290 290 290 290 290 290 291 288 287 284 283 277 283 282 282 284 286 285 286 286 287 286 286 286 287 286 285 284 283 284 285 285 285 285 285 285 285 285 285 285 285 286 288 289
288 288 290 290 287 288 287 285 279 277 275 277 284 280 284 285 287 287 285 285 286 285 285 285 285 284 284 283 282 284 284 283 284 284 283 283 283 282 282 283 283 283 283 285
284 283 289 290 289 288 286 286 279 273 274 277 282 279 283 285 286 287 287 286 286 286 286 285 285 284 283 283 282 281 282 282 283 283 283 283 282 282 282 282 282 282 282 283
284 285 289 289 290 291 286 284 287 281 271 274 280 281 284 285 284 284 284 285 284 285 286 285 284 283 283 282 282 281 281 281 282 283 283 282 282 281 280 280 280 281 281 283
289 283 289 289 290 289 288 291 282 281 270 271 277 279 280 282 282 283 283 283 283 284 284 284 283 283 283 283 282 282 281 280 281 281 282 282 282 281 281 280 279 279 279 280
290 288 284 287 286 286 285 284 284 285 280 273 270 276 284 284 284 283 284 284 283 283 283 283 282 282 282 281 281 281 281 281 281 281 281 281 281 282 281 280 280 280 279 279
291 288 279 284 287 289 286 285 285 278 276 278 278 279 287 287 285 285 284 285 283 283 282 283 281 281 281 281 281 281 281 281 281 281 281 280 281 280 279 280 280 279 280 281
291 284 272 277 283 287 284 286 286 284 280 274 275 277 285 284 284 285 284 283 284 283 281 283 281 280 280 279 280 279 280 281 281 281 280 279 279 278 278 279 279 279 279 279
294 284 280 279 278 283 279 282 282 282 273 275 278 279 283 283 284 284 285 284 283 283 281 280 279 278 279 278 279 279 279 279 280 279 279 278 278 278 277 278 277 277 278 277
290 284 281 282 284 284 282 281 280 280 279 276 278 277 281 281 281 282 282 281 284 284 280 279 279 278 278 278 279 280 280 280 280 279 278 278 278 278 277 277 277 277 278 277
286 277 280 274 280 281 278 280 280 280 280 279 280 279 285 282 279 278 278 280 283 281 281 279 279 279 279 278 279 279 279 279 279 277 276 277 276 276 276 276 276 276 275 274
282 277 272 270 275 274 267 273 278 279 279 278 274 277 276 278 279 278 278 278 277 277 278 279 278 279 279 278 279 278 278 277 275 274 273 273 274 273 274 273 272 272 271 271
278 276 274 266 264 259 274 276 277 276 277 276 276 273 275 278 278 278 277 277 278 278 279 278 278 278 278 278 277 277 276 275 274 272 270 271 272 270 270 270 269 269 269 268
282 277 267 266 260 269 274 276 275 275 273 274 274 273 277 277 275 274 277 278 278 278 279 279 278 278 277 276 275 275 274 274 273 272 272 270 269 266 267 265 266 266 266 265
280 279 273 260 259 260 271 276 278 276 267 270 272 273 274 274 268 272 277 279 279 279 279 279 279 277 275 274 274 273 272 270 269 270 270 269 267 263 264 264 264 264 263 264
266 268 271 269 260 264 273 274 277 265 269 270 272 275 274 272 275 277 278 278 279 279 279 278 277 275 274 273 272 270 269 268 268 268 267 265 265 263 263 262 263 262 261 262
268 266 264 262 263 261 275 275 271 275 276 276 277 277 276 278 278 278 278 278 278 278 278 277 274 273 272 271 269 268 267 268 265 264 263 262 260 261 262 259 260 260 259 259
268 272 266 269 268 277 277 277 280 278 276 278 277 278 278 278 277 278 278 277 278 278 276 275 272 271 270 268 267 265 265 264 263 258 256 256 258 260 261 259 259 258 259 258
272 274 271 270 273 275 277 280 278 279 279 279 279 279 278 278 278 278 277 277 276 275 273 269 267 266 266 266 267 263 262 262 254 251 256 259 258 259 259 260 260 259 258 258
273 273 269 270 275 275 276 277 278 279 279 278 278 278 278 278 277 276 276 276 275 272 270 268 266 266 265 265 264 261 261 257 255 255 258 258 258 257 259 260 259 260 262 263
275 275 272 271 278 276 277 279 279 278 279 278 278 277 277 277 277 276 275 274 272 270 267 265 264 263 262 261 261 260 256 253 252 256 258 258 259 259 259 259 259 264 267 268

GFSCGP_sfc_thetae_027.txt.gz
Theta_e
292 287 285 288 289 287 285 285 285 286 291 288 289 288 292 293 290 287 287 287 287 288 289 289 289 289 289 290 291 291 291 292 294 295 298 300 297 297 297 299 299 302 307 311
288 285 291 290 290 289 286 284 284 288 291 289 289 289 290 289 289 288 288 287 287 286 286 287 287 286 286 287 289 290 290 291 291 292 293 295 294 294 293 295 295 295 296 298
287 291 293 291 288 287 286 285 285 287 288 287 286 285 287 288 289 289 288 288 287 285 285 285 285 284 284 284 285 288 288 289 290 291 292 292 291 290 290 290 291 291 292 292
288 292 292 288 288 289 285 290 289 288 285 281 285 279 284 286 285 286 286 284 284 285 285 285 284 283 283 283 284 285 286 286 288 289 289 288 287 286 287 287 288 289 289 289
289 289 287 288 289 291 289 289 288 285 283 281 282 279 282 285 283 284 284 284 284 284 284 284 283 284 283 283 282 283 284 284 284 284 285 285 283 284 284 284 284 285 286 286
290 290 290 290 289 290 290 287 286 284 282 277 282 282 280 283 285 284 285 284 285 284 284 284 284 284 282 282 282 282 283 283 283 283 283 282 281 281 281 281 281 282 283 284
287 288 288 289 287 287 286 285 279 277 275 277 282 279 283 284 285 286 285 284 284 284 283 283 282 281 281 280 281 282 282 282 282 282 282 281 280 280 280 280 280 280 281 281
283 283 288 290 289 286 285 286 280 274 273 276 281 279 283 283 285 287 286 285 284 283 284 283 283 282 281 280 280 281 281 281 281 281 281 280 280 280 280 279 279 280 280 280
283 284 288 288 289 290 285 283 286 280 269 273 280 281 283 284 282 283 284 284 283 284 284 283 283 282 281 280 280 279 280 280 281 281 280 280 280 279 279 279 279 278 279 281
288 283 287 287 288 288 287 290 282 280 272 271 277 278 280 280 281 282 282 283 283 284 284 283 282 282 282 281 280 280 280 279 280 280 280 280 280 280 279 278 278 278 278 278
289 287 284 287 285 285 285 284 284 284 280 273 269 277 283 284 284 283 283 284 283 283 282 283 281 282 281 281 280 280 280 280 280 280 280 279 279 279 279 278 278 278 278 278
291 287 278 283 286 287 285 285 285 281 277 277 277 279 286 285 286 285 284 285 284 283 283 282 281 280 280 280 280 280 281 280 280 280 279 280 279 278 278 278 278 278 278 278
291 284 274 280 283 284 283 284 284 282 278 272 275 277 286 284 284 285 284 284 284 283 282 281 280 279 280 279 280 279 280 280 280 280 279 279 278 277 277 277 277 278 277 277
295 286 284 281 281 283 279 282 282 281 278 278 280 281 281 284 284 284 283 284 284 283 281 281 279 279 279 278 278 278 278 279 280 279 278 278 277 277 277 277 276 276 276 276
290 284 282 283 282 283 281 280 280 279 281 279 281 280 282 284 283 283 285 284 283 283 280 280 281 279 277 277 278 278 278 278 278 278 278 277 277 276 276 275 275 274 274 274
285 279 282 279 281 282 281 282 283 283 282 280 280 280 284 282 281 279 280 280 282 283 282 280 279 279 278 278 278 278 278 279 278 276 275 275 275 275 274 273 272 272 272 271
282 279 276 278 276 276 273 275 279 281 281 281 277 281 276 279 279 279 279 279 279 280 282 280 279 279 279 278 279 277 277 277 274 273 271 271 272 271 271 270 270 270 269 269
281 280 278 271 271 268 277 275 277 277 278 277 276 273 276 278 278 279 278 278 278 278 278 278 278 278 278 278 277 277 276 274 273 271 270 270 270 268 268 268 267 267 267 266
282 279 272 272 264 271 275 276 274 274 273 276 277 276 277 277 274 274 277 277 277 277 278 279 279 278 277 277 276 275 274 273 272 271 271 270 268 265 266 263 264 265 265 264
280 280 278 265 264 264 273 276 277 277 268 272 274 273 274 274 269 274 277 278 278 278 279 279 278 277 276 275 275 273 272 270 269 271 270 268 267 262 262 263 263 263 262 264
268 273 274 269 269 268 272 274 277 266 271 270 272 275 274 272 276 277 277 277 279 279 279 278 277 276 275 273 272 271 270 268 269 268 267 265 265 262 261 261 262 261 260 262
269 267 265 265 264 264 276 275 272 275 275 275 275 277 276 277 278 277 277 278 278 278 278 279 276 274 272 272 270 269 268 268 266 265 263 262 258 259 261 255 258 258 258 258
270 273 268 271 270 276 277 277 279 278 276 277 277 278 278 278 277 278 277 277 278 278 277 277 274 272 271 269 268 267 267 266 263 261 256 254 257 259 259 255 258 258 256 256
273 274 272 271 274 274 277 278 278 279 278 279 279 279 278 278 277 277 277 277 277 276 274 272 270 269 267 265 267 265 265 264 258 258 256 258 256 257 257 260 260 258 257 257
273 273 270 270 274 275 276 277 279 279 278 278 278 278 278 278 277 276 277 276 276 275 271 270 270 269 266 265 264 262 263 260 257 258 259 257 256 256 257 259 259 260 261 262
275 274 271 269 277 276 277 278 279 278 278 278 277 277 277 277 278 278 276 277 275 272 269 268 266 265 263 262 261 261 258 257 257 258 259 257 257 257 258 258 258 263 267 269

GFSCGP_sfc_thetae_030.txt.gz
Theta_e
290 287 285 288 288 287 285 284 284 285 290 287 288 288 291 289 287 285 285 285 285 285 286 286 286 286 286 288 289 289 290 291 293 293 295 295 292 293 293 295 295 295 296 298
287 285 290 290 289 287 285 284 283 287 289 288 287 288 288 288 287 287 286 285 284 284 284 285 285 284 284 284 286 287 288 289 291 291 291 291 291 290 290 292 290 290 291 292
286 290 291 290 287 286 284 284 283 286 286 287 284 284 285 286 287 287 286 286 285 284 283 283 283 282 282 282 282 284 285 286 288 289 290 290 289 287 286 286 286 286 286 288
287 290 291 287 287 287 283 288 288 286 284 282 284 279 283 284 284 284 284 283 283 283 283 283 282 281 281 281 282 283 283 284 285 286 285 284 283 282 282 282 283 284 284 285
289 288 287 287 288 289 287 289 287 285 283 280 281 278 282 284 283 283 283 283 283 283 283 282 281 282 281 281 280 281 282 282 282 282 283 282 281 281 281 281 281 282 282 283
289 289 290 290 288 290 289 287 285 283 282 276 282 282 280 282 284 283 284 283 283 283 282 282 282 282 281 281 281 281 281 281 281 281 281 280 279 279 280 279 280 280 281 281
286 287 288 289 286 286 286 284 279 276 275 277 281 279 282 285 285 285 285 283 283 283 282 282 281 279 279 280 280 281 280 280 280 280 280 279 279 279 278 278 278 278 278 279
283 282 288 290 288 286 284 285 280 274 273 276 280 278 284 283 284 285 286 284 284 283 283 282 281 280 279 279 279 280 280 279 280 279 279 279 279 278 278 278 278 277 278 278
282 284 287 287 288 288 284 282 285 279 269 274 280 281 283 283 282 282 282 283 282 282 283 283 282 280 279 279 279 279 279 279 279 279 279 278 278 278 277 277 277 277 278 279
288 283 286 286 289 288 287 289 282 280 271 271 277 278 281 282 282 281 282 282 282 283 283 282 282 281 280 280 279 278 279 279 279 279 279 278 278 278 277 277 277 277 278 278
289 287 283 286 284 284 285 283 283 283 280 274 270 278 283 284 283 282 283 284 284 283 284 283 282 282 281 280 279 278 278 278 278 279 278 279 278 277 278 277 277 277 277 277
290 286 279 283 285 285 284 284 284 281 277 276 276 281 283 284 284 285 284 285 284 284 283 283 282 281 280 280 280 279 279 279 279 279 278 279 278 278 277 277 277 277 277 277
291 284 274 279 283 283 282 283 284 282 279 274 279 279 285 282 283 284 283 283 284 284 283 282 281 279 279 278 279 279 279 279 280 279 278 278 278 277 276 276 277 277 276 276
295 285 282 281 281 283 280 282 283 284 281 281 281 283 281 283 284 283 283 284 284 283 283 281 279 278 278 278 279 278 278 278 279 279 278 277 277 276 276 276 275 275 274 273
292 283 283 283 282 283 283 282 281 281 283 282 283 281 282 285 285 285 284 284 283 283 282 280 280 279 279 278 278 278 277 277 278 277 277 277 276 275 275 274 273 272 272 272
287 283 282 278 281 282 280 282 281 283 281 280 279 279 284 283 284 282 283 283 281 281 283 282 281 281 280 278 278 278 277 277 277 277 276 275 274 274 272 272 271 271 271 270
284 280 278 279 277 277 277 279 281 281 282 283 278 284 278 279 280 280 280 279 280 281 283 283 280 280 280 279 279 277 277 277 275 274 271 271 271 271 270 270 269 269 268 268
281 279 278 273 274 271 277 275 279 283 282 282 278 276 277 278 278 280 279 279 279 279 280 282 280 278 278 278 277 277 277 275 274 272 270 270 270 268 268 267 266 266 266 266
282 281 273 272 271 274 277 275 274 275 275 276 278 279 277 277 275 275 278 279 279 278 278 278 278 278 276 277 277 276 274 274 273 271 271 269 268 265 266 263 264 264 264 264
281 283 282 270 270 269 272 276 278 277 270 274 275 275 273 275 269 273 277 277 277 278 278 278 278 278 276 276 276 274 273 271 270 271 271 269 267 262 262 264 262 262 261 264
274 274 277 272 272 272 274 275 277 269 274 270 273 275 274 273 275 277 278 277 278 278 278 278 277 277 276 275 273 272 271 270 269 269 267 266 265 262 261 260 261 259 259 261
273 273 271 272 270 269 276 276 274 276 276 277 276 276 276 277 278 277 278 278 277 278 278 278 277 276 275 273 273 271 270 269 267 265 265 264 262 260 262 254 256 255 256 255
272 276 272 275 274 276 278 278 279 279 277 277 277 277 278 277 277 277 277 276 277 277 277 277 276 275 272 271 271 270 268 266 264 262 262 259 259 261 261 256 257 256 254 254
273 274 273 273 274 275 277 279 278 279 279 279 279 278 278 277 277 277 276 276 276 276 275 273 270 270 269 267 269 266 265 264 260 257 260 261 260 260 260 261 260 255 255 256
274 274 271 271 274 275 277 278 279 279 279 278 277 278 278 277 277 276 276 276 275 275 273 270 271 272 271 267 265 263 263 261 258 258 260 261 260 259 259 259 259 259 260 260
275 273 271 270 277 277 277 279 279 278 278 278 277 276 276 276 277 276 275 276 275 275 270 269 269 269 266 265 263 260 259 259 258 259 261 261 260 259 259 259 258 263 267 269

GFSCGP_sfc_thetae_033.txt.gz
Theta_e
291 288 287 288 289 288 287 285 286 286 290 290 289 289 292 289 287 286 286 286 286 286 287 287 287 287 287 288 289 290 292 293 296 297 297 295 292 292 291 291 291 292 294 296
287 286 290 290 289 288 285 285 285 287 289 289 288 288 290 289 288 288 286 285 285 285 285 285 285 285 285 285 286 287 288 290 292 293 293 293 291 289 288 288 288 288 289 291
286 289 290 289 287 286 285 284 284 286 287 288 286 286 287 287 287 287 287 286 285 285 284 284 284 283 284 283 283 285 286 287 288 290 291 290 288 287 286 286 286 286 287 287
287 290 290 286 286 286 283 287 287 286 285 282 286 281 285 286 285 285 285 284 284 284 284 283 283 282 282 282 283 284 284 285 285 287 286 285 284 282 283 284 284 285 285 285
289 287 287 287 288 288 287 288 286 286 284 283 283 281 283 285 284 284 284 284 284 284 283 282 282 282 282 283 282 283 283 283 283 284 285 284 282 283 283 283 283 283 284 284
289 289 290 290 288 289 288 287 285 283 282 277 283 283 282 283 286 284 285 284 284 284 283 283 283 282 282 282 282 282 282 282 282 282 282 282 282 282 282 282 282 282 282 282
286 287 288 289 286 287 285 285 279 278 277 278 281 280 284 286 287 287 286 284 284 284 283 282 281 281 281 281 282 282 282 281 281 282 281 281 281 281 280 280 281 281 281 281
283 282 287 289 288 286 284 285 280 274 274 277 280 279 285 285 285 286 287 286 285 283 283 283 281 281 281 281 282 281 281 280 281 281 281 281 281 281 280 280 280 280 280 281
283 284 287 287 288 289 284 283 286 279 269 275 280 282 286 284 284 284 284 284 284 283 283 283 282 281 280 280 281 281 280 280 281 280 280 280 280 280 279 280 280 280 280 281
288 283 286 286 288 288 286 288 282 280 273 271 278 280 283 283 283 282 282 283 284 284 283 283 283 282 281 280 280 281 281 281 280 280 280 280 279 279 280 280 279 279 279 280
289 288 284 286 285 285 285 283 283 284 281 276 273 278 284 285 285 283 283 284 285 284 284 284 284 283 282 281 280 280 280 280 280 280 280 280 280 280 280 279 279 279 279 279
290 287 280 283 285 285 285 285 285 281 277 277 277 281 285 285 285 285 285 285 285 286 285 285 284 283 281 281 280 279 279 280 280 280 280 280 280 280 279 278 279 279 278 278
291 285 277 281 284 283 283 284 284 283 280 276 276 279 285 283 283 284 284 285 285 285 284 284 283 282 282 280 280 279 280 280 281 280 280 279 279 279 278 278 278 277 276 276
295 286 284 284 284 284 281 282 283 285 276 280 282 284 282 283 284 283 284 284 284 284 285 283 282 282 281 280 280 280 280 280 280 280 279 279 279 278 277 277 276 275 274 274
292 285 282 284 284 284 284 283 282 283 285 282 285 283 285 285 285 285 285 284 283 284 283 283 283 281 280 279 279 280 280 280 280 279 279 279 279 277 276 275 274 273 273 272
289 286 283 281 282 282 281 283 283 284 284 284 283 282 286 287 285 284 284 284 283 283 284 284 283 282 280 280 280 280 279 279 279 279 279 278 277 275 274 273 272 272 271 270
286 283 283 283 279 281 280 281 282 282 282 285 280 287 281 282 283 283 283 284 283 282 282 283 283 282 282 280 281 280 279 278 277 276 275 274 274 273 272 271 270 270 269 269
284 284 283 272 277 274 278 275 281 283 283 281 279 276 281 283 281 282 281 281 280 281 282 283 284 282 281 281 279 279 278 277 276 275 273 272 272 270 269 269 268 268 267 267
285 284 275 274 274 278 276 275 278 280 279 280 283 281 278 278 277 277 279 280 281 280 281 281 282 282 279 279 279 277 276 276 275 274 273 272 271 268 268 266 266 266 266 265
283 284 284 273 273 272 276 276 277 279 274 274 281 278 274 275 272 275 278 279 279 279 279 279 279 278 277 277 277 275 274 273 274 274 273 271 269 265 265 266 265 265 264 265
276 276 279 275 274 276 278 276 278 274 278 276 275 276 276 275 277 278 278 277 278 279 278 278 278 278 278 276 274 274 273 273 273 271 270 268 267 265 264 263 264 262 261 263
276 275 274 275 273 273 277 276 276 280 277 278 277 277 277 278 278 278 278 278 278 278 278 279 277 277 277 275 274 273 272 272 270 268 267 265 263 265 263 259 260 259 259 259
275 278 276 278 277 277 279 279 280 280 279 278 278 278 278 277 277 278 278 277 277 277 277 277 276 276 275 273 273 273 272 269 267 265 263 261 261 262 261 258 259 261 259 258
274 275 274 275 275 275 278 279 279 279 279 279 279 278 277 277 277 277 277 277 276 275 275 274 272 272 273 270 271 273 268 267 263 261 261 261 260 261 260 263 262 260 259 259
276 275 272 272 274 276 277 278 279 279 279 278 278 278 278 277 276 276 276 275 275 275 273 271 273 273 274 269 268 266 266 264 262 261 262 261 260 260 261 262 262 262 262 261
275 274 273 272 277 277 278 280 280 279 279 278 277 276 276 277 277 276 275 275 274 273 270 270 271 270 269 265 264 263 262 263 262 261 261 261 261 261 261 261 261 265 268 269

GFSCGP_sfc_thetae_036.txt.gz
Theta_e
299 297 294 298 299 298 296 295 295 295 296 296 297 298 298 297 296 295 295 294 293 292 292 293 294 295 297 298 300 301 303 304 307 306 304 301 298 297 295 296 297 298 299 301
296 294 300 297 296 295 294 294 294 295 295 295 296 295 299 296 297 297 295 293 293 292 292 292 292 293 294 295 297 298 298 300 301 301 300 297 294 293 293 293 292 293 293 294
296 297 297 295 293 292 293 293 294 293 293 294 293 294 296 295 293 293 294 294 293 293 291 291 291 291 293 292 293 294 295 296 297 296 295 293 293 293 291 290 290 290 291 291
295 296 293 293 293 294 291 295 293 292 291 290 293 289 294 295 292 291 291 291 292 291 291 290 290 290 290 290 291 291 293 293 294 295 294 294 292 288 288 289 289 289 289 289
295 292 292 292 294 294 294 294 293 292 291 290 290 288 294 291 291 290 291 291 292 292 290 288 288 287 287 289 289 290 290 290 290 291 291 290 289 288 289 288 288 288 288 288
296 295 295 296 293 295 294 293 291 291 290 285 290 289 292 292 293 293 291 291 291 290 289 288 288 287 287 288 288 289 288 287 289 289 290 289 288 288 287 287 287 287 287 287
292 293 294 294 292 292 293 292 287 284 284 284 286 287 293 296 292 294 291 290 291 290 288 287 286 286 286 286 287 287 287 286 287 288 288 288 288 288 287 287 287 286 286 286
290 288 292 294 296 293 291 293 289 282 282 285 284 284 291 291 291 291 294 292 291 289 289 288 287 287 286 286 287 286 286 285 286 287 286 287 287 287 286 286 286 286 285 285
289 290 292 291 293 296 290 287 293 284 278 284 288 289 293 289 289 289 290 290 289 289 289 288 288 287 286 286 286 286 286 286 286 286 286 286 286 286 285 285 286 285 285 284
294 289 290 290 293 293 292 294 286 287 282 281 286 287 291 288 289 288 288 289 290 290 289 289 288 287 287 287 287 286 286 286 286 286 286 285 285 285 285 285 284 284 284 283
294 292 288 290 289 290 288 288 289 290 288 285 284 288 294 295 293 290 290 291 291 290 290 289 289 288 287 287 286 286 286 285 285 286 286 285 285 285 285 285 284 284 283 282
296 292 286 287 290 290 293 291 290 287 283 284 284 288 290 292 294 293 292 291 292 291 291 290 290 289 286 285 285 285 286 285 286 286 285 285 285 285 284 284 283 283 282 281
294 290 286 286 287 288 287 289 290 290 288 286 285 288 289 289 290 291 292 292 291 291 291 291 290 289 287 286 285 285 285 285 286 285 285 285 285 284 284 283 282 281 280 279
297 291 289 287 290 291 286 288 289 289 287 287 287 290 288 289 290 290 290 292 292 290 291 291 290 290 290 288 286 285 285 285 285 285 285 284 285 284 283 282 281 280 279 278
294 288 291 292 291 290 289 289 288 287 289 288 291 290 292 292 292 293 294 292 290 290 290 290 290 291 290 289 287 286 286 285 285 284 284 284 285 284 282 281 279 278 277 277
291 289 291 287 291 288 286 289 288 289 290 291 291 289 296 295 293 291 290 289 289 290 290 290 290 290 290 289 288 287 286 285 285 284 284 285 284 282 280 278 277 276 275 274
289 289 285 284 289 284 281 286 288 289 291 290 287 291 290 289 290 292 292 290 290 291 291 290 290 290 290 289 288 287 286 286 284 283 283 282 282 279 278 277 275 274 274 273
289 288 287 283 281 276 285 283 291 288 289 289 288 288 290 290 290 290 291 291 290 290 290 290 290 290 289 288 287 287 286 284 282 283 282 281 279 278 276 274 274 273 273 272
288 286 278 278 278 283 278 280 285 285 287 288 289 287 285 282 285 286 286 287 290 289 289 289 291 290 288 286 286 283 282 282 282 281 281 279 278 276 274 273 273 273 272 271
284 287 285 278 279 278 283 280 283 286 282 284 289 286 282 282 284 289 284 285 286 286 286 286 286 286 286 285 283 281 281 280 280 281 280 279 277 275 273 273 272 272 271 270
279 279 281 278 279 281 286 280 281 279 284 283 287 285 281 283 287 285 284 283 285 285 284 283 283 283 283 282 280 280 280 279 281 280 278 276 275 273 273 271 271 270 269 268
280 279 279 279 278 277 280 279 281 285 281 283 282 282 282 282 281 282 282 282 281 282 281 283 282 281 282 281 280 280 279 281 278 277 275 273 271 272 270 268 268 267 267 266
278 283 281 282 282 280 282 282 283 283 284 281 283 282 283 281 280 281 280 281 281 281 281 281 281 280 280 279 279 279 281 277 274 273 272 270 269 269 268 267 267 267 267 267
278 278 280 280 279 279 281 281 282 282 282 283 284 283 283 282 281 280 281 281 281 280 280 279 278 278 278 278 277 279 276 274 271 271 269 268 267 267 266 268 268 268 268 268
279 279 277 276 276 278 280 281 283 282 282 281 281 281 281 281 280 281 280 280 280 280 279 277 278 278 279 278 277 276 273 271 271 270 269 269 268 266 268 267 269 268 269 268
278 276 276 277 279 280 281 283 282 281 281 281 281 279 280 281 281 280 279 280 279 279 278 276 276 276 278 276 275 271 270 270 270 269 269 269 269 268 268 268 268 269 270 271

GFSCGP_sfc_thetae_039.txt.gz
Theta_e
304 299 296 300 301 302 300 298 298 301 300 298 299 299 302 300 300 301 301 299 298 297 297 297 299 301 304 306 306 304 305 304 304 304 304 303 300 299 297 298 299 299 299 301
298 295 302 304 302 300 298 296 297 301 298 296 298 298 302 302 300 301 301 300 298 296 295 296 298 300 302 303 304 305 306 307 307 305 302 299 297 296 295 295 294 295 295 295
298 300 301 299 297 296 297 296 296 297 296 297 296 295 298 302 301 301 301 301 299 296 295 295 296 298 299 299 301 301 302 301 300 299 298 296 296 296 293 292 291 292 292 292
299 302 297 297 296 297 294 300 297 296 294 291 297 289 298 301 298 297 297 298 297 297 296 295 295 295 296 295 296 298 297 298 298 299 298 297 295 291 291 290 290 290 291 290
297 295 294 294 297 299 296 298 297 296 294 294 294 289 296 301 297 296 296 296 296 296 295 294 294 293 292 293 294 294 294 294 295 295 296 294 291 291 290 290 289 289 289 290
298 298 298 298 296 298 298 296 294 294 294 287 292 292 294 295 296 299 296 295 295 294 294 293 292 291 290 291 292 292 291 291 292 293 293 292 291 290 289 289 288 288 288 288
296 296 298 298 294 295 296 294 289 286 285 285 292 292 295 300 297 299 295 294 295 294 293 291 289 289 289 290 290 290 290 289 291 291 291 291 290 290 289 288 288 287 287 286
293 291 297 297 298 296 293 295 290 284 285 288 286 286 292 298 298 296 298 295 295 293 292 291 290 289 288 289 289 288 289 288 289 289 289 290 290 289 289 289 288 288 287 286
293 293 297 298 299 300 293 290 298 289 283 285 290 292 297 292 291 292 295 294 293 292 292 291 290 290 289 288 288 288 288 288 288 288 288 288 288 288 287 288 288 287 287 285
298 292 294 294 295 296 295 297 287 289 283 283 289 291 292 290 290 291 293 292 292 292 292 291 291 290 289 289 289 289 288 287 287 287 288 287 287 288 287 287 286 286 285 285
299 295 290 291 290 291 290 290 291 292 291 286 285 289 299 298 296 292 292 293 293 292 292 291 291 290 289 289 289 288 288 287 287 287 287 287 287 287 287 286 286 285 285 284
298 294 292 291 295 295 296 293 292 288 285 287 287 290 294 300 300 297 294 294 294 294 293 292 291 290 289 288 288 287 287 287 287 287 287 287 287 286 286 285 285 285 284 283
297 291 286 289 289 290 288 292 293 292 290 287 286 290 293 293 295 296 295 295 295 294 293 292 291 289 288 288 287 287 287 287 287 287 287 286 286 286 286 285 284 284 283 282
298 293 290 288 292 293 287 289 291 290 286 288 289 292 290 291 292 293 295 295 295 294 293 292 291 291 290 288 288 287 287 288 287 287 286 286 286 286 286 285 284 282 282 281
296 289 292 293 295 295 292 290 290 288 290 288 291 292 296 293 294 295 295 295 294 293 292 292 292 292 292 290 289 288 288 287 287 286 286 286 286 286 285 284 283 281 280 280
294 288 290 288 293 293 290 291 291 290 290 291 292 293 300 297 297 296 295 294 293 293 292 292 292 292 292 291 290 289 288 287 287 285 285 286 286 284 283 282 280 279 278 277
289 287 286 284 290 289 283 289 290 292 292 293 288 294 296 295 293 294 294 293 293 293 293 292 292 292 292 293 291 289 288 287 285 284 284 284 284 282 281 280 279 277 277 277
288 286 287 285 285 279 290 295 293 293 294 294 293 291 293 292 292 294 297 294 292 292 293 293 293 293 293 293 291 291 289 287 284 284 284 283 282 281 280 278 277 277 277 275
292 288 285 282 282 288 291 283 288 289 290 296 293 290 288 288 289 290 292 293 293 293 294 293 294 294 293 290 290 287 285 285 283 283 283 282 282 280 279 276 276 276 276 275
285 290 286 281 281 280 288 287 289 291 285 292 292 289 285 286 286 291 288 288 290 292 290 290 290 289 288 288 286 283 282 282 281 282 283 282 281 279 278 277 276 276 275 275
280 282 281 284 282 286 288 283 287 283 287 287 291 288 286 287 290 288 288 287 288 287 285 285 285 285 287 285 282 282 281 281 282 282 281 280 280 278 278 276 276 274 273 272
282 281 281 283 281 280 284 281 284 287 285 286 290 289 287 285 284 285 286 284 284 283 283 284 283 283 283 282 282 281 281 282 281 280 278 277 276 276 275 273 273 272 271 270
281 286 284 285 284 281 284 283 284 285 286 284 286 287 287 283 282 283 282 282 282 282 282 283 282 281 281 281 281 280 281 279 277 276 275 274 273 274 273 271 270 269 269 269
281 283 284 284 281 281 281 283 283 283 284 285 286 286 285 283 282 281 281 281 281 281 281 280 280 279 279 279 279 280 278 276 274 274 273 272 270 271 270 271 271 270 271 270
281 281 281 278 278 279 282 283 284 283 283 283 284 284 284 283 282 282 281 281 281 281 280 279 279 278 279 279 278 278 276 274 274 274 272 272 271 270 270 270 271 270 272 272
280 279 279 279 280 284 282 285 285 283 282 283 282 280 281 282 281 281 281 281 281 280 279 277 277 276 277 277 276 275 274 273 274 273 272 273 272 271 271 271 270 274 274 274

GFSCGP_sfc_thetae_042.txt.gz
Theta_e
300 294 292 295 297 297 296 293 292 294 296 294 294 294 297 296 296 295 296 295 294 294 294 295 297 299 302 304 304 303 302 302 303 302 301 298 295 293 293 294 294 294 295 296
295 291 299 301 300 297 295 293 292 296 296 293 293 293 297 297 296 297 297 295 294 292 291 294 295 298 300 302 303 304 304 303 304 301 298 294 291 290 290 290 290 291 291 291
294 297 300 298 296 295 294 292 291 292 293 292 290 289 293 298 298 297 298 297 296 292 291 292 294 295 296 297 300 301 300 298 296 294 293 292 291 289 287 287 287 288 289 289
296 300 296 296 295 295 291 296 295 294 290 285 291 283 292 296 297 296 297 295 293 292 292 292 293 293 294 293 294 295 296 295 294 293 292 291 289 286 286 285 286 287 287 287
294 293 293 293 295 297 293 296 293 292 289 288 288 286 290 296 295 296 295 294 293 292 292 291 291 292 290 291 291 291 291 291 292 292 291 289 286 286 286 285 285 285 285 286
294 296 295 295 295 295 296 293 292 290 289 282 289 288 288 293 295 296 295 294 293 292 291 290 290 289 288 288 288 288 288 289 290 289 289 287 286 285 285 284 283 283 283 284
292 293 295 296 291 293 293 290 283 280 279 280 288 287 291 295 295 296 295 294 293 292 290 288 286 286 286 286 287 287 286 286 287 287 287 287 286 285 284 284 283 282 282 282
287 286 293 295 295 291 290 291 284 278 279 281 282 281 289 293 293 294 297 295 294 291 290 287 286 286 286 286 285 285 285 285 286 286 286 286 286 285 284 284 284 283 282 282
290 290 295 295 296 297 290 287 295 285 278 278 285 287 292 290 289 290 292 292 292 291 289 287 287 286 285 285 285 285 284 285 285 285 284 284 284 284 283 284 283 282 282 283
296 289 293 290 293 293 291 294 285 284 274 275 283 286 287 287 288 289 290 291 291 291 289 288 287 286 286 285 285 285 285 284 284 284 284 284 284 284 283 283 282 281 280 281
296 292 286 289 287 289 287 286 288 289 285 279 278 284 292 293 292 289 291 292 291 290 289 288 287 287 286 286 285 285 284 284 284 284 284 283 283 283 283 282 281 281 280 280
297 293 284 285 291 292 292 290 290 283 281 284 282 286 292 292 293 292 292 292 291 291 290 289 288 287 285 285 285 284 284 284 283 284 283 283 283 282 281 281 281 280 279 279
296 290 283 284 287 288 287 289 292 291 286 285 281 285 290 290 291 292 291 291 291 291 290 289 288 286 285 285 285 284 284 284 284 283 283 282 281 281 281 280 280 280 279 278
299 292 288 286 288 290 284 287 289 290 284 284 287 289 286 288 289 290 291 292 291 291 290 289 288 287 286 285 285 284 284 284 283 283 282 281 281 281 280 280 279 279 278 277
296 289 291 292 294 292 287 286 288 287 289 286 288 289 293 292 290 292 292 292 291 290 290 289 288 287 286 285 285 284 284 284 284 283 282 282 281 281 281 280 279 278 278 277
293 287 290 288 291 291 289 291 289 288 289 290 290 289 294 296 294 290 292 292 291 290 290 290 290 288 287 285 285 285 284 283 284 282 282 281 282 281 280 279 278 277 277 276
289 287 286 285 288 288 284 289 291 291 290 290 286 291 294 293 291 290 291 291 291 291 291 290 290 289 289 287 286 285 284 283 282 281 280 281 282 281 279 278 277 276 275 275
288 287 287 285 286 279 287 294 294 292 294 293 292 287 288 292 292 292 292 292 291 291 291 291 290 290 290 289 287 286 284 282 282 282 281 281 281 279 277 277 276 275 274 273
294 288 286 283 284 287 288 282 286 287 289 295 293 292 288 288 290 288 290 292 291 292 292 292 292 292 291 289 288 286 284 282 282 281 281 281 280 278 277 276 274 274 273 272
286 291 287 283 282 280 280 281 286 290 284 290 293 293 286 289 286 288 288 290 292 292 291 290 289 288 288 286 286 284 282 282 281 281 282 281 280 279 277 276 273 272 271 273
282 284 282 284 282 283 281 279 285 282 282 280 284 286 286 289 289 290 287 287 286 286 286 285 285 285 284 283 282 281 280 281 281 279 279 279 279 279 277 273 271 272 269 272
281 280 280 283 281 280 281 281 283 283 281 283 284 285 285 283 283 283 283 283 282 281 282 282 282 282 282 281 281 279 280 280 278 278 277 276 275 275 274 272 268 269 269 266
281 285 283 285 283 281 281 281 283 283 283 284 286 285 283 281 280 281 280 280 280 280 280 280 280 279 279 278 279 279 278 277 276 275 273 269 270 271 271 270 268 266 266 267
280 282 282 282 281 280 282 284 283 281 281 282 284 284 282 280 279 279 279 278 279 278 278 276 277 276 275 274 276 274 276 274 273 270 270 269 270 268 268 269 268 268 266 266
280 282 280 276 278 281 283 283 284 285 281 280 281 281 282 280 279 279 279 278 278 278 276 276 276 275 275 273 272 271 273 273 272 271 269 269 268 267 266 267 268 268 266 268
279 280 280 279 281 283 284 286 286 285 282 280 280 279 280 280 279 279 279 279 278 277 275 274 273 272 271 271 271 270 271 271 271 269 269 268 267 265 266 265 264 274 274 275

GFSCGP_sfc_thetae_045.txt.gz
Theta_e
295 290 288 291 292 292 291 289 288 291 294 292 291 291 294 294 293 292 291 292 292 292 292 294 296 299 300 301 302 301 301 300 301 300 298 295 293 292 292 291 291 292 292 292
292 289 295 296 295 294 292 289 289 292 293 292 291 291 294 294 294 295 294 294 293 290 290 292 294 297 299 300 302 302 302 302 303 300 297 294 291 289 288 288 288 289 290 290
290 294 298 296 294 293 291 289 288 290 291 290 288 287 290 294 295 295 296 296 294 291 290 291 293 295 297 298 302 303 303 300 297 294 292 290 289 287 286 286 286 287 288 288
292 297 295 294 293 293 288 293 293 292 288 284 288 283 289 292 293 293 295 293 293 290 291 292 293 293 294 295 298 299 297 295 294 293 290 289 287 285 284 284 285 285 286 286
291 293 292 293 293 295 291 293 291 290 287 285 285 283 287 293 293 296 295 294 293 291 291 291 293 294 292 291 291 294 294 292 291 291 291 288 285 285 285 284 284 284 284 285
292 294 294 294 292 294 294 292 291 289 287 280 286 286 285 291 294 297 295 292 291 290 290 291 291 290 289 288 288 288 289 289 290 289 287 286 285 284 283 283 282 283 283 283
290 290 292 294 291 293 292 288 281 279 278 280 287 284 290 293 295 296 295 291 290 290 289 289 288 288 287 286 286 286 287 286 287 287 286 285 285 284 283 283 283 282 282 281
287 284 291 293 292 290 288 289 282 277 277 279 283 281 288 295 296 292 295 294 291 289 289 288 287 287 286 286 285 285 286 285 285 286 285 285 285 285 284 284 283 282 281 281
287 286 292 293 296 295 288 286 293 285 273 276 283 286 291 290 290 290 291 292 290 289 288 286 286 286 286 285 285 285 285 284 285 285 285 285 284 284 284 283 282 282 281 282
293 287 290 289 295 292 291 292 284 283 274 273 280 283 287 287 290 289 289 290 289 288 286 286 285 285 286 286 284 284 285 285 284 284 285 284 283 284 283 283 281 281 280 280
294 292 285 288 287 288 288 286 287 288 283 278 277 283 290 292 292 289 290 290 290 288 287 286 286 285 285 285 284 284 284 283 283 284 283 283 283 283 282 282 281 280 280 279
295 292 281 285 289 290 289 289 288 284 281 281 280 287 290 290 290 291 290 291 291 290 288 287 286 285 285 284 283 283 284 283 283 283 283 282 282 282 281 281 280 279 279 279
296 290 283 283 286 287 287 289 292 289 282 284 279 286 289 289 290 290 289 289 290 289 287 286 286 285 284 284 284 284 283 283 283 283 282 281 281 281 280 280 279 279 278 278
299 291 289 286 288 288 285 287 289 290 284 284 286 289 287 287 290 289 289 289 289 290 288 287 286 285 285 284 284 283 283 283 283 282 282 281 280 280 280 279 279 278 278 277
297 288 289 292 291 289 287 286 288 287 289 286 289 289 293 294 290 291 290 289 288 288 288 287 287 286 285 284 284 284 283 283 283 282 282 281 281 280 279 279 279 278 278 277
294 288 290 288 291 290 288 288 288 289 290 290 291 290 294 295 293 290 291 290 289 289 289 289 288 287 285 285 284 284 284 283 283 282 282 282 281 281 280 280 279 278 277 277
290 289 286 285 289 287 284 289 291 290 290 290 286 292 293 294 294 290 290 291 291 291 290 289 288 287 286 285 285 284 284 284 283 282 282 282 282 281 280 280 279 277 277 275
287 289 287 285 286 279 288 293 295 293 294 293 291 293 290 293 295 292 291 291 291 291 290 290 290 289 287 286 285 286 284 283 283 282 282 282 282 281 279 278 278 277 276 274
295 289 285 283 284 286 288 284 288 289 290 296 295 296 296 289 287 288 290 291 293 291 292 292 291 290 289 286 285 285 283 283 282 282 281 281 282 281 279 278 277 276 275 273
292 295 288 283 282 280 284 283 285 291 286 292 295 295 295 289 287 293 289 289 290 292 291 291 290 289 289 288 286 284 283 281 281 282 282 282 282 281 279 279 276 273 274 274
285 287 284 285 284 284 282 280 285 284 284 279 282 290 287 289 294 291 289 289 288 288 288 288 289 290 289 286 285 283 281 281 282 281 281 280 280 280 279 277 274 271 272 272
283 283 282 284 282 281 285 283 285 284 281 282 284 284 286 284 283 284 285 284 284 285 285 284 285 284 282 283 284 281 281 281 279 278 278 277 277 277 275 274 269 270 271 271
282 284 282 285 284 285 283 285 284 283 282 284 285 284 283 282 281 281 281 281 283 283 282 282 283 281 280 278 282 280 278 277 276 275 274 273 271 273 272 271 270 269 270 270
281 283 283 283 283 280 281 283 283 282 281 282 285 283 282 281 280 280 279 279 279 279 279 276 278 277 275 273 275 274 275 274 273 272 269 269 271 269 268 272 271 270 269 268
282 283 281 280 279 281 284 283 285 285 282 282 282 282 282 280 279 279 279 278 278 278 276 276 276 274 274 272 270 269 271 272 271 270 269 269 268 268 267 267 266 268 265 268
280 281 281 281 283 285 285 286 286 285 284 281 281 280 280 280 279 279 278 278 278 277 273 273 271 272 269 270 268 268 270 272 272 270 269 268 267 265 266 265 264 273 273 275

GFSCGP_sfc_thetae_048.txt.gz
Theta_e
293 289 287 291 290 290 289 287 287 289 294 291 290 290 293 293 291 291 290 291 291 292 291 293 296 299 299 299 299 299 299 300 301 299 297 296 293 292 292 293 293 291 291 291
291 288 293 294 293 291 289 287 287 290 293 291 290 289 292 292 292 294 294 293 293 290 290 292 294 297 297 298 299 299 299 300 301 300 295 293 291 290 290 290 289 289 289 288
289 293 296 294 292 290 289 287 287 289 289 289 287 285 289 293 293 293 295 296 295 292 290 291 293 296 297 297 297 299 299 301 298 294 291 289 289 289 288 287 286 286 287 287
291 295 294 292 291 292 287 292 291 290 287 283 288 282 287 290 292 292 295 294 294 292 291 292 293 295 297 297 298 299 299 295 294 293 291 290 287 285 284 284 284 284 285 285
291 292 292 291 292 294 290 293 290 288 285 283 284 282 285 289 289 292 297 294 293 292 291 291 293 296 296 296 296 296 295 294 293 292 291 289 285 285 284 283 282 282 283 283
291 293 294 294 293 294 293 291 289 287 285 279 286 284 283 288 293 294 297 297 292 291 291 292 293 295 293 291 291 295 294 292 292 291 289 287 284 283 283 282 281 281 281 282
289 290 292 293 291 292 291 288 280 279 277 280 284 282 289 291 294 296 298 295 291 291 290 290 290 293 292 290 289 291 293 290 290 289 286 285 284 284 283 282 281 281 280 280
286 283 291 293 292 290 289 287 281 276 276 279 282 281 287 293 296 293 293 293 289 288 289 290 291 292 291 289 288 289 290 289 287 285 284 284 284 283 283 282 282 281 280 281
286 286 291 291 293 295 288 285 291 284 271 276 282 286 290 291 291 292 292 290 287 287 288 289 290 290 289 288 287 287 286 287 286 286 284 284 284 283 282 281 281 281 280 281
291 284 287 288 292 290 289 292 284 282 274 273 280 281 286 287 290 292 292 288 287 286 286 287 288 288 288 288 287 286 286 286 285 285 285 284 284 283 282 282 281 280 280 280
293 290 284 287 287 287 287 286 287 287 282 277 274 282 289 292 292 292 292 290 288 286 286 286 286 287 286 286 284 284 284 283 283 284 284 283 283 283 282 281 280 280 279 279
293 292 281 284 288 288 288 287 287 282 279 280 280 286 291 291 291 292 292 290 289 288 286 286 285 285 284 284 284 284 283 283 284 284 283 283 282 282 281 280 280 279 279 279
294 288 279 282 286 286 285 288 292 288 283 281 280 286 288 288 290 291 291 289 288 287 286 285 284 283 284 284 284 283 283 283 283 282 282 281 281 281 280 280 279 279 279 278
298 291 286 284 285 288 283 285 288 290 285 285 286 289 287 290 290 291 290 289 287 287 286 285 284 284 285 285 283 283 283 283 282 282 281 281 281 281 281 280 279 279 279 278
295 288 288 291 290 289 287 286 288 287 289 287 290 289 294 294 291 292 291 289 287 287 286 285 285 285 284 284 284 284 283 283 283 282 281 281 281 281 280 280 279 279 278 278
294 289 290 288 291 288 286 287 289 289 290 290 291 291 294 294 292 290 291 289 288 288 288 287 286 285 284 284 284 284 283 283 283 282 281 281 281 280 280 280 279 279 278 277
293 290 288 285 289 286 284 289 288 288 291 290 287 292 293 294 294 292 291 290 290 290 290 288 287 286 286 285 285 284 284 283 282 282 282 281 281 281 281 280 279 278 278 277
288 290 289 286 286 280 290 295 295 292 292 292 291 293 290 293 296 296 293 291 291 292 291 289 288 288 287 286 285 285 283 282 282 282 282 282 281 281 280 280 279 278 278 277
295 290 286 283 284 287 288 286 288 289 291 296 294 295 296 296 287 293 292 294 295 293 292 291 290 289 288 285 285 284 282 282 282 282 282 282 282 281 280 279 279 279 278 276
294 294 287 283 281 280 286 286 290 292 287 294 295 296 296 292 287 295 296 289 290 291 289 288 287 287 286 285 285 283 282 282 282 282 282 283 283 282 280 281 280 279 278 277
286 288 284 284 284 286 283 281 287 285 286 278 282 285 287 289 294 289 287 287 287 287 287 287 288 287 286 285 284 283 282 282 283 284 284 282 282 282 282 281 279 275 276 274
284 285 285 286 283 281 285 283 287 286 281 283 283 285 287 287 284 284 284 285 285 286 286 286 285 284 284 284 284 282 282 283 281 281 280 280 281 281 281 279 273 272 273 272
282 287 284 285 285 286 285 286 285 284 285 286 286 285 284 283 282 282 282 283 283 284 284 284 285 282 281 282 282 280 279 278 278 279 278 277 277 276 276 275 271 269 270 272
283 284 285 285 285 283 282 283 283 282 283 283 285 284 283 282 281 280 281 281 281 278 280 279 281 279 276 274 277 277 277 276 277 275 274 272 274 271 270 272 272 272 271 271
283 285 283 282 283 282 285 283 284 283 281 281 282 283 282 282 280 280 278 278 278 277 276 278 279 278 275 274 273 272 274 274 273 271 270 270 270 270 268 268 268 269 265 269
281 282 283 282 285 287 286 286 285 285 283 282 282 281 280 281 280 279 278 278 278 277 274 275 273 275 272 272 271 270 271 274 272 270 270 269 270 266 267 266 264 274 273 276

GFSCGP_sfc_thetae_051.txt.gz
Theta_e
292 289 287 290 289 288 287 285 285 288 292 290 289 289 292 292 290 290 290 290 291 292 293 292 293 297 298 298 298 298 299 300 300 298 299 298 294 294 294 294 295 295 293 291
290 287 292 292 291 289 287 285 286 289 291 290 289 289 291 290 291 293 293 293 293 293 289 291 292 296 297 298 298 298 298 299 300 302 296 294 293 290 291 291 291 291 290 289
288 292 294 293 290 289 287 286 286 288 288 287 286 285 288 293 292 293 294 296 295 294 292 291 291 295 296 297 297 298 298 300 301 295 292 290 290 290 289 289 288 288 287 287
290 293 293 290 289 291 286 291 290 288 286 282 286 281 286 289 291 292 295 294 295 294 292 292 292 294 296 298 298 299 298 297 293 293 292 292 289 287 288 288 287 286 285 285
289 290 290 289 290 292 289 291 289 287 285 282 283 281 285 287 289 293 295 296 296 293 293 291 292 295 297 298 298 298 298 293 293 293 293 292 290 285 285 286 285 282 282 283
289 292 293 292 292 293 293 290 288 286 284 279 285 284 283 287 291 292 296 297 294 292 291 291 293 294 296 297 297 297 295 292 292 292 292 290 287 285 283 282 282 281 281 281
288 289 290 293 290 291 290 288 280 278 276 279 283 281 289 290 292 294 296 295 292 290 288 288 289 293 294 294 296 296 294 291 292 292 290 288 287 286 284 282 282 281 280 279
285 282 290 292 292 290 288 287 281 275 275 278 282 280 286 291 294 293 294 293 291 288 288 288 290 293 294 294 294 295 293 291 290 290 289 288 287 286 284 283 282 282 281 280
284 284 289 290 292 294 287 285 290 283 271 275 281 284 289 291 291 291 292 291 289 289 287 287 289 292 293 293 293 294 292 290 289 289 287 286 286 285 283 281 281 280 279 280
290 283 287 288 292 290 289 292 284 282 273 271 279 281 285 289 290 294 293 293 289 288 286 287 289 291 293 293 292 291 290 289 287 287 287 285 284 283 282 281 280 279 279 279
291 288 283 287 286 286 286 285 285 285 282 277 274 282 288 292 292 292 293 292 291 288 286 286 287 288 289 289 287 286 286 286 285 285 285 283 282 282 282 281 280 279 279 279
292 290 281 284 287 287 287 286 286 280 278 279 279 285 289 291 292 292 293 293 289 288 286 286 286 286 286 286 285 285 285 285 285 284 283 282 282 281 281 280 279 279 279 279
293 287 277 281 285 285 284 286 289 286 281 281 278 285 288 287 288 291 292 291 289 287 285 284 283 284 284 285 285 285 285 284 284 283 283 281 281 281 280 280 279 280 279 279
297 290 284 283 284 286 283 285 287 289 283 284 285 289 287 289 289 291 291 291 289 287 285 284 283 284 284 285 285 285 284 284 282 282 282 281 281 281 281 280 280 279 279 279
295 286 287 290 289 287 285 285 287 287 288 285 289 289 293 294 291 293 292 291 288 287 285 285 284 284 284 284 284 284 284 283 283 282 282 282 282 282 281 280 280 280 279 279
294 286 289 287 290 287 286 286 288 288 290 290 290 290 294 294 292 291 293 291 289 288 287 287 286 285 284 285 284 284 284 283 283 282 282 282 282 281 281 280 279 279 279 278
291 288 286 284 287 287 283 288 289 288 291 290 286 292 294 295 295 296 294 291 290 291 290 288 286 286 286 285 285 284 284 283 282 282 282 282 282 281 281 280 279 279 278 278
289 289 287 285 285 279 290 294 294 292 293 293 293 295 295 295 296 294 293 293 292 292 291 289 288 287 287 286 285 285 284 282 282 282 281 281 281 281 280 280 279 279 278 277
296 291 287 284 284 287 289 289 289 288 290 296 294 294 296 295 289 294 293 294 295 293 294 293 292 289 287 285 285 283 282 282 282 281 282 282 282 281 280 280 279 279 278 277
294 295 288 284 282 280 289 290 291 293 287 296 296 296 296 294 289 296 294 291 292 293 291 289 287 285 285 284 284 282 281 281 281 282 282 282 282 282 280 280 280 280 279 279
286 288 286 285 284 285 285 281 287 285 286 282 289 293 290 292 295 289 288 289 287 287 286 285 285 285 283 283 282 281 281 281 283 283 283 282 282 282 282 281 281 280 279 278
285 285 285 286 283 281 282 283 286 288 281 281 283 285 286 288 288 285 285 285 284 284 284 283 283 281 280 281 282 281 281 282 282 283 282 282 283 283 283 283 281 280 279 277
282 286 285 287 287 289 286 284 285 284 283 283 284 285 286 285 284 283 283 282 283 283 283 282 282 280 280 281 283 282 281 283 283 283 283 283 283 283 282 281 278 276 276 275
282 284 282 286 286 287 287 285 285 284 284 284 285 284 283 283 282 281 282 281 281 277 278 277 280 278 277 279 281 282 280 280 281 281 279 277 278 275 276 277 276 275 274 274
282 284 284 284 284 284 287 285 285 284 283 282 283 283 282 282 281 281 279 277 277 276 276 277 279 278 275 276 275 276 276 278 277 275 273 274 274 274 272 272 273 273 269 273
282 282 284 284 285 287 288 286 286 283 282 282 283 281 280 281 281 279 278 278 276 277 275 276 275 276 273 273 272 272 272 275 275 272 272 272 272 271 270 269 267 275 274 278

GFSCGP_sfc_thetae_054.txt.gz
Theta_e
291 288 286 289 288 287 286 284 284 286 290 288 288 288 291 292 289 290 290 290 292 293 296 293 293 293 297 298 298 299 301 301 302 301 300 300 297 296 296 297 298 298 298 298
288 286 291 291 289 288 286 285 285 287 289 288 288 288 292 291 291 292 294 293 293 293 291 291 291 293 296 298 298 298 301 299 302 301 298 294 294 292 292 293 293 293 294 294
287 290 292 291 288 287 286 285 284 286 287 287 285 285 287 291 290 291 293 295 294 295 294 291 290 292 295 297 298 299 299 301 302 296 292 290 292 291 290 290 290 289 291 290
289 292 291 288 288 290 284 289 288 287 285 281 285 279 285 289 290 291 294 293 294 295 294 292 291 291 295 297 299 299 298 298 299 294 292 294 291 291 289 289 288 287 288 287
288 289 289 288 289 291 288 290 288 286 284 281 281 281 284 286 288 292 295 296 294 295 293 292 292 293 295 297 297 298 298 297 293 294 295 297 295 288 287 287 286 285 285 285
288 291 292 291 290 291 291 289 287 285 283 279 283 283 285 286 290 291 294 296 295 293 291 291 290 291 294 296 297 297 297 295 292 292 293 295 290 287 287 285 285 284 284 282
287 288 290 292 289 290 288 287 280 277 276 278 281 281 288 287 291 292 294 294 292 291 290 288 288 290 293 294 296 297 296 294 293 292 292 291 291 289 288 285 285 283 282 280
284 282 289 291 291 288 287 287 280 274 273 277 281 279 285 290 292 292 292 292 291 290 290 288 288 290 293 294 296 297 296 295 293 291 289 289 289 289 288 286 285 284 283 281
282 282 288 289 290 293 287 284 289 282 270 275 281 282 288 290 291 292 292 291 291 290 290 288 287 290 292 294 295 297 295 294 292 291 289 289 289 288 286 285 284 283 280 281
288 282 286 287 290 289 288 290 283 281 273 270 278 279 284 289 290 292 291 293 291 290 289 287 287 289 291 293 294 296 295 293 291 290 288 288 288 287 285 284 282 282 279 280
291 287 283 285 285 285 286 285 285 285 281 275 273 281 287 291 292 292 293 292 292 291 289 287 287 288 290 291 292 293 292 288 287 288 287 287 285 285 284 283 282 280 280 279
291 288 284 284 285 286 285 285 285 280 277 278 278 284 289 290 290 291 293 292 290 289 289 286 286 287 287 288 288 288 289 288 288 286 285 286 284 284 283 282 281 279 279 279
292 287 279 282 283 283 283 285 287 284 280 279 277 285 288 288 289 290 291 291 291 289 286 285 284 285 286 287 287 287 288 288 286 285 284 283 283 283 283 281 279 279 279 279
297 289 285 282 282 285 281 283 287 288 282 284 283 287 289 288 290 290 291 290 290 289 287 284 283 284 285 286 287 287 287 287 285 284 283 283 283 283 282 281 280 279 279 279
295 285 288 289 287 285 285 284 286 286 288 283 288 287 292 293 292 293 292 291 291 290 287 285 285 284 284 285 286 286 286 285 285 284 283 283 283 283 282 280 280 280 279 279
295 286 287 286 289 286 285 285 286 287 288 289 289 288 295 294 293 291 292 294 291 289 290 288 287 285 284 285 285 286 286 284 284 283 283 283 281 281 280 280 280 279 279 279
291 287 285 284 287 285 283 287 289 289 290 289 285 291 294 295 294 295 296 292 293 292 292 291 288 287 287 286 286 285 286 284 283 283 282 281 281 281 281 281 280 279 279 279
288 286 286 284 284 278 288 291 292 291 292 293 292 294 296 296 296 294 295 295 293 294 294 291 290 289 288 287 286 286 285 283 283 282 282 281 281 281 281 280 279 279 279 278
295 289 285 283 283 287 287 288 287 286 289 294 293 294 295 297 290 295 294 294 297 294 294 294 294 291 288 286 285 284 282 282 282 282 281 281 282 281 280 280 279 279 278 278
291 294 286 284 281 278 287 290 291 292 286 295 295 295 295 293 288 295 293 290 292 292 291 290 289 287 285 284 284 282 281 281 281 281 281 282 282 281 280 281 279 279 279 279
285 287 285 285 283 284 284 282 289 284 284 282 287 294 293 291 295 288 288 290 287 287 286 286 285 284 283 282 282 281 280 280 281 281 281 281 282 281 282 281 281 279 279 278
284 283 284 285 283 281 285 284 286 286 281 281 283 284 286 288 288 287 286 286 285 285 284 282 281 280 280 281 281 279 279 279 279 280 280 280 281 282 282 281 280 280 280 279
282 285 284 286 285 289 285 288 289 285 285 285 286 287 285 284 284 285 284 283 283 283 283 281 279 279 279 277 280 278 277 279 279 281 281 282 282 282 282 282 281 280 281 280
282 285 285 286 286 289 287 287 285 284 285 284 284 285 285 285 284 283 283 283 282 277 277 276 277 276 275 276 279 280 282 283 283 282 282 282 282 282 283 283 282 282 280 278
281 283 283 284 286 284 286 286 287 286 283 282 283 284 284 282 283 283 281 278 277 276 275 275 277 276 275 277 279 281 281 283 281 279 277 279 279 280 278 277 278 278 276 279
282 282 283 282 287 286 286 284 285 284 283 283 282 281 281 281 282 280 279 279 278 277 275 277 277 276 275 274 274 274 276 277 277 274 275 275 275 274 274 272 271 277 277 280

GFSCGP_sfc_thetae_057.txt.gz
Theta_e
291 288 287 289 289 287 286 285 285 287 290 290 289 289 291 294 291 291 293 293 294 294 299 297 297 297 297 300 301 303 305 305 305 305 304 304 304 302 301 302 303 304 305 305
288 286 291 291 289 288 286 285 286 288 289 289 289 289 293 292 295 295 296 296 295 297 295 294 295 295 296 299 301 302 304 304 305 308 303 302 300 297 298 297 298 299 301 301
286 289 291 291 287 287 286 285 285 287 288 287 286 285 288 291 292 294 294 296 296 297 298 296 293 294 296 298 300 302 303 303 305 305 295 294 294 294 293 294 293 293 296 296
288 291 290 288 287 289 284 288 288 286 286 282 286 280 286 289 290 292 294 294 295 297 296 295 293 293 294 297 300 302 302 302 303 298 298 298 298 295 295 296 293 291 293 292
287 288 288 287 288 289 287 289 287 286 285 283 283 282 285 287 289 291 295 296 296 296 295 295 293 295 295 297 299 301 301 302 302 299 301 300 298 295 294 292 290 289 289 289
287 290 291 290 290 290 290 288 287 285 284 279 283 283 284 285 289 291 294 295 296 294 294 293 293 293 293 296 299 300 300 300 298 299 299 300 299 291 291 289 288 287 287 286
286 288 289 291 288 289 288 286 279 277 276 279 282 282 288 289 291 292 294 296 294 294 294 293 291 291 292 295 297 299 299 298 296 298 298 299 295 293 293 290 289 286 285 284
283 281 288 291 290 288 286 286 280 274 273 277 281 279 285 290 292 292 292 292 292 293 293 293 292 291 292 294 296 298 298 298 295 295 296 295 294 294 293 292 290 288 287 285
281 282 287 289 290 292 286 284 288 282 270 275 280 282 287 290 291 291 293 292 291 292 293 293 291 290 291 294 295 297 298 298 295 295 294 293 292 292 292 290 288 287 286 284
287 282 286 287 289 289 288 290 283 281 273 271 278 279 283 287 291 291 291 292 293 293 293 291 290 289 291 293 295 297 298 297 295 295 294 292 292 291 290 288 286 285 284 283
290 286 282 285 285 285 286 284 284 284 281 275 273 280 286 289 290 291 292 293 293 293 293 292 289 289 291 292 293 296 296 295 293 293 292 290 289 289 288 287 285 284 283 282
291 288 282 283 285 286 284 285 286 280 277 278 278 284 288 290 292 291 292 292 292 292 292 290 289 288 289 291 292 294 294 292 292 292 291 290 289 287 286 285 284 283 282 282
291 287 276 282 284 283 283 284 286 284 280 278 278 284 288 288 290 290 291 291 292 291 290 289 287 287 288 289 290 292 292 292 290 289 289 288 287 286 286 284 283 282 282 281
296 289 284 283 283 285 282 283 287 288 282 284 282 287 291 289 290 291 292 292 292 292 290 288 287 286 287 288 289 290 290 291 288 288 287 287 286 286 286 284 283 282 281 280
295 286 288 289 288 285 285 284 286 286 288 284 287 287 291 293 293 295 295 292 292 292 290 289 288 288 286 286 287 289 289 289 288 287 286 286 285 286 285 283 282 281 281 281
294 285 288 286 288 288 284 285 286 287 288 288 289 288 296 296 292 291 293 295 295 293 293 292 291 288 286 286 287 288 288 288 287 287 286 286 284 284 283 282 281 280 280 280
290 287 285 283 287 286 282 286 288 288 288 288 285 290 295 294 294 293 293 293 294 295 295 296 293 291 289 288 288 287 288 287 286 286 286 284 283 283 283 282 281 280 279 279
286 285 286 284 284 278 288 292 292 291 291 292 291 293 295 296 296 294 297 295 295 295 295 295 295 293 291 289 287 288 286 285 284 285 284 283 283 282 282 281 280 280 280 279
290 286 283 282 282 284 285 287 286 287 288 294 293 294 296 297 289 294 297 294 297 297 295 295 294 293 291 288 286 285 284 283 283 284 283 283 283 281 281 280 280 280 279 279
288 290 285 282 279 277 283 289 290 291 285 292 293 294 294 292 287 293 291 289 291 291 290 290 289 289 288 286 284 283 282 282 282 283 283 283 282 281 280 281 280 280 280 280
282 285 283 284 282 285 287 284 288 284 284 281 284 292 288 290 294 291 288 290 287 286 287 286 285 286 285 283 282 281 281 281 281 281 281 281 282 281 281 281 281 280 279 279
280 279 281 283 281 280 286 285 286 290 283 282 285 288 288 289 289 287 286 286 286 285 284 283 282 281 280 280 281 279 279 279 280 280 279 279 280 281 281 280 280 280 280 279
279 285 284 285 285 289 289 289 291 290 289 286 286 287 286 286 286 286 286 284 284 283 283 280 279 278 278 277 279 278 277 278 278 278 278 279 281 281 281 281 280 280 280 279
283 285 284 284 282 285 290 289 287 286 286 286 287 286 285 286 285 284 284 283 283 278 278 276 277 277 275 275 277 277 277 278 279 279 280 281 281 281 282 282 281 281 280 280
280 282 282 281 285 285 288 287 288 289 287 285 284 285 285 285 284 283 281 278 278 277 276 276 276 276 275 276 277 280 282 283 282 282 281 281 282 282 281 281 282 281 282 283
282 281 280 280 285 286 287 284 284 285 286 285 282 282 282 283 283 280 278 278 278 278 276 276 275 276 276 276 276 278 280 281 280 278 279 279 280 279 277 277 275 280 280 283

GFSCGP_sfc_thetae_060.txt.gz
Theta_e
298 298 295 298 299 296 295 294 293 296 296 296 297 298 300 303 303 302 303 305 306 306 309 309 308 308 308 309 310 310 311 313 316 316 315 315 311 311 313 315 314 315 315 315
297 294 299 297 296 295 295 294 294 296 295 295 297 296 300 302 302 304 304 305 306 307 308 307 306 306 306 307 308 309 310 312 314 315 316 315 314 308 312 309 308 308 309 310
294 296 297 296 294 293 294 293 294 293 294 295 294 294 298 301 301 302 303 305 306 306 307 308 306 305 306 306 307 308 309 311 313 314 314 307 302 301 302 302 302 302 305 303
296 297 295 294 293 295 291 296 294 293 292 289 293 287 295 299 299 300 303 305 305 306 306 307 307 304 305 306 308 308 309 310 312 313 309 309 306 305 306 305 300 299 302 301
294 293 293 293 294 296 293 295 294 293 292 291 291 288 293 295 295 299 302 304 306 307 307 306 306 305 306 306 307 308 308 309 310 312 311 311 311 312 306 303 298 297 297 297
294 296 296 296 294 295 295 294 293 293 292 286 291 289 291 295 296 299 301 303 305 306 305 305 305 304 304 305 305 307 307 307 309 309 310 310 310 311 307 301 297 295 296 293
292 293 295 296 293 294 294 293 286 285 284 284 289 288 291 296 298 299 301 303 303 303 304 304 303 302 301 301 303 304 305 305 307 307 308 309 310 308 307 306 302 297 295 295
288 285 293 296 295 293 292 293 287 282 282 286 285 285 292 298 299 299 300 301 302 301 303 304 305 303 301 300 302 303 303 304 306 306 307 308 310 307 307 305 305 301 299 296
287 287 292 293 295 297 291 288 295 288 281 283 288 292 296 297 296 298 299 301 302 303 303 303 304 303 301 301 301 303 303 303 305 304 306 306 306 305 304 301 302 300 297 292
292 286 291 292 295 294 293 296 287 288 282 280 286 288 289 295 297 300 298 300 302 303 303 304 303 302 300 301 302 302 303 303 304 303 304 304 302 303 299 298 297 296 295 290
295 291 288 291 290 290 290 290 290 290 288 283 282 287 297 297 298 297 299 299 302 303 302 303 302 299 299 300 301 301 302 302 302 302 303 302 302 299 298 296 297 294 291 287
295 291 287 289 293 294 294 292 292 286 284 286 286 287 295 298 299 298 299 299 301 301 301 300 300 298 298 298 299 300 301 301 302 301 301 300 300 298 296 295 295 292 289 286
295 290 285 287 289 290 289 291 292 292 288 287 284 287 296 297 297 299 298 301 301 300 301 300 298 298 298 298 299 299 300 301 300 300 299 299 298 296 294 293 293 290 288 285
297 291 288 286 290 291 287 289 291 291 286 286 288 290 295 297 297 298 299 301 301 301 301 302 300 300 299 298 298 298 299 300 299 298 297 297 297 295 293 292 290 288 286 284
295 286 290 292 293 291 290 290 290 288 290 287 290 291 295 297 298 300 301 301 302 301 300 300 300 301 300 297 297 297 298 298 298 296 296 296 296 295 292 289 287 285 285 283
294 285 289 286 292 291 289 291 290 290 291 292 292 292 299 300 301 301 300 300 300 301 302 304 301 299 298 298 296 296 296 297 296 295 294 295 294 291 289 287 286 283 283 283
290 287 285 282 289 288 284 288 291 292 293 293 289 294 299 298 299 300 300 300 299 301 302 303 303 302 301 300 298 296 296 296 294 292 292 291 290 288 287 286 284 282 282 282
286 285 285 283 285 278 290 296 296 293 295 296 294 296 299 299 301 301 302 301 301 302 301 302 303 303 303 300 298 296 295 293 291 290 289 289 287 287 286 285 283 282 282 281
290 286 282 280 281 285 289 293 292 291 291 297 296 297 299 300 300 300 303 303 302 303 304 303 302 300 299 298 296 292 289 290 288 288 288 288 287 286 285 284 283 282 281 281
289 290 284 282 278 276 287 293 294 295 286 297 298 297 298 299 292 297 301 298 299 298 297 296 296 294 294 295 291 288 287 287 286 287 288 288 287 285 284 284 284 284 282 281
282 282 280 280 279 283 290 293 294 283 287 290 295 298 297 295 298 302 296 297 295 293 292 292 292 291 291 289 287 286 286 285 286 286 286 285 285 284 285 284 284 283 281 280
280 280 280 282 280 278 290 290 289 289 291 291 292 293 293 295 294 294 292 292 292 291 290 289 288 287 286 285 285 284 284 284 284 284 284 284 284 284 284 283 282 282 281 279
279 284 282 284 284 292 293 293 295 293 290 292 294 294 292 291 291 292 291 290 289 288 287 284 283 282 282 282 284 283 282 282 282 282 281 282 283 283 283 282 281 281 281 280
285 289 284 283 288 289 291 294 295 292 292 294 293 290 290 290 291 290 288 288 287 284 283 281 281 281 280 281 281 281 281 281 280 280 281 282 282 282 283 283 283 282 282 281
283 285 284 284 287 289 290 291 292 291 291 291 289 288 288 289 289 289 286 284 283 282 281 280 280 280 279 281 281 282 282 283 283 282 281 282 282 283 282 283 283 282 283 284
285 283 280 280 286 286 289 291 288 287 288 289 288 287 286 285 285 284 283 282 282 281 280 279 279 278 278 278 278 280 284 284 282 281 282 282 282 282 282 281 279 284 284 285

GFSCGP_sfc_thetae_063.txt.gz
Theta_e
302 298 295 298 300 299 297 296 295 298 299 297 298 298 301 304 305 305 305 306 307 308 312 312 313 313 316 318 318 319 319 319 320 319 319 320 319 319 323 326 325 327 326 324
298 295 300 300 300 298 297 295 295 298 299 296 297 297 301 303 303 305 305 306 307 308 310 312 312 312 311 314 316 315 315 315 316 318 319 319 319 317 317 318 318 320 318 320
294 297 300 298 297 295 296 295 295 295 297 298 296 295 298 302 304 305 306 307 307 308 309 310 312 311 312 311 313 313 314 314 315 317 317 317 316 315 311 311 311 310 313 314
297 300 297 296 294 296 292 298 297 295 293 289 296 288 296 299 300 303 305 306 307 308 309 309 311 311 311 311 313 313 313 313 314 316 315 315 310 308 311 313 309 307 307 307
295 295 295 294 295 298 295 297 296 295 294 293 293 289 294 299 298 300 303 306 308 309 310 310 310 311 311 312 313 313 312 313 313 315 315 314 310 312 314 314 308 307 304 304
297 298 298 297 296 298 298 297 296 296 294 286 292 291 292 296 298 301 304 305 307 308 309 309 310 311 310 313 312 312 311 311 312 313 314 313 311 312 313 311 309 304 302 298
295 295 297 298 294 296 296 293 286 285 286 285 292 290 293 298 300 302 302 304 306 307 307 308 307 306 306 308 309 309 309 309 311 312 312 313 312 313 313 310 307 304 299 296
290 288 294 297 296 294 293 293 288 282 284 287 289 286 292 301 303 303 303 304 305 306 306 306 308 309 307 306 306 307 307 308 309 310 310 311 312 312 313 313 308 303 302 300
291 289 296 297 298 297 293 289 296 289 287 285 288 293 298 300 299 301 302 303 304 306 307 306 307 308 307 305 305 306 306 306 308 308 309 309 311 311 311 310 312 308 305 302
294 288 293 294 296 297 294 297 288 288 283 281 286 288 290 297 298 301 301 302 304 306 306 307 307 307 306 305 306 306 306 305 306 307 308 307 309 310 311 310 309 308 307 300
296 292 289 293 291 291 291 290 291 291 289 283 283 287 298 298 299 300 302 303 304 305 306 305 307 305 304 304 305 305 305 305 305 306 306 306 307 308 308 307 305 303 300 295
297 293 288 290 296 297 296 292 292 286 285 288 286 287 300 300 300 301 301 303 304 305 305 305 304 304 302 303 303 304 304 304 305 305 305 305 306 305 304 304 302 299 296 292
296 290 285 288 293 293 290 293 293 293 290 287 284 287 299 301 300 301 301 303 304 305 305 305 304 303 303 303 303 303 303 304 304 304 303 303 303 303 302 302 300 297 293 290
297 291 289 286 290 294 289 291 293 292 286 287 288 290 296 298 299 301 302 303 304 305 305 305 306 306 305 304 303 303 303 304 304 303 302 301 302 301 301 301 298 294 291 289
293 286 290 292 293 293 292 292 292 290 291 287 290 291 295 298 299 301 304 304 303 303 304 304 304 306 306 306 303 302 302 303 303 301 300 300 301 301 300 298 296 292 290 288
291 285 287 284 289 289 287 290 293 293 292 292 292 292 300 301 302 302 303 303 302 303 304 304 305 305 304 304 304 302 301 301 301 300 299 300 298 296 295 293 290 288 287 285
289 287 284 280 287 287 283 288 291 293 295 294 289 295 300 299 300 301 302 303 303 303 304 304 305 305 306 305 303 302 301 300 298 297 295 293 293 292 292 290 287 286 285 284
286 285 284 281 282 275 287 293 296 294 295 297 297 298 299 300 302 303 304 304 303 304 304 305 306 307 307 306 304 303 299 297 294 293 292 291 291 290 289 287 286 285 284 283
290 286 281 277 277 282 286 291 291 290 290 297 297 299 300 302 302 302 305 305 305 305 306 305 303 301 301 300 300 295 292 293 292 291 290 290 290 288 287 285 285 284 284 283
288 289 283 281 276 274 284 290 294 293 284 294 292 293 293 298 293 298 303 301 301 301 300 298 297 297 297 298 295 290 290 289 289 289 289 289 288 287 286 286 285 285 284 283
283 283 279 279 277 282 289 291 294 282 285 290 292 292 292 290 294 297 299 299 299 296 294 294 294 293 292 289 287 287 288 287 288 287 287 287 287 286 286 285 285 284 283 281
279 279 280 282 278 276 293 293 287 289 291 291 291 292 293 294 294 294 296 295 294 293 291 290 289 289 288 286 286 286 285 285 285 285 284 284 284 285 285 284 283 283 281 280
277 281 280 282 283 293 294 294 297 293 290 290 290 292 292 292 293 294 294 293 291 291 289 287 284 283 283 283 284 284 283 283 282 282 281 283 283 284 284 283 282 281 281 279
284 287 283 283 286 288 290 293 293 294 294 295 295 295 295 293 293 292 292 292 291 287 285 283 283 282 281 282 281 282 282 282 281 281 281 282 282 282 283 283 283 282 281 280
283 284 282 282 285 287 290 292 291 292 293 292 293 292 291 290 290 291 290 287 286 285 283 282 282 281 280 282 282 282 282 282 282 281 281 283 282 283 282 282 283 282 283 283
283 281 279 279 286 286 287 289 290 289 290 291 290 289 289 287 287 287 286 285 284 283 282 281 280 280 279 279 278 281 283 284 282 280 281 281 283 283 282 282 282 285 285 285

GFSCGP_sfc_thetae_066.txt.gz
Theta_e
299 293 290 293 295 295 292 291 290 291 295 293 293 293 295 298 297 296 297 298 299 301 303 305 305 306 309 313 318 324 324 322 321 320 319 317 318 317 320 323 326 327 327 327
294 290 297 298 298 295 292 290 289 293 295 292 292 292 295 296 297 298 298 298 299 300 301 303 304 304 307 310 314 317 321 320 320 320 318 316 314 313 317 316 319 322 323 324
292 294 298 297 294 293 291 290 290 290 293 292 289 288 292 297 299 299 299 301 300 300 300 301 303 303 304 306 309 312 315 317 317 315 314 311 311 309 308 312 315 315 317 319
293 297 295 293 293 293 289 294 294 292 288 283 290 281 289 293 294 297 298 298 299 300 301 302 302 302 304 306 308 310 309 309 311 312 312 311 310 309 308 309 311 313 312 314
291 293 292 292 293 295 291 295 293 291 288 287 286 283 287 291 290 293 296 298 299 300 301 301 302 303 304 304 304 305 307 308 309 310 311 310 309 307 305 306 306 307 306 309
293 296 295 294 295 295 296 293 292 290 288 280 287 285 284 288 290 292 295 296 299 302 301 302 302 304 303 304 304 304 305 306 308 309 310 309 309 304 304 305 304 304 303 304
292 292 294 296 291 294 293 289 280 279 279 279 286 283 287 292 295 292 294 296 296 302 300 301 300 300 301 302 303 304 304 303 305 306 307 308 307 305 304 305 306 300 298 299
288 285 292 295 293 290 290 289 281 276 277 279 283 281 286 293 294 295 295 297 297 296 299 299 300 301 300 301 302 302 302 302 303 304 305 306 307 306 307 307 306 304 302 302
288 288 293 294 294 294 290 286 291 284 277 277 283 287 293 294 293 294 296 296 296 298 299 300 300 301 301 299 300 301 301 302 302 303 304 304 305 306 306 306 306 304 301 301
291 285 290 291 293 293 291 293 284 284 274 273 280 282 285 290 293 294 293 295 297 299 300 300 300 301 300 299 300 300 301 300 301 302 303 304 304 304 305 305 303 302 301 298
293 290 286 289 288 288 288 286 287 288 284 278 275 281 290 291 294 294 294 297 297 298 299 299 299 299 299 298 299 299 300 300 300 301 301 301 301 302 304 304 302 302 299 296
293 291 282 286 291 292 290 288 289 281 280 281 281 284 294 293 293 294 294 297 299 298 299 298 298 298 297 297 298 298 299 299 300 300 301 300 301 301 301 301 301 298 296 291
294 287 278 283 288 289 286 289 290 289 284 282 277 283 293 292 294 296 295 297 298 300 298 299 298 297 297 297 297 298 298 298 299 300 299 299 299 299 299 298 298 295 292 288
298 290 285 282 286 291 286 289 292 290 284 283 284 287 292 294 295 297 297 296 297 298 299 298 298 298 298 297 297 297 298 299 298 299 298 297 297 299 299 298 296 293 290 287
294 285 288 289 290 291 289 289 290 289 290 285 287 288 292 295 295 296 297 298 298 299 299 299 298 298 299 299 298 297 297 298 298 298 297 298 296 297 297 294 292 289 287 287
292 284 285 280 287 287 283 285 287 289 290 290 291 290 296 298 299 298 298 299 299 299 300 300 300 299 299 299 299 298 297 296 297 297 297 298 294 292 291 290 289 287 286 285
289 285 283 275 282 282 280 283 285 287 289 290 286 292 297 296 297 298 298 299 300 301 301 300 300 300 299 299 299 298 297 295 293 292 289 289 289 288 289 288 287 285 284 282
283 284 280 275 275 271 283 287 289 289 290 293 294 295 296 297 298 299 299 298 299 300 301 301 299 298 298 297 296 296 292 291 290 288 286 285 286 286 285 285 284 283 282 282
289 283 272 273 272 277 281 284 283 282 284 292 290 292 292 293 292 294 294 296 296 297 297 296 295 295 294 294 294 289 288 288 288 288 287 285 285 284 283 283 282 280 280 280
286 287 281 269 267 263 279 284 288 288 279 288 291 290 290 290 285 290 294 294 295 296 295 292 291 292 291 289 287 285 285 285 285 286 286 286 284 283 282 282 281 279 278 280
278 276 277 276 275 277 283 286 288 276 278 283 286 288 288 287 290 293 295 293 293 291 291 291 288 288 288 285 283 283 284 284 285 283 282 282 282 280 280 279 278 278 278 281
274 271 273 274 275 272 288 287 282 288 289 289 288 290 289 290 291 292 293 290 290 289 288 285 285 284 285 282 281 282 282 282 280 280 280 279 277 280 279 278 275 281 281 279
273 277 271 276 275 286 287 286 289 292 288 287 288 289 290 288 289 292 292 293 292 291 289 286 280 280 281 279 278 278 279 278 277 276 276 276 277 277 277 277 277 279 280 279
278 282 277 277 280 282 284 287 287 289 287 290 291 290 288 288 288 289 290 290 290 287 286 282 281 281 279 279 278 276 277 276 275 274 274 274 276 277 276 278 278 277 275 277
277 279 276 277 280 282 284 285 286 286 287 287 286 287 287 286 286 285 286 286 286 284 280 280 279 279 277 278 277 277 277 277 276 278 277 275 275 275 275 275 276 277 277 279
280 279 276 276 280 281 283 284 284 285 284 285 285 285 287 285 285 283 283 282 281 280 277 277 276 275 275 275 272 275 278 280 279 278 280 280 280 279 278 278 279 285 284 285

GFSCGP_sfc_thetae_069.txt.gz
Theta_e
295 289 286 289 290 291 289 287 285 288 293 291 290 290 293 295 293 292 294 295 296 297 301 300 302 305 310 315 318 323 323 324 326 324 322 321 324 323 321 325 329 331 331 329
290 287 293 294 294 292 289 286 285 289 293 290 290 290 293 293 295 296 296 293 295 295 298 300 299 300 305 313 317 322 324 323 325 326 326 325 320 315 320 316 320 330 330 329
288 291 295 295 291 291 288 286 286 287 289 289 287 285 288 293 294 295 295 296 296 297 297 298 298 299 303 306 312 318 322 322 323 323 316 311 311 309 311 311 313 318 324 326
291 294 293 291 290 291 286 290 291 289 286 281 288 279 286 291 293 292 294 294 295 296 297 297 298 298 299 305 310 315 318 319 320 318 316 317 317 315 317 318 317 310 315 320
289 290 290 289 291 292 289 292 290 289 285 284 283 280 285 287 287 291 292 293 294 296 296 298 298 299 300 302 303 306 308 312 315 315 315 315 314 314 303 304 306 307 306 312
290 293 293 292 292 292 294 292 291 288 285 278 284 283 281 285 288 289 291 293 295 296 301 300 301 300 300 299 300 302 305 305 307 312 310 311 311 303 302 302 304 304 303 306
289 290 292 294 290 293 291 286 278 278 277 277 283 281 284 289 291 291 292 292 293 296 298 298 298 298 299 299 300 300 302 303 303 305 307 305 306 305 305 303 304 303 305 306
285 283 290 293 291 289 288 286 279 274 276 278 282 280 286 291 293 292 293 294 293 294 295 296 297 298 298 297 299 300 300 300 301 303 304 306 305 307 307 305 306 305 304 305
285 286 290 292 293 293 287 285 289 282 273 276 280 284 289 292 292 294 293 294 295 297 298 298 298 298 298 297 298 300 300 300 301 302 302 303 305 304 305 303 305 306 303 302
290 283 288 289 291 290 289 291 283 282 273 272 277 280 284 288 290 293 294 294 294 296 297 297 297 298 298 298 298 298 299 299 300 300 301 303 303 304 303 302 302 303 301 300
292 288 284 288 286 286 286 285 286 286 282 276 274 280 287 289 292 291 293 295 295 297 297 297 297 297 298 298 298 298 298 298 298 299 300 300 300 301 301 302 302 301 299 298
293 289 280 284 288 289 288 286 287 280 279 280 279 283 291 291 292 293 293 295 295 296 298 297 297 297 296 297 297 297 298 298 298 298 299 299 299 299 300 301 301 299 299 296
293 285 275 281 286 288 285 287 288 287 282 279 276 283 292 292 293 294 293 294 294 295 296 297 296 295 295 295 296 296 297 297 298 298 298 298 298 298 299 300 298 297 295 293
296 288 282 278 284 289 285 287 289 288 278 281 283 285 291 291 293 295 294 294 294 296 297 296 296 296 296 296 296 296 296 297 297 297 297 297 298 298 299 298 296 295 293 291
293 286 287 287 288 289 290 289 289 288 288 284 286 287 291 294 295 296 294 296 296 296 297 298 297 297 298 297 297 296 296 296 297 296 296 297 297 296 295 293 292 291 289 289
291 282 286 283 287 288 284 286 286 287 288 289 289 288 295 296 297 296 296 296 297 298 298 299 299 298 297 297 297 297 296 295 295 295 295 297 293 291 291 290 290 289 287 286
287 284 282 271 281 281 275 282 284 286 287 288 284 289 293 293 294 294 294 294 293 294 296 296 296 296 296 296 296 295 294 293 291 290 289 289 289 288 289 289 288 287 286 284
286 284 282 269 272 264 279 285 285 285 287 289 290 291 292 290 291 292 292 292 292 293 294 294 294 293 293 293 293 291 288 288 287 287 286 286 286 286 285 285 286 285 283 283
287 283 277 272 264 274 279 281 281 279 279 284 283 287 289 289 289 289 292 292 292 293 294 293 292 291 290 290 287 285 285 285 285 286 286 286 284 285 283 283 283 280 279 279
287 285 277 261 262 263 275 281 284 284 275 286 287 286 286 287 282 285 291 292 293 293 292 291 290 289 288 287 284 283 284 283 284 285 285 285 285 284 284 283 279 278 277 279
277 280 277 276 274 273 281 282 285 273 276 285 287 289 287 285 287 290 291 292 293 290 291 290 288 289 288 285 282 282 282 282 284 283 283 282 282 280 279 277 278 277 276 278
274 274 270 277 274 272 284 282 281 284 284 287 288 288 288 289 288 289 290 290 290 289 289 290 287 288 285 282 281 280 280 282 280 279 280 280 277 279 278 275 276 280 280 280
270 276 272 276 275 283 283 283 287 291 286 285 287 287 288 286 287 287 288 289 289 287 287 286 284 283 283 279 278 278 282 281 278 277 279 276 273 275 274 275 281 280 280 279
276 280 275 275 278 279 282 284 285 287 286 286 288 287 286 286 285 285 285 287 287 286 284 281 280 280 279 277 278 276 279 278 273 276 276 274 274 273 272 278 278 279 279 278
276 278 274 276 279 280 282 282 284 284 283 283 283 285 285 284 283 283 283 283 284 282 279 278 278 277 276 275 277 279 278 277 278 277 275 272 273 272 273 275 275 275 274 278
278 276 274 273 279 279 280 282 282 282 282 283 282 282 283 283 283 283 281 281 280 280 277 275 275 272 272 271 271 271 275 276 273 275 278 277 279 278 277 277 279 283 283 284

GFSCGP_sfc_thetae_072.txt.gz
Theta_e
294 288 286 289 289 288 288 286 285 287 291 290 289 289 291 294 292 291 292 292 293 295 300 297 299 301 307 312 315 320 322 326 327 324 324 326 326 327 328 332 332 332 331 328
290 286 290 292 291 289 287 285 284 287 291 289 287 289 291 292 293 293 293 292 293 293 296 298 298 297 300 309 314 318 321 325 326 328 328 328 327 319 325 324 327 331 330 329
287 290 293 293 290 289 287 285 285 285 287 286 286 284 286 290 291 293 294 294 293 294 294 295 296 296 297 301 309 315 321 323 325 327 321 312 311 310 313 313 322 328 329 328
290 293 291 289 289 289 285 289 288 287 284 280 285 278 284 288 290 291 292 289 291 293 294 295 296 295 295 299 304 313 318 321 323 324 322 322 321 319 320 324 320 314 320 327
288 289 289 288 289 290 287 290 288 287 284 282 282 280 283 285 288 289 291 291 294 295 292 295 297 298 297 297 299 305 311 317 320 321 322 320 321 321 311 307 310 309 312 316
289 292 291 291 291 290 292 290 288 286 283 277 282 280 280 283 286 288 291 293 293 295 295 295 296 298 298 298 297 301 306 309 312 317 317 317 318 312 303 302 305 305 306 314
288 288 290 292 289 291 289 284 277 276 276 276 280 279 282 288 289 289 291 292 293 293 294 295 296 296 296 296 298 298 301 303 305 309 311 310 313 308 306 305 307 302 303 304
284 282 289 292 290 288 286 284 278 273 274 276 281 279 285 289 291 292 291 293 293 295 296 296 296 296 296 297 297 299 299 299 301 302 304 305 307 308 308 305 305 305 306 306
284 284 289 290 291 292 287 283 287 281 271 275 279 282 289 291 289 291 293 294 295 296 296 296 297 297 297 297 298 298 299 299 299 300 301 302 303 304 305 302 304 305 304 302
290 283 287 288 291 290 288 290 283 281 272 271 277 278 282 287 290 292 292 293 294 296 297 297 297 297 298 298 298 297 298 298 299 299 299 300 301 302 302 301 302 303 302 300
290 287 283 287 286 286 286 284 285 285 281 275 272 279 286 288 290 290 291 293 293 294 295 297 297 297 296 296 297 297 297 298 298 298 298 298 299 300 301 302 303 303 301 299
292 287 280 283 286 288 286 286 286 280 278 278 279 280 290 290 290 292 292 293 293 293 295 295 295 295 295 295 295 296 297 297 298 298 298 298 299 299 299 301 302 299 300 297
293 286 277 282 286 287 284 286 286 285 281 278 276 280 289 290 292 293 293 293 293 294 295 295 296 297 298 296 295 295 295 296 297 297 297 297 297 297 298 298 298 296 297 294
296 287 283 280 283 287 284 285 288 286 278 281 282 285 288 291 293 295 295 294 293 294 295 295 296 296 297 297 295 294 294 295 296 296 296 295 296 297 297 296 296 295 294 294
293 282 285 287 287 288 287 286 287 286 286 282 284 286 289 292 293 294 293 294 294 294 294 294 294 294 294 295 295 296 296 295 294 294 294 295 296 295 294 293 292 291 291 293
291 283 285 281 286 287 283 285 286 286 287 287 287 287 293 293 292 292 292 292 292 292 294 294 294 294 293 293 293 294 293 292 292 291 290 292 291 290 290 289 289 289 288 288
287 284 279 273 281 280 274 281 284 284 285 287 283 288 290 289 290 290 290 290 291 292 293 293 293 293 292 292 292 291 290 288 286 286 287 287 286 286 287 288 287 287 287 286
282 279 276 269 271 269 280 282 283 285 286 287 287 288 288 288 288 290 292 289 291 292 292 293 292 291 291 290 290 288 286 285 285 284 284 284 285 285 285 284 285 285 285 284
286 282 275 270 265 274 279 280 280 280 280 284 283 284 285 286 285 286 291 291 291 291 292 292 292 291 290 289 288 284 284 285 284 285 284 283 283 284 284 284 283 282 280 278
286 286 280 266 269 264 275 280 282 283 274 284 286 285 285 284 280 282 288 289 290 291 291 290 290 289 288 288 285 283 283 283 283 284 284 283 282 281 282 283 283 281 277 280
280 281 279 272 273 272 279 282 283 272 275 282 284 285 283 283 285 287 288 289 288 288 289 289 288 288 288 287 283 282 282 281 283 282 281 281 281 280 279 278 277 275 275 277
275 274 271 275 274 271 282 280 278 281 283 285 285 286 286 287 287 287 287 286 285 285 286 286 285 285 285 283 280 280 280 281 280 279 279 279 278 280 281 273 273 275 280 280
271 276 272 275 276 283 282 283 286 286 283 283 285 286 285 285 285 285 285 285 285 284 284 284 281 281 282 278 276 278 279 279 278 276 277 277 276 278 276 276 279 280 280 279
276 279 275 275 278 279 281 282 285 284 286 285 284 284 284 283 284 283 283 283 284 284 282 278 276 278 279 275 276 275 278 277 273 273 274 274 275 275 274 279 279 280 279 278
278 279 275 275 279 279 281 282 283 283 283 283 283 283 282 282 282 282 281 281 282 282 279 275 277 278 278 275 273 271 275 278 277 273 273 274 272 271 274 274 274 274 275 278
278 277 275 273 279 280 280 282 282 281 280 280 280 280 281 281 281 281 281 280 279 280 278 275 274 273 274 271 271 269 268 272 276 277 279 279 273 274 277 278 279 283 283 283

GFSCGP_sfc_thetae_075.txt.gz
Theta_e
292 288 285 288 287 286 286 285 284 286 290 289 288 288 291 293 291 291 291 291 292 293 297 296 297 298 306 310 312 316 320 325 326 326 326 328 328 329 330 331 330 329 329 326
289 286 290 291 290 289 287 284 284 286 290 289 287 288 290 291 292 292 292 292 291 291 293 294 295 294 297 305 311 314 318 322 325 327 328 328 327 329 331 331 331 331 330 328
286 288 292 291 288 288 285 284 284 285 286 285 284 283 285 288 289 292 291 291 291 292 292 293 293 293 294 296 303 311 316 319 323 326 323 312 313 311 317 320 327 329 330 329
288 291 290 288 288 288 284 289 288 286 283 279 283 277 283 286 288 289 290 288 290 292 292 293 295 295 294 294 296 304 310 316 320 323 322 323 323 322 321 325 323 326 328 328
287 289 288 287 288 289 287 289 286 285 283 281 281 279 283 284 285 287 290 291 291 292 293 294 294 296 296 296 295 296 306 312 316 320 323 322 322 324 316 313 314 314 320 324
288 291 290 289 290 289 291 288 286 284 281 276 280 278 279 282 284 286 288 291 293 293 295 296 296 296 296 295 296 298 302 307 312 315 317 318 320 316 308 306 310 309 314 319
286 287 289 291 288 290 286 283 277 276 275 275 279 278 282 284 287 287 289 292 293 294 295 295 296 296 296 297 296 298 299 301 306 310 311 312 315 313 309 307 309 304 305 309
282 281 289 291 289 287 285 283 278 272 272 275 280 278 283 288 289 289 292 292 293 293 294 294 295 295 296 297 297 297 298 298 299 302 306 307 308 308 309 306 305 307 307 309
282 282 288 289 290 290 286 282 285 279 269 274 278 281 287 288 289 291 292 292 292 293 294 295 295 295 295 296 296 296 297 298 298 299 300 301 303 304 305 304 303 306 304 303
288 283 286 288 290 288 287 289 282 279 271 270 275 277 281 286 288 290 290 291 292 294 295 296 296 296 296 295 295 296 296 296 297 297 298 299 299 301 302 302 302 302 302 300
289 287 283 287 285 285 285 284 284 284 280 275 272 278 284 288 290 290 291 292 292 293 294 294 295 296 296 296 296 295 296 296 296 297 297 297 298 298 299 300 301 300 300 298
290 286 281 283 286 287 285 285 285 280 277 278 278 279 289 290 290 291 291 292 292 292 293 293 294 294 295 294 294 294 294 294 295 296 297 297 297 297 297 298 299 298 298 297
291 285 278 283 284 286 283 285 285 284 281 276 276 279 289 289 291 292 292 292 291 293 294 294 294 294 294 294 293 293 294 294 294 294 294 295 295 296 296 296 296 296 296 295
295 287 284 281 282 286 284 287 287 285 278 279 280 282 285 287 290 292 291 291 292 293 293 293 294 294 294 294 294 293 294 293 292 292 292 293 293 294 295 295 294 294 294 293
292 285 287 287 288 288 287 286 287 285 283 281 283 283 287 291 291 290 291 291 291 291 292 293 293 293 292 292 293 293 293 292 290 290 290 290 291 291 291 290 290 289 289 291
292 284 286 283 285 286 284 285 284 285 285 286 286 286 292 289 291 289 290 290 290 290 291 292 292 292 292 291 291 292 291 289 288 287 287 288 287 286 286 286 287 287 287 287
287 283 281 278 281 282 278 282 284 284 286 286 282 286 288 288 289 288 289 289 289 290 290 291 291 292 292 291 290 290 289 287 286 285 285 285 285 285 285 285 285 285 285 286
283 281 280 275 275 272 280 281 283 285 285 287 286 285 287 287 287 288 289 289 288 289 289 290 290 290 291 290 289 288 286 285 285 285 284 283 283 283 284 284 284 284 283 283
286 282 275 275 266 275 279 280 279 280 280 284 284 284 284 285 283 283 289 289 288 288 289 289 290 289 289 288 288 285 284 283 283 284 284 283 282 282 282 282 283 283 282 281
285 285 279 268 266 265 275 280 282 281 273 281 283 284 283 283 279 281 288 287 287 288 287 287 287 287 287 287 285 283 283 282 282 283 283 282 281 280 280 281 281 279 276 280
281 280 279 270 270 272 279 280 282 271 275 279 285 285 284 282 284 285 286 286 287 286 286 286 286 285 285 285 283 281 281 281 282 280 280 279 279 278 279 279 276 275 276 277
279 276 275 276 274 271 281 280 277 280 282 284 284 284 284 284 284 284 284 284 284 283 284 284 283 283 283 282 280 280 279 281 278 278 277 277 277 277 279 275 274 273 274 274
274 278 274 277 277 282 282 282 284 284 283 283 283 285 283 282 282 283 283 283 283 283 283 284 281 280 280 278 276 277 279 277 278 276 275 276 276 276 276 272 274 278 279 280
276 279 276 277 280 281 282 283 284 285 285 285 284 282 282 281 281 281 282 282 282 280 279 277 276 277 278 278 275 274 275 277 278 277 276 276 276 276 274 275 275 276 279 279
276 278 275 275 278 280 281 282 284 284 283 281 281 280 280 280 280 280 280 280 280 280 277 275 276 276 277 277 275 270 272 269 271 276 277 277 279 277 274 274 273 273 273 275
278 277 276 273 280 280 280 282 282 281 281 280 280 279 280 280 280 279 278 278 277 277 276 275 274 273 274 272 272 269 265 264 266 269 275 278 279 279 274 273 274 282 284 285

GFSCGP_sfc_thetae_078.txt.gz
Theta_e
292 288 285 289 287 284 285 283 282 284 289 288 287 287 290 292 290 291 291 290 291 292 294 295 295 296 304 309 312 316 320 324 326 326 327 327 327 328 329 330 329 328 326 323
288 284 289 290 289 288 286 284 283 285 289 288 286 287 290 290 291 290 291 290 290 290 291 293 292 292 294 300 308 312 317 321 324 327 327 327 328 329 329 329 329 329 327 326
286 288 291 290 287 287 284 284 283 282 284 284 283 283 284 287 288 289 289 288 289 289 289 292 293 292 292 292 296 306 311 316 320 325 321 313 315 317 324 327 328 329 329 328
286 290 289 288 286 287 283 288 286 285 283 279 283 277 283 285 286 288 289 288 290 291 292 292 294 294 295 295 293 296 304 310 314 319 319 321 323 322 325 327 328 327 328 329
286 288 287 286 288 289 286 288 286 284 282 280 281 279 282 282 283 286 289 291 292 292 293 294 295 295 294 295 295 296 299 305 311 315 320 320 320 321 318 315 319 325 325 327
287 290 289 288 289 288 289 286 285 283 280 276 279 278 279 281 283 285 289 291 292 293 293 294 295 295 295 295 296 297 300 303 308 312 314 315 318 316 310 309 312 314 320 323
286 286 289 290 287 288 285 283 277 275 274 274 278 278 280 283 286 287 288 290 290 292 293 294 294 295 296 295 295 296 297 298 301 306 309 311 312 312 311 309 309 306 310 311
282 280 288 290 288 286 283 283 277 272 272 275 280 278 282 285 286 290 290 289 291 292 293 293 294 294 294 295 295 295 296 296 297 298 300 304 306 308 308 307 306 309 309 311
281 281 288 288 289 291 284 281 284 278 268 274 277 279 284 287 289 289 290 292 292 293 293 293 294 294 294 294 294 294 294 295 296 296 297 297 298 300 303 304 304 305 304 304
287 282 286 287 289 288 286 287 281 278 270 269 274 277 279 285 287 288 290 290 291 292 293 293 294 294 294 294 294 295 294 294 294 295 296 296 297 297 298 299 300 300 300 300
288 287 283 287 285 284 285 283 282 283 280 274 271 277 284 288 288 288 289 291 290 291 292 293 293 294 294 294 295 294 295 294 294 295 295 295 295 296 296 297 298 298 298 298
289 286 280 283 286 286 285 284 284 279 276 277 278 279 289 290 290 290 289 290 290 292 292 293 293 293 293 293 293 293 293 293 293 293 294 294 294 295 295 295 296 296 296 296
290 284 275 280 284 284 283 283 284 283 281 276 277 279 288 288 289 289 290 290 292 292 292 292 292 292 292 292 292 291 292 291 291 291 291 292 292 292 293 293 293 293 294 293
294 285 284 281 283 284 282 285 284 285 280 280 280 280 284 287 288 289 290 290 290 291 292 291 291 291 291 291 291 291 291 290 289 289 288 288 288 289 290 290 290 290 290 290
291 281 284 284 285 285 285 285 285 283 286 282 283 282 288 288 289 289 290 290 289 290 290 290 290 291 291 291 292 292 292 290 288 287 287 287 287 287 286 286 285 286 286 288
291 285 286 284 286 286 283 284 285 285 285 285 285 285 291 291 291 289 289 289 288 288 288 289 289 290 290 290 290 290 290 289 287 286 286 286 284 284 284 284 284 284 284 285
288 285 284 280 283 284 282 283 284 284 285 286 283 287 289 289 289 288 289 288 288 288 288 288 288 289 289 289 289 288 288 286 284 284 284 284 283 283 283 283 283 284 284 283
285 284 283 275 280 275 280 280 284 286 286 288 286 286 288 288 289 288 289 287 287 286 286 287 287 288 288 288 287 286 284 283 283 283 283 282 282 282 282 281 281 282 283 282
288 283 275 275 275 276 278 281 281 283 282 287 286 285 285 286 284 284 288 288 287 286 286 287 287 287 287 286 286 284 283 283 283 283 283 282 281 280 280 280 280 281 281 281
285 285 283 273 270 268 277 280 282 282 276 281 286 284 284 282 278 280 287 287 286 285 285 285 285 285 285 285 283 282 282 280 281 282 282 281 280 278 278 279 279 278 278 280
280 279 277 270 267 271 279 279 280 272 276 279 283 285 283 282 283 284 286 284 285 285 284 284 284 284 284 283 282 280 280 280 282 279 279 279 278 277 277 277 275 277 277 276
281 279 278 274 273 271 281 280 278 280 282 283 284 284 284 284 284 285 284 283 284 283 283 283 282 282 282 281 278 279 278 280 277 277 277 276 276 276 278 274 275 273 274 280
275 280 277 280 279 282 281 282 283 285 284 284 284 284 282 281 280 281 281 282 282 283 282 282 279 279 280 277 274 276 278 277 276 277 278 279 278 276 276 273 274 274 273 279
276 279 277 278 278 280 281 282 284 284 284 284 283 282 281 280 280 280 280 281 281 279 278 276 275 275 275 274 274 273 274 274 269 270 273 276 277 278 279 274 275 273 272 273
277 279 275 275 278 280 281 282 284 283 283 282 281 281 280 280 279 279 279 278 278 277 275 273 274 274 274 274 274 269 271 268 267 268 270 271 276 278 280 280 275 275 274 274
278 277 276 274 280 281 281 283 283 281 281 281 281 280 280 279 278 278 276 275 273 272 271 271 271 270 271 270 270 269 263 263 263 266 269 271 272 274 278 279 278 280 283 285

GFSCGP_sfc_thetae_081.txt.gz
Theta_e
291 288 286 288 287 284 285 283 283 285 290 289 288 288 291 292 292 292 292 292 292 293 295 295 296 297 302 312 317 321 323 327 329 328 327 327 326 328 329 329 329 327 325 322
288 285 289 290 288 287 286 284 284 286 289 288 286 288 290 290 291 291 290 291 291 291 292 294 295 295 297 301 310 315 320 324 327 329 329 329 329 329 329 329 329 329 326 324
286 288 290 289 287 287 284 285 284 284 285 285 283 284 285 288 289 290 290 290 292 292 293 294 296 296 297 296 296 305 313 319 324 328 325 320 323 322 327 327 328 328 328 327
287 289 288 286 285 286 284 287 287 286 283 281 284 278 283 285 287 289 290 291 292 293 295 295 295 296 297 298 299 298 302 311 317 323 324 324 324 323 326 327 328 328 329 328
286 287 287 285 286 288 285 288 286 284 283 282 282 280 282 283 285 288 290 292 293 294 294 295 296 297 297 298 299 301 304 307 311 317 322 322 323 325 324 323 326 327 327 328
287 289 288 288 288 288 289 286 284 283 281 277 281 279 280 282 285 288 290 292 293 294 294 295 296 297 297 297 298 300 301 301 309 314 316 318 319 319 317 316 317 322 325 326
285 286 288 290 287 289 285 283 278 277 275 275 279 278 281 284 287 290 290 291 292 293 294 294 295 295 296 296 296 298 298 298 300 303 308 311 314 315 315 315 314 313 313 315
282 280 288 290 288 286 284 283 278 273 272 275 279 278 282 286 288 290 291 292 292 292 293 293 294 294 295 295 296 297 297 297 297 298 300 301 303 307 309 310 312 312 312 314
281 281 288 289 289 290 285 282 284 278 268 274 278 280 285 288 289 290 291 291 292 292 293 293 294 294 294 294 294 295 296 296 296 297 298 298 299 300 301 302 305 306 307 307
287 281 286 287 289 288 285 287 281 278 270 270 275 277 280 285 287 289 290 290 291 292 293 293 294 294 294 294 294 295 294 294 294 295 296 297 297 298 299 299 300 301 302 302
288 287 283 287 285 284 284 283 282 282 279 273 271 277 283 288 288 288 289 290 290 292 292 293 293 294 294 294 294 294 294 294 293 294 294 294 295 296 296 297 297 298 299 299
289 286 282 283 286 287 285 284 284 279 276 276 277 279 288 289 289 290 290 290 291 292 292 292 292 293 293 293 293 293 293 293 292 292 292 292 292 292 292 293 294 295 295 296
290 284 276 281 284 285 283 284 283 282 281 276 275 278 288 288 289 290 290 291 291 292 292 292 292 292 292 292 292 292 292 291 291 290 290 291 290 290 290 290 290 290 291 291
294 284 283 280 281 284 282 283 283 284 280 279 280 281 283 286 288 289 290 291 291 291 291 291 291 291 291 292 292 291 291 291 289 289 289 288 288 288 288 288 288 288 288 289
290 282 283 284 284 284 284 284 283 283 285 282 283 282 288 288 289 290 291 290 289 289 289 290 290 290 290 290 290 290 290 290 288 287 287 287 287 287 286 286 286 286 286 287
290 284 284 283 286 285 283 285 285 286 283 284 282 283 289 291 290 289 289 289 288 288 288 289 289 289 289 289 289 289 288 287 286 285 285 285 284 284 284 284 284 284 285 285
288 286 282 276 284 283 282 284 285 285 285 286 283 287 288 288 289 289 288 288 288 287 287 287 287 288 288 288 288 287 286 285 284 284 284 283 283 283 283 283 283 283 283 284
286 285 284 277 281 278 282 280 285 286 286 287 286 287 290 291 290 290 290 289 286 285 285 286 287 287 287 287 286 285 284 284 284 284 284 283 283 282 282 282 281 282 282 282
289 284 276 277 276 279 279 281 283 285 284 288 286 287 287 287 287 286 289 288 286 286 286 286 287 287 286 285 284 284 284 283 283 283 283 283 282 281 280 279 280 280 281 281
287 287 282 275 276 273 279 281 283 284 277 284 288 287 285 284 280 282 287 287 287 286 285 285 286 285 285 284 283 282 282 280 281 282 282 281 280 279 278 279 279 280 279 279
281 281 278 277 276 275 280 280 282 278 279 280 286 286 284 282 283 285 286 286 286 285 285 284 284 284 283 282 281 280 280 279 281 279 278 278 278 277 277 277 278 277 277 277
280 278 278 273 274 273 281 279 279 282 283 283 284 284 284 284 285 286 285 284 284 284 283 283 282 282 282 281 278 278 277 279 277 275 275 276 278 279 279 275 276 275 274 275
276 281 279 280 280 282 280 281 283 285 284 284 284 284 285 283 282 282 281 281 282 282 281 281 277 277 277 274 274 275 277 276 274 271 271 272 274 276 279 279 278 277 277 278
277 279 279 280 279 279 281 281 283 284 285 285 284 283 282 281 281 280 280 281 281 279 277 274 272 270 271 271 272 271 273 273 267 267 268 270 271 273 274 279 280 279 277 275
278 279 276 274 277 279 281 282 284 284 283 282 282 282 281 281 280 280 279 278 277 276 273 270 269 270 270 270 269 267 270 267 266 266 268 269 270 271 272 274 277 279 280 278
277 277 277 277 280 281 282 283 283 282 281 281 281 280 280 281 279 278 276 274 273 271 270 269 268 267 266 266 266 266 262 260 261 263 266 267 267 269 270 272 273 280 282 283

GFSCGP_sfc_thetae_084.txt.gz
Theta_e
297 296 293 295 296 292 294 292 291 291 295 295 295 296 298 300 299 301 301 300 300 301 301 301 302 304 306 318 327 330 332 334 333 329 329 329 328 330 331 332 332 331 328 326
295 292 296 295 293 292 293 291 290 293 294 294 293 295 298 295 296 296 297 298 299 300 302 303 304 303 302 306 314 323 327 330 333 331 330 331 329 330 330 332 331 331 328 326
292 292 295 293 292 292 291 291 290 291 291 292 291 292 292 294 296 298 298 299 300 300 301 303 304 306 307 304 303 310 318 324 329 332 330 328 327 327 328 329 329 330 330 328
293 292 293 292 292 293 289 293 292 291 291 287 290 287 291 292 295 297 299 300 301 302 303 303 304 305 306 308 309 304 307 315 322 328 328 326 324 323 326 328 330 330 330 329
291 290 291 291 292 293 290 293 293 291 291 290 289 288 290 291 293 295 297 299 300 301 303 302 303 304 305 307 309 313 314 314 316 322 325 325 325 326 328 329 328 330 331 330
292 294 294 293 292 293 293 292 291 291 290 284 288 288 289 290 293 294 297 298 299 300 301 302 303 304 304 306 307 308 308 309 317 320 321 323 323 323 322 324 325 326 328 329
291 291 294 295 292 293 292 292 284 283 283 283 284 284 290 291 295 298 297 298 299 301 302 302 302 302 303 304 304 305 305 304 307 308 309 314 316 317 317 318 317 317 318 319
286 284 291 294 293 291 291 291 286 280 279 282 283 283 289 292 294 298 299 298 299 300 301 301 301 302 302 302 303 303 303 303 304 305 306 307 307 308 309 310 311 313 315 317
286 285 292 292 293 294 290 287 290 283 277 283 286 288 291 292 294 296 297 298 299 300 300 300 300 301 301 301 301 301 301 301 301 302 303 303 304 304 305 306 307 307 309 308
290 284 289 291 293 293 291 292 286 286 280 280 282 284 289 289 292 295 295 297 298 299 299 299 300 300 300 301 301 301 301 300 300 301 301 300 301 301 302 302 301 302 303 304
292 291 287 290 289 289 288 287 287 288 286 283 280 285 292 293 295 295 297 298 298 298 299 299 299 299 300 301 301 300 299 299 298 299 299 299 299 299 299 299 299 298 299 299
293 290 286 287 290 291 290 289 289 286 281 282 283 287 292 296 298 297 296 296 299 299 298 298 298 298 299 298 298 298 297 296 296 296 297 297 297 297 297 296 296 296 296 296
293 289 283 284 288 289 287 288 289 288 287 283 284 287 292 296 295 296 296 297 297 297 297 297 298 298 297 297 297 296 296 294 294 294 294 294 294 294 294 293 293 293 293 294
296 288 288 283 286 290 286 286 288 289 286 286 286 287 290 292 293 295 296 297 297 297 296 296 296 296 296 296 296 295 294 294 293 293 293 293 293 292 292 292 292 292 292 292
293 287 288 288 289 289 289 288 287 287 289 286 288 287 291 293 294 295 297 296 294 294 294 294 295 295 295 295 294 294 293 292 292 292 292 291 291 291 291 290 290 290 290 290
293 286 287 284 287 288 286 289 289 289 290 290 289 288 295 297 297 294 295 294 294 293 293 293 293 293 293 292 292 292 291 291 291 290 290 289 289 288 289 288 287 288 288 288
291 287 285 284 286 286 284 288 288 289 291 291 287 292 293 294 293 295 295 294 293 292 291 291 292 292 292 291 291 290 290 290 289 289 289 287 287 287 287 286 286 286 287 287
288 286 286 281 285 279 288 286 291 290 291 291 291 292 294 294 296 297 297 294 292 291 290 290 291 291 291 290 290 289 289 289 288 288 287 287 286 285 285 285 285 285 286 285
292 289 282 281 282 286 286 283 287 287 289 292 292 292 293 293 293 291 294 295 293 290 290 290 291 290 290 289 288 288 288 287 287 286 285 284 284 283 283 282 283 284 284 284
288 288 288 279 281 279 286 286 289 291 285 292 293 291 290 290 287 291 292 289 289 289 289 289 290 289 288 287 287 285 285 284 284 283 282 282 282 281 280 281 281 283 283 282
283 283 283 282 281 284 287 285 287 283 287 289 293 292 290 291 293 292 291 289 289 289 288 288 288 287 286 284 282 282 282 281 282 280 280 279 280 280 281 282 282 281 280 280
282 281 281 281 281 279 285 283 284 289 285 287 291 291 290 288 289 290 289 288 288 286 286 286 286 284 283 281 280 279 279 280 279 277 276 275 275 277 279 279 280 281 281 279
282 286 284 285 285 285 286 286 287 289 288 288 289 290 289 288 288 287 286 286 286 285 285 283 281 278 278 278 278 276 277 276 275 272 271 272 273 274 276 277 277 279 281 280
282 283 285 286 285 285 285 286 288 289 289 289 290 289 289 288 287 284 285 285 284 282 280 277 275 275 274 275 274 273 273 273 269 268 269 271 272 273 274 276 277 278 279 280
284 283 282 282 280 283 284 286 288 288 288 286 287 287 286 286 285 284 283 282 281 279 276 274 273 272 272 272 271 271 270 268 267 267 268 270 271 272 272 273 275 276 278 279
281 281 282 284 284 285 286 286 288 287 286 286 285 283 283 284 283 282 281 280 277 275 273 272 270 269 269 268 268 268 266 264 263 265 268 269 268 270 271 272 273 276 278 280

GFSCGP_sfc_thetae_087.txt.gz
Theta_e
301 297 293 296 298 299 298 294 293 296 297 297 296 297 299 301 302 302 304 304 304 304 305 304 305 307 309 319 329 331 332 335 334 331 330 330 329 331 332 333 334 333 330 328
296 293 298 300 297 295 296 294 293 294 296 296 296 296 299 300 300 300 301 302 302 303 304 305 306 306 306 308 316 325 329 332 334 331 331 331 331 331 332 332 332 332 331 329
293 296 298 296 294 294 294 293 293 293 294 295 294 294 296 296 299 300 301 301 302 303 304 306 307 309 309 306 309 314 323 328 331 333 331 330 328 328 329 330 330 331 331 329
295 294 294 295 294 295 290 295 295 293 292 288 293 288 294 295 296 299 301 302 303 303 305 306 307 307 310 311 308 307 315 320 325 330 330 327 325 323 325 327 330 330 331 330
292 292 292 293 294 296 293 296 295 295 293 291 291 289 293 294 294 296 300 301 302 304 304 304 305 306 308 311 314 313 312 315 319 323 326 326 323 325 326 326 326 328 330 330
294 296 296 295 295 296 296 295 294 295 293 285 291 289 291 291 295 297 299 301 301 302 303 304 305 306 307 309 310 312 314 318 320 320 323 323 322 321 320 320 320 321 322 324
292 292 295 296 292 295 295 292 285 284 284 283 287 287 292 293 298 299 298 300 302 303 304 304 304 305 306 306 307 307 308 307 310 311 312 315 317 317 316 316 317 317 318 320
287 284 292 296 295 291 292 292 287 280 281 284 285 284 290 296 300 301 301 301 302 302 303 304 304 304 304 305 305 305 305 305 306 307 307 308 309 309 308 309 309 310 310 311
288 287 294 294 295 296 292 288 293 285 281 285 287 290 292 294 297 298 299 300 301 302 302 302 303 303 303 303 303 304 303 303 303 304 304 304 304 304 304 304 305 305 306 305
292 285 291 292 295 294 293 295 286 288 282 282 285 287 289 289 293 296 297 299 301 302 301 302 302 302 303 303 303 303 303 302 302 303 302 302 302 302 302 302 301 301 302 301
294 292 287 291 290 290 289 289 289 290 289 285 282 286 294 293 296 296 298 300 300 301 301 301 301 302 302 303 302 301 301 300 300 300 300 300 300 300 300 299 299 298 299 299
295 291 285 287 292 292 293 291 291 286 283 285 285 288 295 297 298 300 299 300 301 301 301 301 301 301 301 300 300 298 298 297 297 298 298 297 297 297 297 296 296 297 296 297
294 291 284 284 289 290 289 291 292 292 291 286 285 287 294 296 298 300 299 300 300 300 300 300 300 299 299 298 298 296 296 295 295 296 296 295 295 294 294 294 294 294 294 294
296 291 288 284 287 291 287 289 290 290 286 286 287 289 290 295 296 298 298 300 300 299 299 299 299 298 298 298 297 295 294 294 294 294 294 294 293 293 292 292 292 292 292 292
294 288 290 291 290 291 291 289 289 287 289 286 289 289 293 295 297 298 300 300 298 298 297 297 297 297 296 295 295 294 293 293 293 293 292 292 292 292 291 291 291 290 290 290
294 288 290 286 289 289 287 290 289 289 290 290 291 291 297 298 299 299 298 298 297 297 297 296 296 295 294 293 293 293 292 292 292 291 290 290 290 289 289 289 288 288 288 289
291 288 286 285 287 288 284 288 289 290 292 292 288 293 296 296 297 297 298 298 297 297 295 295 294 293 292 292 292 291 291 292 291 290 289 288 288 287 287 286 286 286 286 287
291 286 286 283 285 278 289 292 294 291 292 294 294 295 296 297 298 299 300 298 297 296 294 294 293 292 292 292 291 291 290 290 289 288 288 286 285 284 284 284 284 285 285 285
294 291 285 284 283 288 291 286 289 289 289 295 294 295 296 298 298 297 300 299 297 294 293 293 293 292 291 290 289 288 288 287 287 285 285 284 283 282 282 281 282 283 283 283
291 292 289 284 283 280 289 289 294 295 286 297 295 295 294 295 289 294 298 297 294 292 292 291 291 290 289 288 287 285 285 284 283 282 281 281 281 279 279 280 280 282 282 281
283 285 285 284 284 286 288 287 293 284 288 292 296 296 293 292 295 296 293 290 290 290 289 290 289 288 287 284 283 282 282 281 281 280 279 278 278 277 277 278 279 279 280 281
284 283 283 285 283 281 288 287 288 291 287 291 294 295 293 291 292 291 290 288 287 287 288 288 287 285 283 281 281 280 279 279 278 277 275 274 274 275 276 275 276 277 278 278
283 288 286 287 288 287 289 288 291 291 290 290 293 294 291 290 289 289 288 287 287 287 286 286 284 280 279 278 278 277 277 275 274 271 270 271 272 273 274 275 275 276 278 278
286 286 286 286 287 287 287 288 289 290 291 291 293 291 291 289 289 288 287 286 285 283 281 279 278 277 276 276 275 274 273 273 267 268 269 271 271 273 274 276 275 276 276 276
286 286 285 285 282 285 287 288 289 289 290 290 291 291 291 289 287 286 285 284 283 281 278 277 277 276 275 274 273 272 271 268 267 267 269 271 273 273 272 274 274 274 275 276
285 286 285 286 287 288 288 289 289 289 288 289 286 285 288 287 286 285 284 283 281 278 276 275 274 273 272 271 270 269 266 265 263 266 269 270 269 271 271 272 272 276 277 279

GFSCGP_sfc_thetae_090.txt.gz
Theta_e
298 292 289 292 293 294 294 292 290 291 294 293 292 292 295 297 295 293 295 298 298 299 298 299 300 300 302 308 323 326 328 330 329 330 329 329 329 330 330 331 331 331 329 328
294 290 295 297 296 294 291 290 288 291 294 291 291 292 295 296 296 295 296 296 296 296 298 301 300 301 299 301 306 320 325 329 329 330 330 329 329 329 330 330 330 331 329 327
291 294 297 296 292 291 290 290 288 289 290 289 288 287 291 292 293 295 295 295 296 297 299 300 302 302 302 300 301 308 316 324 330 328 330 328 327 326 327 327 328 329 330 328
293 295 294 292 291 292 288 292 292 290 287 282 288 279 288 290 292 294 296 295 296 298 301 301 302 302 305 305 301 302 309 317 323 329 326 325 323 322 324 325 328 328 329 328
290 290 291 291 293 294 290 294 292 291 287 285 283 281 284 290 290 293 295 297 298 299 299 299 301 304 305 307 308 303 308 311 315 318 323 323 321 322 322 322 321 324 325 327
291 293 293 293 293 294 295 292 291 290 288 279 284 282 282 285 290 292 295 296 297 297 299 300 302 303 302 303 304 307 311 312 314 316 317 316 315 316 316 316 316 317 319 320
289 290 293 294 290 292 291 288 279 278 277 278 282 282 285 288 293 295 294 295 296 298 298 298 299 300 300 300 300 302 302 302 304 304 305 310 311 309 304 304 305 305 306 306
284 282 289 293 291 288 288 287 281 276 276 277 280 279 285 291 296 297 297 296 297 297 298 298 299 299 299 300 299 299 299 299 300 300 300 301 302 301 301 301 301 301 301 300
285 285 291 292 293 292 288 285 289 280 275 277 280 283 287 291 294 295 295 296 296 297 298 297 298 298 298 298 298 298 298 298 298 298 298 298 298 298 298 297 298 298 298 298
289 283 289 290 292 291 289 291 282 283 273 274 279 280 282 286 291 294 294 295 296 297 297 297 297 297 298 298 298 297 297 296 297 297 296 296 296 296 296 295 294 294 295 295
290 289 285 289 287 287 286 285 285 286 284 278 275 279 286 289 293 293 294 297 297 296 296 296 297 297 297 297 296 295 294 294 294 295 294 294 294 294 293 293 292 292 293 293
292 288 282 284 289 289 288 288 288 282 279 280 281 281 291 291 294 295 295 297 297 297 296 296 296 296 296 295 293 293 292 292 293 293 293 292 292 292 291 291 291 291 291 291
292 287 279 282 286 288 286 287 288 287 285 277 276 279 291 289 294 296 295 296 297 296 296 296 295 294 294 293 292 291 291 291 292 292 291 291 290 289 289 289 290 290 289 289
295 290 285 281 283 288 284 287 287 287 280 280 282 282 285 289 292 295 296 297 296 296 297 295 295 294 293 292 291 290 290 290 291 290 290 289 288 288 288 289 288 288 288 288
292 284 287 286 288 288 287 287 287 285 288 283 286 285 288 290 292 295 296 297 296 296 296 296 294 293 292 291 290 290 289 289 290 289 288 287 288 288 287 286 286 285 285 286
293 283 286 282 288 288 283 286 288 288 288 287 286 285 291 295 296 295 296 297 296 296 296 295 294 293 291 290 289 289 288 288 288 287 286 286 285 284 284 283 283 283 283 283
289 286 284 282 284 285 280 285 287 287 289 289 285 289 291 292 294 295 296 297 296 296 295 294 293 291 290 289 289 287 288 288 286 285 284 284 283 283 282 282 282 281 281 282
287 285 285 280 281 274 286 289 291 289 290 291 291 290 292 293 296 297 298 297 296 296 295 293 292 289 289 288 287 288 287 285 284 283 283 282 282 281 281 280 280 280 280 280
292 286 282 279 278 282 285 285 286 285 287 291 291 292 292 293 293 292 296 298 298 296 294 293 291 289 288 287 286 284 283 283 283 282 281 280 280 277 278 275 277 278 279 279
290 290 284 282 273 273 284 287 291 292 283 291 292 291 291 293 289 292 295 298 295 293 292 289 288 288 286 285 284 283 282 281 281 280 280 279 278 273 273 275 275 276 275 278
284 285 283 283 280 282 285 286 291 282 285 287 292 293 292 292 294 293 295 292 292 290 288 288 287 286 285 283 282 281 281 280 279 278 277 275 275 272 272 272 273 272 273 275
285 284 284 285 282 279 285 287 286 289 283 286 290 292 291 290 291 292 291 288 287 286 287 287 285 283 281 281 281 279 278 277 275 274 272 270 267 269 272 265 267 268 269 271
282 286 285 286 284 285 286 285 287 288 286 285 288 289 290 288 287 288 286 286 286 286 285 285 282 279 279 278 278 277 275 273 270 265 263 263 265 268 268 265 267 269 267 270
284 285 284 284 283 283 284 284 285 286 286 287 288 288 288 287 287 285 285 284 284 283 281 280 278 277 275 274 274 272 271 269 262 261 263 265 265 266 265 270 270 265 266 270
285 285 283 283 282 282 284 285 286 287 287 287 287 287 287 286 285 284 283 283 282 280 278 278 278 275 273 272 270 268 267 264 263 262 265 264 265 263 266 268 267 270 270 271
282 283 282 282 286 286 286 287 287 286 285 286 285 285 285 285 285 284 282 282 280 278 276 275 274 273 271 269 267 265 263 262 260 262 265 264 264 264 267 267 268 273 276 278

GFSCGP_sfc_thetae_093.txt.gz
Theta_e
296 290 288 289 290 291 289 288 288 289 292 292 290 290 292 294 293 291 291 293 295 296 296 297 299 299 302 310 321 326 328 327 327 325 328 328 328 329 330 330 330 330 329 328
292 288 292 295 293 292 289 287 285 288 291 290 290 291 292 293 293 294 294 293 294 294 297 299 299 299 298 299 302 316 327 327 327 327 327 330 329 329 330 330 330 330 329 328
289 292 296 294 291 290 288 287 286 287 289 288 286 285 289 292 293 294 294 294 295 295 297 298 300 301 300 298 299 303 316 327 327 327 329 327 326 326 326 327 328 329 330 328
291 295 293 291 291 291 286 291 290 288 286 281 284 278 285 288 290 292 293 293 294 296 298 300 300 301 301 304 299 300 309 322 328 330 328 326 324 322 325 325 327 327 328 327
288 290 290 288 290 291 289 292 290 288 286 282 282 279 282 287 287 290 292 293 294 296 297 298 300 302 303 305 299 303 309 313 319 327 327 324 322 322 321 319 319 319 320 317
290 293 293 292 292 292 293 291 290 288 285 278 282 280 279 284 289 289 292 294 295 296 297 298 300 301 300 301 302 304 306 307 313 315 318 318 316 315 313 311 310 307 309 306
288 289 291 293 290 291 291 285 278 278 277 276 280 278 282 287 290 292 293 293 294 295 295 296 297 297 297 297 298 300 302 300 301 304 305 306 304 303 302 301 300 300 299 299
282 281 288 292 290 287 286 285 278 274 274 277 279 279 284 288 291 294 295 294 294 294 296 296 296 296 296 296 296 297 298 297 298 299 299 299 299 298 298 297 297 296 296 296
284 284 290 291 292 292 286 283 287 280 272 275 278 280 286 290 291 292 293 294 293 294 295 295 296 295 295 295 295 295 296 296 296 296 297 297 296 295 294 294 294 294 294 295
288 282 289 289 291 290 287 290 282 280 272 272 276 277 280 285 289 291 292 292 293 294 294 295 295 295 295 295 294 294 295 295 294 295 295 294 293 293 292 292 291 291 292 292
290 287 285 288 286 286 285 283 284 285 281 275 273 278 285 288 291 291 293 294 294 294 294 294 295 295 294 293 293 292 293 293 292 293 292 291 291 291 291 290 290 290 290 290
291 287 281 283 288 289 287 286 286 281 278 279 279 280 290 288 292 294 294 295 295 295 294 294 294 293 292 291 291 291 291 292 291 291 290 290 290 289 288 288 288 288 288 288
292 285 279 282 285 287 286 287 287 286 281 277 276 279 289 287 291 294 293 295 295 295 294 294 293 292 291 291 290 290 290 290 290 290 289 288 287 287 287 287 287 287 286 286
295 288 284 280 283 286 283 285 286 286 280 279 279 280 285 287 290 292 293 295 295 295 295 294 293 293 292 291 289 289 289 289 289 288 287 286 286 286 286 286 285 285 285 285
291 283 286 286 287 287 286 286 285 284 287 283 285 283 286 288 291 293 295 295 294 294 294 294 294 293 291 289 289 288 288 288 288 286 286 286 285 285 284 283 283 283 283 284
291 281 285 282 287 286 283 285 287 288 287 285 284 284 289 290 292 293 295 295 294 294 295 295 294 292 290 289 288 288 288 287 287 285 284 284 283 282 282 282 282 282 282 281
289 286 282 278 282 283 280 285 285 287 287 288 284 289 288 289 292 294 295 296 296 296 295 295 293 292 291 289 289 287 286 286 284 283 282 282 282 281 281 280 280 280 280 280
287 288 284 283 282 275 285 289 289 288 289 290 289 288 291 291 294 296 298 297 297 297 296 295 293 292 290 288 287 287 286 284 283 282 281 281 280 279 279 278 278 278 278 278
290 286 281 279 275 282 284 286 285 284 287 289 290 291 290 290 291 291 297 299 298 298 298 296 294 291 287 287 287 285 283 283 282 281 280 279 279 276 276 273 275 276 276 275
289 289 283 279 275 274 283 288 289 291 283 290 292 290 289 290 287 291 295 297 297 297 296 292 289 288 287 286 285 283 282 281 280 280 279 278 277 274 272 274 273 274 272 276
284 284 281 275 273 278 284 286 290 281 284 288 291 293 290 291 295 293 294 293 294 293 290 289 288 287 286 285 283 281 280 279 279 278 277 275 274 272 271 270 271 268 267 271
283 282 282 278 273 277 285 286 286 289 285 286 289 290 291 290 290 290 292 290 289 287 287 287 286 284 283 283 282 280 279 278 276 274 273 271 268 270 270 263 263 264 262 263
282 285 284 286 284 285 284 285 285 286 286 284 288 289 290 289 287 286 285 286 286 286 286 286 284 281 280 280 281 279 277 275 273 270 267 266 265 266 266 262 263 264 262 262
282 283 282 284 283 283 283 284 285 286 285 287 289 287 288 287 286 284 284 284 285 284 283 282 280 279 278 277 278 277 275 272 268 266 266 265 264 264 263 268 268 262 262 262
284 285 283 283 285 282 284 283 286 286 287 287 288 286 287 286 284 284 284 284 284 283 281 281 281 278 276 274 273 272 270 268 265 265 266 265 264 262 264 266 265 267 268 267
283 285 284 283 286 287 286 286 287 286 286 286 286 284 284 284 284 283 282 282 282 280 279 279 278 277 275 273 271 269 266 266 266 265 266 265 264 263 264 264 264 271 274 276

GFSCGP_sfc_thetae_096.txt.gz
Theta_e
295 290 288 291 290 290 290 288 287 287 291 290 289 289 291 293 291 290 290 291 295 301 296 297 300 307 317 319 321 326 327 327 326 325 324 327 328 329 330 330 330 330 329 328
290 287 293 294 293 292 289 288 286 288 290 289 288 289 290 291 292 292 291 291 295 293 294 296 297 296 301 304 316 323 326 326 326 327 324 325 329 329 330 330 330 330 329 328
288 291 295 293 291 289 287 286 285 287 287 287 285 286 288 291 291 292 293 292 293 293 295 297 300 299 298 298 299 312 323 326 327 327 327 327 326 327 327 327 328 329 330 329
291 295 292 291 291 290 285 289 289 288 284 281 285 280 282 288 290 292 292 292 293 294 296 298 299 297 300 302 299 300 314 324 325 328 327 326 324 322 324 325 325 322 322 321
290 291 290 289 291 291 288 291 289 287 284 283 281 279 282 284 285 290 291 292 294 295 297 298 299 301 300 302 297 301 310 323 325 327 328 325 323 322 320 319 318 314 308 308
293 293 294 293 292 292 292 290 288 287 284 278 282 281 280 283 287 291 290 292 293 295 296 298 299 300 300 300 301 303 308 310 319 323 325 323 319 317 313 309 306 304 304 302
288 289 290 294 290 291 291 287 279 278 278 277 280 278 283 285 288 290 292 291 293 294 295 296 296 296 297 297 298 301 304 302 307 310 311 310 307 303 303 300 298 296 296 295
283 281 288 292 291 287 286 287 278 274 274 275 279 278 284 287 290 291 292 293 293 293 295 295 295 295 296 296 296 296 297 297 299 301 302 301 300 298 297 296 295 294 293 293
284 283 289 290 291 291 287 283 286 279 271 276 277 280 286 289 289 290 291 293 292 293 294 294 294 294 294 294 294 295 295 295 296 296 297 296 295 295 294 293 292 291 291 292
287 282 288 289 291 290 288 289 283 280 273 271 275 276 280 285 289 290 290 292 292 293 293 293 293 293 293 293 293 293 294 294 294 294 294 293 292 291 290 290 289 289 289 289
289 287 284 288 286 286 285 284 283 283 281 276 272 277 283 287 291 290 292 293 293 293 294 293 292 293 292 292 292 292 292 292 292 292 291 290 289 289 289 288 287 287 288 288
290 286 281 284 288 289 286 286 286 281 278 278 278 278 287 286 289 292 292 293 293 294 293 293 292 291 291 290 291 290 290 291 290 290 290 289 289 288 287 286 286 286 286 286
291 285 279 282 285 287 285 286 286 284 282 278 278 280 287 286 288 292 292 293 294 293 293 292 291 290 289 289 289 289 289 289 289 289 288 287 286 286 285 285 285 285 285 284
294 287 284 280 283 286 283 285 286 286 280 279 279 281 284 286 288 291 293 294 293 293 293 292 291 290 290 290 289 289 288 289 288 287 286 285 285 284 284 284 283 283 283 283
291 283 285 285 286 287 285 286 286 285 287 283 285 282 285 287 289 292 294 294 293 293 293 293 292 291 290 289 288 289 289 288 287 286 285 284 284 284 283 282 282 281 281 281
289 280 284 282 287 286 283 285 286 287 286 284 282 282 288 288 291 291 293 294 293 294 294 294 294 292 290 289 289 289 288 287 286 284 284 284 283 281 281 280 280 280 280 280
288 283 279 275 282 283 280 284 285 286 288 288 284 289 288 287 290 292 293 294 295 295 295 295 294 293 291 290 289 288 287 285 284 283 282 282 281 280 280 280 279 279 279 279
290 287 284 279 280 274 284 288 288 287 287 290 288 287 289 290 291 293 295 295 296 297 296 296 296 294 292 290 289 287 286 284 283 282 281 280 280 279 278 278 277 277 278 277
289 289 283 282 281 284 287 286 285 284 285 288 288 291 288 290 291 291 296 298 298 298 298 298 297 295 291 288 287 286 284 283 282 281 280 280 279 277 276 275 275 276 275 275
287 289 286 277 278 275 282 291 289 290 283 293 291 291 287 289 286 291 294 297 298 299 299 297 295 293 289 287 286 284 283 282 281 280 280 279 277 275 274 275 274 275 273 275
282 281 282 276 274 278 285 285 290 282 284 287 290 291 288 289 293 294 292 293 296 295 293 292 292 288 288 286 285 283 282 281 281 279 277 276 275 274 274 273 273 270 268 270
282 280 278 275 274 277 285 286 286 288 285 287 289 290 290 291 289 289 290 290 291 289 288 289 288 288 286 286 285 283 281 280 278 276 274 273 272 275 273 270 268 266 265 265
282 285 282 284 282 286 284 284 285 286 285 284 287 289 289 288 288 288 287 287 287 288 288 288 288 285 284 284 285 282 279 277 275 273 271 270 271 272 271 268 266 266 262 263
281 283 283 285 282 283 284 284 284 284 284 285 286 287 286 286 286 285 284 284 284 284 284 284 283 282 281 281 282 282 277 275 273 272 271 270 270 269 267 270 269 263 262 261
283 284 280 281 283 282 283 283 285 285 285 285 286 285 287 285 284 283 283 281 282 281 279 281 283 282 280 279 276 276 274 273 272 271 270 270 268 268 266 267 265 267 267 266
285 285 284 280 287 287 286 287 285 285 285 284 285 285 285 284 285 283 281 281 280 279 278 279 279 280 277 276 273 272 272 273 271 270 270 268 267 266 266 265 264 271 273 275

GFSCGP_sfc_thetae_099.txt.gz
Theta_e
301 293 289 292 293 290 295 289 288 288 291 289 288 289 290 290 288 291 292 294 298 303 309 304 312 315 316 321 326 328 327 327 325 322 322 326 326 329 329 329 329 329 329 328
293 290 295 295 293 291 289 288 287 289 290 289 287 288 288 290 290 291 291 290 293 295 296 297 298 304 314 318 323 326 327 327 326 327 323 323 324 329 330 329 329 330 329 328
291 291 294 293 291 290 287 289 286 287 287 286 285 285 287 290 290 291 292 290 292 296 296 295 297 297 298 306 315 322 325 326 327 326 325 326 326 327 327 327 328 328 328 327
292 294 292 290 290 291 286 289 289 287 286 282 285 279 283 287 289 290 292 290 292 292 294 296 298 300 299 299 299 302 320 323 325 325 327 325 323 322 324 325 320 313 314 315
290 291 289 289 290 292 289 290 289 288 285 282 280 279 282 284 286 288 291 291 291 292 294 296 299 300 301 304 299 298 308 322 324 326 328 326 322 322 320 318 309 307 306 307
292 295 293 291 291 292 292 290 288 287 284 278 282 281 280 281 286 290 290 291 292 293 295 298 299 300 300 300 299 300 306 320 322 325 327 325 320 318 314 310 305 303 301 301
289 290 291 293 291 292 290 287 280 279 277 278 279 278 286 284 287 289 292 293 292 293 295 297 297 297 298 299 299 302 305 314 321 321 320 321 318 315 309 304 301 298 296 294
282 282 288 292 292 288 287 288 280 275 276 276 280 277 283 287 287 289 291 292 292 293 295 296 296 297 298 298 298 299 301 304 309 312 309 309 307 303 298 298 295 293 293 292
281 282 289 290 292 293 287 284 287 280 272 277 278 280 285 286 289 291 291 291 293 294 295 295 295 295 296 295 295 296 296 297 300 302 302 301 299 296 294 292 292 291 290 290
286 281 287 289 292 291 289 291 283 281 274 272 275 276 280 283 288 290 290 291 292 294 294 294 294 294 293 294 293 294 294 294 294 297 299 297 295 293 291 290 289 288 288 288
286 286 284 288 286 287 287 283 284 286 281 277 273 277 284 287 290 290 292 292 292 293 294 294 293 293 293 292 292 291 291 291 292 293 293 293 291 289 288 288 287 287 287 286
288 284 280 284 287 289 291 286 286 282 278 278 278 278 285 285 286 291 290 291 292 293 293 292 292 292 291 291 290 290 290 289 289 289 289 288 288 287 286 285 285 286 285 285
290 284 277 281 285 287 285 287 286 284 282 281 278 281 286 287 288 290 291 292 292 292 292 291 290 290 289 289 289 288 288 288 288 288 287 286 286 285 284 284 284 285 285 284
294 286 283 280 282 285 283 284 285 286 280 280 280 281 285 287 288 289 291 292 293 292 292 291 290 289 289 289 289 288 287 287 287 287 286 284 284 284 284 283 284 283 283 282
290 282 283 284 285 287 286 287 286 284 286 282 285 282 287 288 288 290 292 292 291 291 292 292 291 290 290 288 287 288 287 287 286 285 284 284 284 283 283 282 282 282 281 281
287 277 283 280 285 285 283 285 287 287 288 286 283 282 287 287 290 291 292 292 292 292 293 293 292 291 290 289 289 288 287 286 286 284 284 284 283 282 282 281 281 281 280 279
287 281 277 272 281 282 281 284 285 286 288 288 283 288 287 287 289 290 291 293 293 294 294 293 293 292 292 291 290 288 287 286 284 284 283 282 282 281 281 280 279 279 278 279
287 285 281 274 275 274 284 287 289 287 288 290 289 286 287 290 291 292 293 294 295 295 295 295 295 294 294 292 290 289 287 285 284 283 282 281 281 280 278 278 278 277 277 277
289 288 284 281 268 280 285 287 284 283 285 288 287 290 287 288 289 290 293 296 297 297 298 298 298 297 294 291 290 287 285 284 283 282 282 281 279 278 277 275 276 276 276 276
287 290 287 282 279 273 281 288 289 290 284 291 289 289 288 289 285 290 293 295 296 298 298 298 297 296 293 290 288 286 285 283 282 282 281 280 278 276 275 276 275 275 274 276
278 280 283 283 279 277 284 285 291 283 285 286 289 290 288 289 294 292 291 292 295 295 294 295 296 294 292 289 286 285 284 282 283 281 279 277 276 275 276 275 274 273 273 274
280 278 280 278 280 278 284 284 287 288 286 288 289 289 289 289 288 290 290 289 290 291 290 293 293 292 290 286 287 285 283 284 280 279 277 275 274 275 274 272 272 272 272 271
280 283 281 285 284 285 284 284 285 287 286 284 288 288 288 287 287 289 288 288 287 287 288 289 291 286 285 285 287 285 284 280 279 277 274 272 273 274 273 272 271 271 270 271
282 283 281 283 282 283 284 283 283 284 284 285 286 286 287 286 287 286 286 285 285 282 282 280 283 283 283 284 286 286 280 279 277 275 272 272 273 273 272 273 272 271 269 269
283 284 281 280 282 282 283 284 284 284 285 285 286 285 286 285 285 284 284 281 282 280 278 279 281 281 281 280 280 279 278 278 276 274 273 273 273 272 271 272 272 271 270 270
285 285 282 280 285 284 286 285 285 284 285 285 285 284 284 284 285 283 280 280 279 278 277 278 277 278 277 276 276 276 277 277 275 273 272 272 272 271 271 270 269 274 275 277

GFSCGP_sfc_thetae_102.txt.gz
Theta_e
301 293 290 295 299 296 299 291 288 288 291 291 290 290 293 290 289 298 302 303 306 310 313 314 315 316 318 322 323 325 325 325 324 321 323 325 326 327 328 329 329 329 329 327
294 290 296 299 297 298 291 294 291 289 290 289 289 290 289 289 290 292 298 298 302 301 301 305 306 311 313 319 322 324 326 326 325 326 322 323 325 328 329 329 328 329 328 328
294 295 298 295 294 290 292 289 288 288 288 287 286 287 287 289 288 290 290 292 293 299 301 299 298 301 309 314 318 323 325 326 326 326 322 325 326 326 326 327 328 324 325 326
293 298 296 293 291 292 287 291 290 287 287 284 285 280 285 286 288 289 290 289 290 291 295 297 297 297 298 307 311 319 323 326 326 324 324 325 324 322 323 324 316 312 314 314
291 290 291 290 291 295 291 291 289 288 286 283 282 280 285 282 285 287 289 290 292 292 293 297 297 298 299 299 300 303 316 321 323 325 325 325 324 323 320 313 309 307 306 307
292 294 292 291 292 295 292 290 288 287 283 278 284 281 281 284 285 288 290 291 293 291 291 294 297 299 301 301 300 297 302 319 321 323 325 325 323 319 314 309 305 303 301 300
290 291 291 291 290 291 292 287 280 279 276 278 279 278 286 285 287 289 293 293 293 290 291 294 297 298 299 300 300 299 302 308 321 322 323 325 321 318 314 308 303 299 297 296
285 283 290 292 291 285 288 288 279 274 275 278 279 278 284 288 288 288 289 290 290 291 292 294 296 297 298 299 299 300 302 305 316 322 322 320 319 315 310 305 301 297 295 293
284 285 290 289 292 292 287 287 287 279 272 275 278 280 285 286 287 289 290 289 289 291 293 295 295 296 298 298 298 298 300 304 307 311 310 308 306 304 300 297 295 294 291 290
285 280 286 289 293 291 289 291 283 283 272 272 275 276 281 283 288 289 290 291 291 291 293 294 295 295 295 295 295 295 297 300 301 303 304 302 299 298 295 293 290 290 288 287
285 284 282 287 286 286 286 286 285 285 281 276 274 278 283 287 289 290 291 292 292 291 293 294 294 293 293 293 293 293 293 295 297 296 296 296 294 293 292 290 288 287 286 285
287 284 279 282 286 290 290 288 289 283 279 277 278 280 284 286 286 288 288 291 292 293 293 293 292 291 291 292 291 292 291 291 294 294 294 292 291 290 289 287 286 285 284 284
288 283 276 280 283 284 285 286 287 288 283 281 279 282 286 286 288 289 289 291 292 292 292 292 292 292 292 290 290 289 289 289 290 292 291 289 288 287 286 284 284 284 284 283
294 285 282 278 280 284 281 286 287 286 282 282 283 284 286 288 289 289 290 292 291 292 292 292 291 290 289 289 289 288 287 288 289 289 289 287 286 285 284 284 283 283 283 282
290 284 282 282 283 286 284 285 287 285 286 283 286 283 285 288 289 289 291 291 291 291 291 291 290 289 288 288 288 287 287 287 286 286 286 284 283 283 283 282 282 282 281 281
286 278 282 279 284 283 282 285 286 288 288 287 288 287 292 288 288 290 291 292 291 292 293 293 292 290 290 290 289 288 287 286 285 284 283 283 283 282 282 282 282 281 281 280
286 281 277 275 279 281 277 283 284 285 287 288 284 290 288 288 288 289 290 292 293 293 294 293 292 292 292 291 290 288 287 286 284 284 283 283 282 282 282 281 280 280 279 279
287 282 279 275 276 274 283 285 287 286 288 290 290 288 289 291 289 291 292 293 293 294 294 294 295 294 294 292 291 290 288 286 284 284 283 282 282 281 280 279 279 278 278 278
288 286 281 276 270 280 285 285 284 283 285 288 288 290 289 287 287 289 292 294 295 295 296 297 297 296 294 292 291 288 286 285 284 283 283 282 281 280 279 278 277 277 277 276
287 288 285 276 278 272 281 288 288 288 282 289 288 288 289 288 284 290 292 293 294 296 296 296 296 296 294 292 290 287 285 284 283 283 283 282 281 279 278 278 276 276 275 276
278 281 283 282 280 278 285 285 288 281 283 284 288 289 287 288 291 289 291 290 291 292 293 293 294 295 294 291 288 287 286 285 286 284 282 279 279 278 277 276 274 274 274 275
281 280 278 277 280 278 284 285 286 288 285 286 288 287 287 288 288 287 288 290 290 289 289 292 293 293 293 289 287 287 286 286 284 281 280 278 277 277 276 275 273 273 273 273
280 283 280 285 284 286 284 284 284 286 285 284 286 287 288 286 285 286 287 286 286 286 287 288 287 287 286 286 287 287 286 283 281 280 279 276 276 275 275 274 273 272 272 273
280 282 281 282 282 283 284 283 283 284 283 285 285 286 287 287 286 285 285 285 285 282 281 280 282 282 280 283 285 285 281 281 281 280 277 275 275 274 274 275 274 273 273 273
280 284 278 279 282 282 283 284 284 284 285 284 285 285 284 284 285 285 284 282 281 280 278 278 279 279 279 279 279 280 281 281 281 278 275 275 275 274 273 274 274 274 274 275
284 281 282 278 284 284 285 285 285 284 284 284 284 283 284 284 284 283 280 279 279 278 277 277 276 277 276 277 276 277 280 281 278 275 275 274 274 274 273 273 272 277 276 277

GFSCGP_sfc_thetae_105.txt.gz
Theta_e
299 296 295 297 300 299 298 295 294 290 292 290 290 291 295 293 298 303 305 308 309 311 316 316 318 321 323 325 325 326 326 326 325 325 324 325 325 327 328 329 329 328 328 327
294 292 298 301 301 296 298 295 292 293 291 290 289 290 294 291 291 295 303 305 308 309 309 314 315 316 319 323 325 325 326 326 326 327 326 329 328 328 329 329 330 330 329 328
292 294 298 299 297 297 293 295 294 294 289 290 288 288 290 291 290 291 293 301 304 309 310 308 309 313 317 318 322 325 326 327 327 328 326 326 327 327 327 327 328 325 328 328
296 298 295 294 294 297 291 295 291 289 288 287 287 281 288 289 290 289 291 291 296 301 302 307 307 305 310 316 319 323 326 327 327 328 327 327 326 324 325 325 319 316 318 319
292 292 293 291 293 295 292 295 292 289 286 282 282 282 286 286 286 289 290 291 292 294 297 301 304 305 304 306 313 318 322 326 327 327 328 327 326 327 321 316 312 309 309 310
292 294 295 293 293 297 293 292 290 289 286 281 283 284 282 290 288 290 291 293 294 294 292 293 296 299 301 302 303 306 316 322 325 326 327 326 325 320 315 312 309 306 304 303
291 291 293 291 288 293 293 289 281 280 278 278 280 281 288 288 289 292 294 294 295 294 292 292 295 297 300 302 302 300 302 316 322 324 326 326 325 321 317 313 308 302 300 298
286 284 290 292 289 287 290 289 282 276 276 277 278 279 284 289 293 290 290 291 291 292 291 292 295 297 300 301 302 301 300 303 319 322 324 325 323 322 317 311 306 302 299 296
287 287 291 291 293 292 287 285 287 281 271 274 278 281 287 287 288 288 290 290 291 292 292 294 294 297 299 300 301 301 300 302 308 320 322 323 321 317 311 306 303 298 295 293
287 281 288 291 293 292 288 292 284 284 275 271 276 277 282 284 288 290 289 291 293 292 291 293 295 296 298 299 299 299 300 302 304 313 314 314 313 310 304 300 296 294 292 291
287 284 281 286 287 286 287 286 287 286 281 275 272 278 283 287 289 289 290 291 292 293 292 293 295 295 297 297 296 296 297 299 301 304 303 301 299 300 299 297 293 291 290 289
287 283 279 283 285 291 289 287 288 284 279 279 278 279 286 286 287 288 289 289 292 293 293 294 294 295 294 295 294 294 295 296 299 298 299 298 296 295 293 292 290 289 288 287
287 282 275 281 284 284 286 286 289 287 285 282 280 284 286 285 286 289 290 291 292 293 293 293 293 293 293 293 293 293 293 293 295 295 295 294 292 292 291 289 288 287 286 286
293 284 281 279 281 284 283 286 288 288 283 282 283 287 286 288 289 288 290 292 293 293 293 293 292 293 292 292 291 291 290 291 292 293 292 291 290 290 289 287 286 286 285 284
289 280 281 282 283 284 285 285 285 285 287 283 287 286 290 292 293 294 290 292 292 292 292 292 292 291 291 291 291 291 290 289 290 291 290 289 287 287 286 285 285 284 284 283
286 278 281 278 282 283 282 286 287 287 287 287 287 285 289 289 289 288 291 290 292 292 293 293 293 292 291 291 291 290 288 287 289 288 288 286 285 285 285 284 284 283 282 282
285 281 277 271 279 280 275 283 285 287 289 288 283 289 290 288 289 292 293 290 292 293 293 293 294 293 293 293 292 289 288 287 286 286 285 285 284 284 284 283 282 281 281 281
286 280 276 271 274 272 283 284 287 287 288 291 291 291 289 292 291 290 291 291 292 293 293 294 295 295 295 294 291 291 288 286 285 285 284 284 284 283 282 281 281 280 280 280
286 283 275 274 268 279 283 283 283 282 284 288 287 290 290 288 286 289 290 292 294 293 295 296 296 296 294 293 292 289 287 286 285 284 284 283 283 282 281 280 279 279 279 279
285 287 281 267 271 272 280 286 287 287 282 289 288 288 287 286 284 290 290 291 292 293 294 295 295 294 293 292 291 288 286 285 284 284 284 283 283 282 281 280 279 279 279 279
274 276 281 270 275 276 284 285 287 279 282 283 287 288 286 286 289 288 290 290 289 290 291 292 293 294 294 291 289 288 287 285 287 285 283 282 281 281 281 279 278 277 277 277
279 277 273 270 269 276 285 284 285 287 285 286 287 287 286 286 286 286 287 287 288 287 288 290 291 291 291 289 288 287 286 287 284 283 282 281 281 280 279 278 276 277 277 276
279 282 280 283 281 286 284 284 284 285 285 284 285 285 286 287 286 286 286 286 286 285 285 284 285 287 287 286 288 287 286 284 282 282 282 281 279 279 278 277 276 275 276 275
279 283 282 283 282 283 283 283 283 283 284 285 285 285 285 285 285 284 285 284 284 282 281 280 281 281 280 280 282 283 283 283 283 283 281 279 278 277 277 277 276 276 275 276
282 283 278 278 281 282 282 283 284 285 284 284 285 284 284 284 284 284 283 281 281 279 279 279 279 279 279 278 278 279 281 282 283 282 279 278 278 277 276 276 276 276 277 278
283 281 281 279 284 284 284 284 285 284 283 283 284 283 282 283 283 282 279 278 278 278 277 278 277 277 276 276 276 277 280 282 281 278 277 277 276 276 276 275 275 279 278 280

GFSCGP_sfc_thetae_108.txt.gz
Theta_e
303 299 297 300 302 304 300 300 299 299 296 296 298 298 301 303 300 305 309 313 316 318 322 326 328 330 331 332 331 327 325 327 328 329 329 329 329 331 332 332 331 329 328 328
297 296 304 306 305 301 301 299 300 303 299 297 298 296 300 302 300 301 305 310 313 317 319 322 325 328 329 331 331 331 328 328 329 331 331 331 331 332 332 333 331 331 331 330
297 300 303 303 300 299 297 297 299 299 294 295 296 298 302 304 299 300 301 306 312 315 316 319 322 324 327 329 330 331 331 331 331 331 332 332 332 331 330 329 331 331 332 331
298 301 301 300 300 301 293 298 299 298 294 292 298 290 301 305 304 298 299 300 304 312 317 319 320 322 324 326 330 331 332 332 332 332 331 330 328 327 329 330 331 327 328 329
295 295 297 299 298 302 295 297 295 292 293 287 292 286 297 298 297 299 300 301 301 305 312 316 317 320 323 326 327 329 331 331 332 332 332 332 330 331 332 327 322 319 318 320
295 298 300 299 298 301 298 293 292 290 289 284 291 288 294 298 298 302 302 301 302 302 303 309 315 318 318 320 323 326 327 329 331 332 331 331 331 331 328 323 321 315 313 311
292 293 295 298 294 296 294 292 283 282 282 286 288 288 294 301 299 302 303 303 303 303 302 302 303 307 312 313 314 320 323 324 328 330 330 331 331 331 328 324 323 316 311 305
287 284 291 295 297 291 292 293 285 281 281 287 283 285 293 297 297 301 299 301 301 302 302 302 301 303 305 309 312 313 314 319 325 327 328 329 331 331 329 327 321 316 310 305
288 287 294 292 295 296 290 288 294 285 279 282 287 290 294 296 296 296 297 298 299 300 300 300 301 301 303 305 308 311 309 312 319 324 325 325 326 327 325 323 318 313 306 299
294 285 292 293 295 294 295 296 286 287 281 280 287 286 289 293 294 297 297 299 301 301 299 299 299 300 302 305 307 309 309 309 311 320 323 323 324 325 322 318 312 305 301 296
295 290 285 290 289 289 291 290 290 290 287 283 282 288 295 295 296 295 296 297 298 299 301 301 301 301 302 304 306 307 306 307 308 310 319 320 317 315 311 308 304 301 299 295
292 289 285 287 291 293 294 291 291 287 283 286 283 287 294 294 294 293 296 296 298 299 300 301 300 301 301 302 304 304 305 305 307 309 312 314 310 303 303 300 298 296 294 294
292 288 282 282 287 290 290 291 293 292 289 286 285 289 300 295 294 295 296 297 299 299 300 300 300 300 300 301 301 302 303 304 304 305 307 305 303 302 302 296 293 293 291 291
295 288 288 284 286 288 286 290 291 291 285 288 288 292 295 293 295 297 297 297 298 300 300 300 300 299 300 300 301 300 300 301 301 302 302 302 300 300 296 296 290 290 289 289
294 286 287 288 289 290 289 289 290 289 291 287 291 290 295 298 299 300 301 300 297 298 299 299 299 300 299 298 298 299 300 299 299 299 299 298 296 295 292 289 290 288 289 287
291 287 288 283 287 288 287 290 290 290 291 291 292 291 298 299 300 299 300 300 297 297 298 300 299 299 297 297 298 298 298 296 296 297 296 294 290 289 289 288 286 286 285 286
289 286 286 283 284 285 283 287 290 291 293 292 288 293 296 296 296 297 298 299 299 300 299 299 300 300 299 298 298 297 297 295 294 294 291 289 289 288 286 285 284 284 284 284
289 286 287 280 281 278 288 293 293 291 292 295 294 295 296 297 298 299 300 299 298 299 298 299 300 300 300 300 298 297 295 292 291 290 289 288 287 287 285 283 283 283 283 283
293 289 281 282 282 286 287 287 288 288 289 294 293 295 297 297 295 296 299 298 298 299 298 300 301 301 301 299 298 295 291 291 289 288 288 287 287 286 284 283 282 282 282 283
289 293 289 279 281 278 287 291 292 292 284 294 294 294 294 293 288 293 295 295 296 296 297 298 300 299 299 298 297 291 290 289 289 289 287 287 287 286 284 284 283 283 284 283
284 286 283 283 283 286 289 289 293 284 287 289 292 292 291 290 294 294 294 294 294 293 293 296 298 298 298 296 293 291 290 289 291 288 287 285 285 285 285 284 283 283 282 281
284 283 283 284 282 279 291 289 289 292 291 293 292 292 291 292 291 292 291 291 291 290 291 291 294 295 297 293 291 290 289 290 288 287 285 285 285 284 284 283 282 282 281 281
284 289 286 287 287 291 291 293 291 292 292 291 293 291 292 292 290 290 289 289 288 287 287 287 288 289 289 289 290 289 289 287 286 285 285 284 284 284 284 283 281 281 281 281
286 288 289 288 289 289 290 288 290 290 290 290 291 290 291 289 289 288 288 287 286 284 283 284 286 286 286 285 286 287 287 286 285 285 284 284 283 283 283 283 282 282 280 280
288 287 285 285 285 287 288 289 289 288 289 289 288 288 288 289 287 287 285 284 283 283 282 283 283 283 283 283 285 285 285 285 285 285 283 283 283 282 281 282 281 281 282 282
286 287 288 288 290 291 290 289 289 288 287 288 287 286 284 286 285 284 282 281 281 281 281 281 281 281 280 281 281 282 283 284 284 283 281 282 282 280 280 280 279 282 282 282

GFSCGP_sfc_thetae_111.txt.gz
Theta_e
306 300 298 302 304 305 303 298 301 304 304 300 302 303 307 309 305 305 307 310 314 316 322 325 328 331 331 332 330 324 323 325 327 328 327 327 327 329 332 334 333 331 330 329
300 297 304 306 305 304 302 301 300 304 298 298 302 301 304 306 308 306 306 307 310 315 317 322 325 329 330 331 331 328 324 325 326 328 329 330 331 332 332 335 334 332 331 330
298 300 306 304 303 300 301 300 301 301 300 301 301 300 304 308 307 306 305 306 309 311 315 318 322 326 330 331 332 331 329 326 326 328 330 332 332 332 332 332 332 331 331 332
299 304 303 303 301 302 296 301 302 299 297 294 300 292 302 307 308 307 306 305 306 309 314 317 320 323 327 330 333 333 333 331 329 329 330 330 329 327 330 331 332 332 333 332
297 298 300 299 300 304 297 303 300 295 294 293 296 292 298 304 303 306 309 307 306 308 312 316 319 322 325 329 331 333 333 333 332 332 332 331 329 331 332 331 330 331 331 331
297 300 303 302 304 304 300 295 294 294 293 287 294 294 294 299 302 304 307 309 310 308 309 314 319 322 324 327 329 331 331 331 333 333 333 331 330 330 330 330 328 326 324 321
294 296 297 302 295 298 296 295 286 284 285 285 292 293 295 302 305 305 303 307 309 309 308 310 314 319 321 323 326 327 329 329 332 333 331 332 332 332 331 330 327 324 321 316
288 284 292 300 296 292 293 294 288 282 283 288 287 288 295 302 302 299 305 304 304 306 309 309 309 314 318 321 323 325 325 326 329 331 332 332 332 332 332 330 327 325 321 319
289 288 295 296 299 298 292 289 297 288 283 285 290 293 298 301 300 302 301 302 303 303 304 306 308 308 308 312 317 319 321 323 326 328 330 331 332 331 330 329 329 327 322 314
295 286 292 292 299 296 297 298 288 290 283 282 288 291 292 296 298 301 301 301 303 304 304 303 303 304 306 307 309 312 316 317 320 324 327 328 328 328 329 327 325 323 315 305
298 292 287 291 292 291 292 291 293 294 291 285 284 289 297 299 299 299 298 298 300 301 302 303 304 305 305 306 307 308 310 312 314 317 323 325 324 324 326 322 319 315 307 302
297 292 284 287 292 296 297 293 293 289 285 289 288 288 297 298 298 298 298 299 301 302 303 303 304 304 304 304 305 306 309 310 311 313 316 322 321 316 317 312 307 304 302 300
295 290 282 282 289 292 291 295 296 295 291 288 286 290 302 299 296 298 298 299 301 301 303 304 304 304 304 304 304 305 306 308 309 310 311 315 315 308 308 304 301 298 296 295
297 292 289 284 288 291 287 291 293 293 288 289 289 293 297 298 298 298 299 301 302 303 303 303 303 304 304 304 304 304 305 306 307 307 308 309 309 308 307 303 298 295 295 292
296 288 291 292 293 292 291 290 292 290 292 289 292 293 296 300 301 302 304 304 303 303 303 302 303 304 304 303 303 303 304 304 304 304 305 305 305 304 302 298 295 293 293 292
295 289 290 284 291 292 289 292 292 292 293 293 294 293 300 301 302 300 301 302 301 302 302 302 302 303 303 302 302 302 302 303 303 302 302 303 299 295 293 290 289 289 288 288
291 287 287 282 288 287 284 289 292 293 294 294 290 295 298 297 299 299 300 301 301 302 302 302 302 302 303 303 302 301 302 302 299 298 295 293 292 290 290 289 287 286 286 285
290 288 286 280 285 278 290 293 295 293 295 297 297 298 299 300 301 302 303 301 301 301 301 301 302 302 303 304 303 302 301 298 295 294 291 290 289 288 286 285 285 285 284 284
295 292 283 281 282 288 287 289 292 291 291 297 296 298 299 300 300 299 302 302 301 299 298 299 301 302 302 303 302 300 295 294 292 292 290 289 289 287 285 284 283 283 283 284
294 294 289 284 282 279 289 293 297 296 285 297 297 297 298 298 292 295 296 297 297 297 297 296 299 301 301 301 300 294 292 292 291 291 290 289 288 287 286 286 285 284 284 284
285 287 285 285 285 288 291 293 296 284 289 294 297 298 297 294 297 295 296 295 295 294 294 295 297 298 298 297 293 291 291 290 291 290 288 287 286 286 287 286 284 284 284 283
285 284 284 286 284 280 293 291 289 295 294 294 295 294 296 297 294 294 293 292 292 291 291 292 294 295 295 292 291 290 290 291 288 287 286 285 285 285 285 285 284 284 283 282
286 290 287 288 288 294 294 295 297 298 296 295 296 295 295 294 293 293 292 291 290 288 288 288 288 289 288 287 288 288 288 287 285 285 284 285 285 285 285 285 283 282 283 282
289 292 291 289 291 292 293 291 293 294 294 295 295 295 295 292 292 290 290 288 288 286 284 285 285 285 284 285 285 285 286 285 285 285 284 284 284 284 284 284 284 284 282 282
290 290 288 288 287 290 292 292 292 292 292 291 292 291 292 291 290 289 286 285 285 284 283 283 283 283 282 283 283 283 284 284 284 285 283 284 284 284 283 283 283 282 283 284
290 290 288 289 291 293 293 292 292 290 290 289 287 286 287 289 287 285 283 283 282 282 282 281 280 280 280 280 280 279 280 282 283 283 283 283 283 282 282 282 281 284 285 284

GFSCGP_sfc_thetae_114.txt.gz
Theta_e
305 299 295 299 302 304 302 299 298 301 302 299 298 299 303 305 300 299 300 302 307 315 317 320 323 325 325 322 319 319 322 325 328 325 322 321 321 322 323 326 327 327 325 324
300 296 301 304 304 302 302 299 298 301 298 295 297 298 301 304 305 304 301 301 303 308 313 319 321 323 325 325 325 319 319 322 324 325 325 322 322 322 324 327 327 327 325 325
295 298 304 303 300 299 300 298 297 298 298 299 295 294 299 304 304 303 303 302 303 305 309 314 319 322 324 325 326 325 320 321 322 324 324 323 324 325 325 325 326 327 326 325
298 301 300 299 298 300 295 301 300 299 296 292 295 286 295 300 303 304 302 299 300 302 307 312 318 320 323 325 327 328 325 321 322 323 323 323 323 323 325 326 327 327 327 326
295 297 299 297 299 302 297 302 299 296 294 292 293 288 292 298 298 301 305 303 302 301 304 309 313 319 323 325 327 328 328 324 322 323 323 324 325 326 326 326 326 326 326 326
297 300 301 301 303 302 299 296 294 292 293 286 291 290 290 295 298 300 303 305 305 304 302 306 311 315 319 323 326 327 327 328 326 323 323 325 325 325 325 325 325 325 323 322
295 296 297 300 298 298 297 294 284 284 284 284 289 289 293 298 300 300 300 299 301 305 303 302 307 311 316 319 323 325 326 327 328 327 325 325 326 326 325 325 326 322 320 317
288 285 293 301 298 293 295 294 284 278 280 282 283 283 291 301 300 297 298 300 298 297 301 302 303 308 313 316 319 322 323 325 327 328 328 328 327 328 327 327 327 324 321 319
288 287 295 299 298 298 292 290 294 284 277 280 284 288 294 297 296 295 295 296 297 296 297 296 300 303 309 313 315 318 319 322 324 326 327 328 328 328 327 327 327 326 322 316
292 285 292 292 298 296 295 297 288 287 276 276 283 285 288 291 295 296 296 296 296 296 296 296 297 298 299 302 308 313 316 318 319 321 325 326 327 328 328 327 325 325 322 312
295 290 287 292 292 290 292 291 292 291 288 280 278 283 289 294 295 295 292 294 294 296 296 297 297 298 298 299 299 301 306 309 312 315 319 320 322 323 321 325 323 321 310 307
294 289 283 286 292 296 295 293 293 287 283 285 283 283 292 292 292 294 293 295 296 297 297 297 298 298 298 298 299 299 300 303 305 307 310 313 316 315 317 319 315 308 306 303
294 287 281 283 287 289 291 294 295 291 287 282 280 283 294 292 292 293 293 294 296 295 296 297 297 297 298 297 298 299 300 301 303 305 305 308 311 313 314 310 306 304 302 301
297 289 286 282 286 289 287 291 293 291 283 284 286 288 288 290 292 292 293 295 295 296 298 297 297 297 297 298 298 298 299 301 302 303 303 303 304 306 306 304 301 299 298 296
294 284 288 289 291 290 290 291 292 290 291 287 289 290 293 294 294 296 296 298 297 297 298 297 296 296 297 298 298 298 299 300 301 300 300 300 300 301 300 297 297 294 294 294
293 284 286 280 289 290 287 291 291 292 292 291 290 289 296 295 295 296 296 297 296 296 297 296 297 296 297 297 297 298 298 298 298 298 297 299 297 294 291 289 289 289 289 290
291 286 284 277 282 284 279 287 290 291 293 293 288 293 294 293 295 295 296 296 296 296 296 296 296 296 296 297 298 296 297 297 296 293 291 291 289 288 288 287 287 287 286 286
289 286 285 279 282 274 285 293 293 291 293 294 294 294 296 295 297 297 296 294 296 296 295 294 295 295 296 298 298 297 296 294 291 289 289 287 287 286 285 285 285 285 285 285
293 288 281 279 279 283 285 286 290 289 289 295 294 295 295 296 294 294 296 294 294 293 294 294 295 296 296 296 296 294 290 289 288 288 288 287 287 284 284 285 284 284 284 283
292 292 285 283 274 274 284 289 294 293 281 294 295 295 295 295 290 290 292 293 293 293 292 292 293 295 295 294 293 289 288 288 287 287 287 286 286 284 283 283 284 283 284 284
284 285 282 280 275 280 287 288 294 279 282 290 295 296 293 292 293 291 292 291 291 290 290 290 293 293 292 290 288 288 287 287 287 286 285 283 282 281 282 281 280 281 283 283
283 282 282 278 273 276 289 289 286 289 287 288 291 293 293 291 290 290 290 289 288 287 287 288 289 287 287 285 287 286 285 286 283 282 281 280 279 281 281 280 279 282 283 283
281 286 284 285 282 288 291 290 292 291 290 290 290 290 291 289 289 288 288 287 285 285 284 284 283 282 282 282 283 283 282 282 280 279 277 277 278 280 280 280 278 281 283 282
284 289 283 283 285 286 288 288 290 291 290 292 291 291 290 289 288 287 286 285 282 281 280 279 279 278 279 279 280 278 279 279 278 277 277 277 277 277 278 279 279 278 279 279
284 287 283 281 282 285 286 287 288 289 289 289 289 289 289 288 286 285 282 281 281 280 279 278 278 277 277 277 276 276 278 278 279 277 276 276 277 275 276 277 276 277 277 279
286 285 285 281 287 288 290 288 289 287 286 285 285 284 285 285 283 282 280 280 279 277 277 276 275 274 273 272 272 273 274 276 275 277 276 276 275 274 275 275 275 283 284 285

GFSCGP_sfc_thetae_117.txt.gz
Theta_e
304 299 295 296 299 299 298 296 295 297 301 298 298 296 298 302 299 297 299 299 308 315 320 322 324 324 323 324 323 325 324 325 325 324 320 319 319 319 319 321 324 324 324 323
300 295 299 301 301 300 300 296 297 300 299 299 295 295 299 301 302 299 299 299 300 310 312 319 320 322 322 323 323 323 324 324 325 326 325 321 319 320 322 323 325 325 324 323
295 297 301 300 299 298 297 297 298 299 295 297 293 292 296 301 302 303 302 300 301 302 312 315 318 321 322 320 319 319 323 324 325 325 324 320 320 320 320 322 324 325 325 323
297 299 299 298 297 299 293 301 299 296 295 290 294 284 292 298 300 302 301 299 299 301 307 314 317 319 321 322 322 318 319 322 323 325 323 323 321 319 322 323 326 325 324 323
295 296 296 295 297 300 295 301 297 296 292 289 290 287 290 295 295 299 304 301 300 300 302 307 316 319 321 323 324 324 318 318 321 322 323 322 321 322 323 324 324 325 325 324
297 300 299 299 300 300 299 296 295 294 293 287 290 290 288 293 297 298 301 305 304 300 299 303 312 318 319 322 324 323 323 318 319 319 321 321 320 321 322 322 323 324 324 324
295 296 298 301 295 298 298 295 285 284 284 282 289 288 293 296 298 299 300 300 303 301 299 301 303 309 314 318 322 323 324 323 320 318 320 320 321 322 323 323 324 323 323 319
287 285 295 299 298 293 295 294 282 277 279 280 283 283 289 300 303 301 302 302 298 297 300 299 301 307 312 317 320 321 322 324 324 322 319 320 322 325 324 324 325 324 324 323
288 287 295 297 298 298 293 291 291 282 274 278 282 286 293 295 297 295 295 294 296 296 295 299 299 302 309 312 316 320 322 324 324 325 325 322 322 323 325 325 325 324 323 322
292 285 293 292 298 296 296 297 288 284 275 275 280 282 285 290 293 295 295 295 293 294 294 295 295 296 299 307 311 315 319 321 322 324 326 325 325 325 325 325 324 324 323 319
294 290 287 293 293 292 292 292 290 290 284 279 276 281 290 292 296 294 292 293 293 294 294 295 295 296 296 296 297 301 309 313 315 317 322 323 323 324 325 325 324 325 322 317
294 290 284 289 291 295 296 293 294 287 283 284 282 282 290 291 292 291 292 293 294 295 295 296 296 296 296 297 297 297 297 299 304 308 311 313 316 315 320 323 325 320 317 313
293 287 282 283 289 292 292 294 295 290 286 284 280 282 290 288 290 291 291 293 295 296 296 295 295 295 296 296 296 296 297 298 299 302 303 304 306 309 311 314 311 309 307 306
296 289 287 283 287 290 289 292 294 289 282 283 287 285 285 288 290 290 291 292 292 294 296 295 295 295 295 296 296 296 297 298 299 301 301 300 301 305 307 307 307 304 303 302
293 285 287 287 289 291 290 291 293 290 290 287 290 288 288 289 289 290 292 293 294 296 296 296 295 295 294 295 296 296 296 297 298 299 299 299 298 300 300 299 298 298 297 297
293 286 286 280 288 290 288 291 293 293 293 292 289 289 294 293 294 292 293 295 295 295 296 295 295 294 294 295 295 296 296 296 297 297 296 297 296 294 293 291 291 293 292 292
291 285 283 275 283 285 280 289 291 292 294 294 288 293 294 293 293 294 295 295 295 295 295 294 293 293 293 294 296 295 295 295 294 292 291 291 290 290 289 288 287 287 288 288
290 286 284 280 285 278 286 293 295 293 294 296 295 292 293 294 295 295 295 295 295 295 294 293 293 294 294 295 295 295 294 292 290 289 289 288 288 287 286 285 285 285 287 287
294 286 281 280 280 281 284 286 290 290 290 296 295 295 293 294 294 293 294 294 294 293 292 292 292 294 293 293 293 290 288 287 288 287 287 287 286 283 284 281 282 286 285 284
292 292 285 279 278 275 283 288 295 294 285 296 296 296 295 293 290 292 291 292 291 291 290 290 292 292 291 290 289 287 286 286 286 286 287 286 285 281 281 281 283 284 284 284
285 285 284 282 274 278 285 287 296 283 285 292 296 296 295 293 295 292 290 289 289 288 289 289 289 287 287 287 286 285 285 284 285 284 283 281 281 280 280 279 278 278 282 283
284 283 282 276 269 277 287 290 288 290 288 288 291 296 294 291 289 289 288 287 286 285 286 286 285 283 283 283 284 283 282 283 280 280 280 278 276 279 278 275 275 277 283 283
282 286 284 286 284 287 287 291 293 290 289 289 290 290 291 289 287 287 286 284 283 283 283 283 281 280 280 279 281 281 280 280 279 278 277 275 276 277 276 274 273 275 276 278
284 288 284 284 285 285 288 287 290 290 287 289 289 289 291 287 287 285 284 282 281 280 280 279 278 277 276 276 277 276 277 278 277 276 276 275 274 274 274 276 276 274 274 274
285 286 281 281 283 285 285 287 289 289 289 289 288 288 287 288 285 284 282 280 280 279 278 277 276 275 273 273 273 272 274 273 277 276 275 275 274 272 273 275 274 275 274 276
285 286 285 283 287 287 290 289 288 287 288 287 286 285 284 286 283 282 280 280 278 277 276 275 273 272 270 269 268 268 269 270 273 275 275 274 273 272 273 272 273 282 283 285